[[{"header":{"parameterUnit":"m.s-1","parameterCategory":1,"la1":30.6,"la2":29.2853,"lo1":-89.7004,"lo2":-87.6739,"dy":0.0162,"dx":0.0183,"nx":112,"ny":82,"refTime":"2025-02-23T18:00:00:Z","depth":0,"parameterNumber":2,"parameterNumberName":"U-component_of_WINDS"},"data":[0.0,0.0,0.0,0.0,0.0,0.0,0.0,0.0,0.0,0.0,0.0,0.0,0.0,0.0,0.0,0.0,0.0,0.0,0.0,0.0,0.0,0.0,0.0,0.0,0.0,0.0,0.0,0.0,0.0,0.0,0.0,0.0,0.0,0.0,0.0,0.0,0.0,0.0,0.0,0.0,0.0,0.0,0.0,0.0,0.0,0.0,0.0,0.0,0.0,0.0,0.0,0.0,0.0,0.0,0.0,0.0,0.0,0.0,0.0,0.0,0.0,0.0,0.0,0.0,0.0,0.0,0.0,0.0,0.0,0.0,0.0,0.0,0.0,0.0,0.0,0.0,0.0,0.0,0.0,0.0,0.0,0.0,0.0,0.0,0.0,0.0,0.0,0.0,0.0,0.0,2.4822,2.7775,2.9583,3.0061,2.8717,2.71,2.4979,2.2157,0.0,0.0,0.0,0.0,0.0,0.0,0.0,0.0,0.0,0.0,0.0,0.0,0.0,0.0,0.0,0.0,0.0,0.0,0.0,0.0,0.0,0.0,0.0,0.0,0.0,0.0,0.0,0.0,0.0,0.0,0.0,0.0,0.0,0.0,0.0,0.0,0.0,0.0,0.0,0.0,0.0,0.0,0.0,0.0,0.0,0.0,0.0,0.0,0.0,0.0,0.0,0.0,0.0,0.0,0.0,0.0,0.0,0.0,0.0,0.0,0.0,0.0,0.0,0.0,0.0,0.0,0.0,0.0,0.0,0.0,0.0,0.0,0.0,0.0,0.0,0.0,0.0,0.0,0.0,0.0,0.0,0.0,0.0,0.0,0.0,0.0,0.0,0.0,0.0,0.0,0.0,0.0,0.0,0.0,0.0,0.0,0.0,0.0,0.0,0.0,0.0,0.0,0.0,0.0,2.3697,2.839,3.0475,3.0432,2.7832,2.7297,2.5618,2.2152,0.0,0.0,0.0,0.0,0.0,0.0,0.0,0.0,0.0,0.0,0.0,0.0,0.0,0.0,0.0,0.0,0.0,0.0,0.0,0.0,0.0,0.0,0.0,0.0,0.0,0.0,0.0,0.0,0.0,0.0,0.0,0.0,0.0,0.0,0.0,0.0,0.0,0.0,0.0,0.0,0.0,0.0,0.0,0.0,0.0,0.0,0.0,0.0,0.0,0.0,0.0,0.0,0.0,0.0,0.0,0.0,0.0,0.0,0.0,0.0,0.0,0.0,0.0,0.0,0.0,0.0,0.0,0.0,0.0,0.0,0.0,0.0,0.0,0.0,0.0,0.0,0.0,0.0,0.0,0.0,0.0,0.0,0.0,0.0,0.0,0.0,0.0,0.0,0.0,0.0,0.0,0.0,0.0,0.0,0.0,0.0,0.0,0.0,0.0,0.0,0.0,0.0,0.0,2.4582,2.6697,2.9506,3.1338,3.1213,2.835,2.76,2.5769,2.2136,2.0241,0.0,0.0,0.0,0.0,0.0,0.0,0.0,0.0,0.0,0.0,0.0,0.0,0.0,0.0,0.0,0.0,0.0,0.0,0.0,0.0,0.0,0.0,0.0,0.0,0.0,0.0,0.0,0.0,0.0,0.0,0.0,0.0,0.0,0.0,0.0,0.0,0.0,0.0,0.0,0.0,0.0,0.0,0.0,0.0,0.0,0.0,0.0,0.0,0.0,0.0,0.0,0.0,0.0,0.0,0.0,0.0,0.0,0.0,0.0,0.0,0.0,0.0,0.0,0.0,0.0,0.0,0.0,0.0,0.0,0.0,0.0,0.0,0.0,0.0,0.0,0.0,0.0,0.0,0.0,0.0,0.0,0.0,0.0,0.0,0.0,0.0,0.0,0.0,0.0,0.0,0.0,0.0,0.0,0.0,0.0,0.0,0.0,0.0,0.0,0.0,0.0,0.0,2.8313,3.0044,3.0891,3.216,3.1763,2.8905,2.7653,2.5543,2.2103,1.9994,0.0,0.0,0.0,0.0,0.0,0.0,0.0,0.0,0.0,0.0,0.0,0.0,0.0,0.0,0.0,0.0,0.0,0.0,0.0,0.0,0.0,0.0,0.0,0.0,0.0,0.0,0.0,0.0,0.0,0.0,0.0,0.0,0.0,0.0,0.0,0.0,0.0,0.0,0.0,0.0,0.0,0.0,0.0,0.0,0.0,0.0,0.0,0.0,0.0,0.0,0.0,0.0,0.0,0.0,0.0,0.0,0.0,0.0,0.0,0.0,0.0,0.0,0.0,0.0,0.0,0.0,0.0,0.0,0.0,0.0,0.0,0.0,0.0,0.0,0.0,0.0,0.0,0.0,0.0,0.0,0.0,0.0,0.0,0.0,0.0,0.0,0.0,0.0,0.0,0.0,0.0,0.0,0.0,0.0,0.0,0.0,0.0,0.0,0.0,0.0,0.0,0.0,2.8967,3.1814,3.2622,3.2814,3.1749,2.8843,2.7108,2.4941,2.1966,1.9449,0.0,0.0,0.0,0.0,0.0,0.0,0.0,0.0,0.0,0.0,0.0,0.0,0.0,0.0,0.0,0.0,0.0,0.0,0.0,0.0,0.0,0.0,0.0,0.0,0.0,0.0,0.0,0.0,0.0,0.0,0.0,0.0,0.0,0.0,0.0,0.0,0.0,0.0,0.0,0.0,0.0,0.0,0.0,0.0,0.0,0.0,0.0,0.0,0.0,0.0,0.0,0.0,0.0,0.0,0.0,0.0,0.0,0.0,0.0,0.0,0.0,0.0,0.0,0.0,0.0,0.0,0.0,0.0,0.0,0.0,0.0,0.0,0.0,0.0,0.0,0.0,0.0,0.0,0.0,0.0,0.0,0.0,0.0,0.0,0.0,0.0,0.0,0.0,0.0,0.0,0.0,0.0,0.0,0.0,0.0,0.0,0.0,0.0,0.0,0.0,0.0,0.0,2.8429,3.0751,3.2568,3.2757,3.1768,2.9378,2.7599,2.5459,2.2703,0.0,0.0,0.0,0.0,0.0,0.0,0.0,0.0,0.0,0.0,0.0,0.0,0.0,0.0,0.0,0.0,0.0,0.0,0.0,0.0,0.0,0.0,0.0,0.0,0.0,0.0,0.0,0.0,0.0,0.0,0.0,0.0,0.0,0.0,0.0,0.0,0.0,0.0,0.0,0.0,0.0,0.0,0.0,0.0,0.0,0.0,0.0,0.0,0.0,0.0,0.0,0.0,0.0,0.0,0.0,0.0,0.0,0.0,0.0,0.0,0.0,0.0,0.0,0.0,0.0,0.0,0.0,0.0,0.0,0.0,0.0,0.0,0.0,0.0,0.0,0.0,0.0,0.0,0.0,0.0,0.0,0.0,0.0,0.0,0.0,0.0,0.0,0.0,0.0,0.0,0.0,0.0,0.0,0.0,0.0,0.0,0.0,0.0,0.0,0.0,0.0,0.0,2.639,2.8736,3.0854,3.3264,3.2974,3.1787,2.9701,2.7661,2.53,2.2409,0.0,0.0,0.0,0.0,0.0,0.0,0.0,0.0,0.0,0.0,0.0,0.0,0.0,0.0,0.0,0.0,0.0,0.0,0.0,0.0,0.0,0.0,0.0,0.0,0.0,0.0,0.0,0.0,0.0,0.0,0.0,0.0,0.0,0.0,0.0,0.0,0.0,0.0,0.0,0.0,0.0,0.0,0.0,0.0,0.0,0.0,0.0,0.0,0.0,0.0,0.0,0.0,0.0,0.0,0.0,0.0,0.0,0.0,0.0,0.0,0.0,0.0,0.0,0.0,0.0,0.0,0.0,0.0,0.0,0.0,0.0,0.0,0.0,0.0,0.0,0.0,0.0,0.0,0.0,0.0,0.0,0.0,0.0,0.0,0.0,0.0,0.0,0.0,0.0,0.0,0.0,0.0,0.0,0.0,0.0,0.0,0.0,0.0,0.0,0.0,0.0,0.0,2.7351,3.0121,3.2609,3.5025,3.3662,3.1787,2.9794,2.7211,2.4239,0.0,0.0,0.0,0.0,0.0,0.0,0.0,0.0,0.0,0.0,0.0,0.0,0.0,0.0,0.0,0.0,0.0,0.0,0.0,0.0,0.0,0.0,0.0,0.0,0.0,0.0,0.0,0.0,0.0,0.0,0.0,0.0,0.0,0.0,0.0,0.0,0.0,0.0,0.0,0.0,0.0,0.0,0.0,0.0,0.0,0.0,0.0,0.0,0.0,0.0,0.0,0.0,0.0,0.0,0.0,0.0,0.0,0.0,0.0,0.0,0.0,0.0,0.0,0.0,0.0,0.0,0.0,0.0,0.0,0.0,0.0,0.0,0.0,0.0,0.0,0.0,0.0,0.0,0.0,0.0,0.0,0.0,0.0,0.0,0.0,0.0,0.0,0.0,0.0,0.0,0.0,0.0,0.0,0.0,0.0,0.0,0.0,0.0,0.0,0.0,0.0,0.0,0.0,2.8121,2.9929,3.1864,3.4656,3.339,3.1959,3.1102,2.8667,2.5738,2.2337,0.0,0.0,0.0,0.0,0.0,0.0,0.0,0.0,0.0,0.0,0.0,0.0,0.0,0.0,0.0,0.0,0.0,0.0,0.0,0.0,0.0,0.0,0.0,0.0,0.0,0.0,0.0,0.0,0.0,0.0,0.0,0.0,0.0,0.0,0.0,0.0,0.0,0.0,0.0,0.0,0.0,0.0,0.0,0.0,0.0,0.0,0.0,0.0,0.0,0.0,0.0,0.0,0.0,0.0,0.0,0.0,0.0,0.0,0.0,0.0,0.0,0.0,0.0,0.0,0.0,0.0,0.0,0.0,0.0,0.0,0.0,0.0,0.0,0.0,0.0,0.0,0.0,0.0,0.0,0.0,0.0,0.0,0.0,0.0,0.0,0.0,0.0,0.0,0.0,0.0,0.0,0.0,0.0,0.0,0.0,0.0,0.0,0.0,0.0,0.0,0.0,0.0,2.7911,2.9525,3.1164,3.3507,3.2769,3.1744,3.0724,2.8801,2.614,2.2501,0.0,0.0,0.0,0.0,0.0,0.0,0.0,0.0,0.0,0.0,0.0,0.0,0.0,0.0,0.0,0.0,0.0,0.0,0.0,0.0,0.0,0.0,0.0,0.0,0.0,0.0,0.0,0.0,0.0,0.0,0.0,0.0,0.0,0.0,0.0,0.0,0.0,0.0,0.0,0.0,0.0,0.0,0.0,0.0,0.0,0.0,0.0,0.0,0.0,0.0,0.0,0.0,0.0,0.0,0.0,0.0,0.0,0.0,0.0,0.0,0.0,0.0,0.0,0.0,0.0,0.0,0.0,0.0,0.0,0.0,0.0,0.0,0.0,0.0,0.0,0.0,0.0,0.0,0.0,0.0,0.0,0.0,0.0,0.0,0.0,0.0,0.0,0.0,0.0,0.0,0.0,0.0,0.0,0.0,0.0,0.0,0.0,0.0,0.0,0.0,0.0,0.0,2.7332,2.9213,3.0696,3.2203,3.2197,3.1395,2.9643,2.8416,2.6008,2.2061,0.0,0.0,0.0,0.0,0.0,0.0,0.0,0.0,0.0,0.0,0.0,0.0,0.0,0.0,0.0,0.0,0.0,0.0,0.0,0.0,0.0,0.0,0.0,0.0,0.0,0.0,0.0,0.0,0.0,0.0,0.0,0.0,0.0,0.0,0.0,0.0,0.0,0.0,0.0,0.0,0.0,0.0,0.0,0.0,0.0,0.0,0.0,0.0,0.0,0.0,0.0,0.0,0.0,0.0,0.0,0.0,0.0,0.0,0.0,0.0,2.1859,2.1169,0.0,0.0,0.0,0.0,0.0,0.0,0.0,0.0,0.0,0.0,0.0,0.0,0.0,0.0,0.0,0.0,0.0,0.0,0.0,0.0,0.0,0.0,0.0,0.0,0.0,0.0,0.0,0.0,0.0,0.0,0.0,0.0,0.0,0.0,0.0,0.0,0.0,0.0,0.0,0.0,2.8879,3.0311,3.16,3.3568,3.3179,3.2558,3.1912,3.0355,2.7864,2.4244,2.1135,0.0,0.0,0.0,0.0,0.0,0.0,0.0,0.0,0.0,0.0,0.0,0.0,0.0,0.0,0.0,0.0,0.0,0.0,0.0,0.0,0.0,0.0,0.0,0.0,0.0,0.0,0.0,0.0,0.0,0.0,0.0,0.0,0.0,0.0,0.0,0.0,0.0,0.0,0.0,0.0,0.0,0.0,0.0,0.0,0.0,0.0,0.0,0.0,0.0,0.0,0.0,0.0,0.0,0.0,0.0,0.0,0.0,0.0,0.0,2.3107,2.2392,0.0,0.0,0.0,0.0,0.0,0.0,0.0,0.0,0.0,0.0,0.0,0.0,0.0,0.0,0.0,0.0,0.0,0.0,0.0,0.0,0.0,0.0,0.0,0.0,0.0,0.0,0.0,0.0,0.0,0.0,0.0,0.0,0.0,0.0,0.0,0.0,0.0,0.0,0.0,0.0,2.8783,3.0544,3.1832,3.2818,3.2919,3.2625,3.1952,3.0566,2.8557,2.5786,2.2471,0.0,0.0,0.0,0.0,0.0,0.0,0.0,0.0,0.0,0.0,0.0,0.0,0.0,0.0,0.0,0.0,0.0,0.0,0.0,0.0,0.0,0.0,0.0,0.0,0.0,0.0,0.0,0.0,0.0,0.0,0.0,0.0,0.0,0.0,0.0,0.0,0.0,0.0,0.0,0.0,0.0,0.0,0.0,0.0,0.0,0.0,0.0,0.0,0.0,0.0,0.0,0.0,0.0,2.893,2.8298,2.9421,2.892,2.8201,2.7219,2.4787,2.4089,2.4667,2.3381,0.0,0.0,0.0,0.0,0.0,0.0,0.0,0.0,0.0,0.0,0.0,0.0,0.0,0.0,0.0,0.0,0.0,0.0,0.0,0.0,0.0,0.0,2.7052,2.8376,2.8788,2.7914,2.4266,0.0,0.0,0.0,0.0,0.0,0.0,0.0,0.0,0.0,0.0,0.0,2.8529,3.0706,3.1969,3.1998,3.26,3.2585,3.1583,3.0586,2.916,2.7113,2.4103,2.1635,0.0,0.0,0.0,0.0,0.0,0.0,0.0,0.0,0.0,0.0,0.0,0.0,0.0,0.0,0.0,0.0,0.0,0.0,0.0,0.0,0.0,0.0,0.0,0.0,0.0,0.0,0.0,0.0,0.0,0.0,0.0,0.0,1.8291,2.0126,0.0,0.0,0.0,0.0,0.0,0.0,0.0,0.0,0.0,0.0,0.0,0.0,0.0,2.3894,2.6576,2.4673,2.5279,2.8298,2.7912,2.8509,2.9983,2.9906,3.0006,3.016,2.8782,0.0,2.6826,2.4831,0.0,0.0,0.0,0.0,0.0,0.0,0.0,0.0,0.0,0.0,0.0,0.0,0.0,0.0,0.0,0.0,0.0,0.0,0.0,0.0,0.0,0.0,3.1556,3.1066,3.1356,3.1319,3.0145,2.6888,2.3671,2.1965,2.104,2.0229,0.0,0.0,0.0,0.0,0.0,0.0,2.9979,3.1741,3.2896,3.3456,3.3613,3.3542,3.3211,3.222,3.0713,2.8644,2.6666,2.4746,2.2897,2.0737,0.0,0.0,0.0,0.0,0.0,0.0,0.0,0.0,0.0,0.0,0.0,0.0,0.0,0.0,0.0,0.0,0.0,0.0,0.0,0.0,0.0,0.0,0.0,0.0,0.0,0.0,0.0,0.0,0.0,1.8141,2.0583,2.0909,2.1645,2.1977,0.0,0.0,0.0,0.0,0.0,0.0,0.0,0.0,0.0,2.5918,2.5764,2.6332,2.7701,2.8122,2.8781,2.9661,3.0138,3.1142,3.2687,3.2687,3.279,3.2993,3.2732,3.2112,3.1111,2.8809,2.6968,2.5439,0.0,0.0,0.0,0.0,2.6245,2.7824,2.8117,2.7934,2.7567,2.7567,0.0,0.0,0.0,0.0,0.0,0.0,0.0,2.8331,2.9715,3.1691,3.3266,3.3323,3.3862,3.4113,3.3255,3.1715,2.9428,2.5832,2.4635,2.3617,2.1893,2.1528,0.0,0.0,0.0,2.8424,3.0953,3.249,3.3456,3.377,3.3807,3.3671,3.3298,3.2421,3.1337,2.9967,2.7962,2.633,2.5302,2.3105,2.1211,0.0,0.0,0.0,0.0,0.0,0.0,0.0,0.0,0.0,0.0,0.0,0.0,0.0,0.0,0.0,0.0,0.0,0.0,0.0,0.0,0.0,0.0,0.0,0.0,0.0,0.0,0.0,0.0,2.0461,2.251,2.1913,2.2827,2.3135,0.0,0.0,0.0,0.0,0.0,0.0,2.6481,2.6576,2.7606,2.9839,2.9233,2.9281,3.0053,3.1428,3.18,3.119,3.2018,3.3424,3.5285,3.5285,3.5282,3.5314,3.5652,3.5328,3.4434,3.2517,3.042,2.8334,2.7482,2.8637,3.0687,2.9095,2.994,3.1861,3.1971,3.1604,3.1164,3.1347,3.0467,2.9108,2.783,0.0,0.0,0.0,0.0,3.0783,3.2834,3.4017,3.4759,3.5257,3.5866,3.6136,3.5245,3.5248,3.4008,2.9357,2.8168,2.7253,2.5059,2.4579,0.0,2.5838,2.8233,3.0502,3.208,3.3534,3.4357,3.4137,3.4046,3.3777,3.3086,3.2419,3.1647,3.0696,2.9041,2.7773,2.6996,2.5203,2.3444,2.1813,0.0,0.0,0.0,0.0,0.0,0.0,0.0,0.0,0.0,0.0,0.0,0.0,0.0,0.0,0.0,0.0,0.0,0.0,0.0,0.0,0.0,0.0,0.0,0.0,0.0,0.0,0.0,0.0,0.0,2.4431,2.4299,0.0,0.0,0.0,0.0,2.3328,2.5835,2.7677,2.8432,2.8968,2.9693,3.0685,3.1668,3.3564,3.6478,3.3029,3.123,3.119,3.2018,3.395,3.6865,3.6865,3.6865,3.6865,3.6904,3.6306,3.5322,3.4725,3.3705,3.2481,3.2168,3.364,3.5899,3.5837,3.5551,3.5092,3.4064,3.366,3.3733,3.4513,3.4211,3.3423,3.313,3.2119,0.0,0.0,3.2963,3.377,3.4651,3.5871,3.6853,3.689,3.7108,3.7111,3.6399,3.6361,3.5407,3.171,3.1189,3.0793,2.9021,0.0,2.9044,2.9968,3.1421,3.2768,3.3769,3.5211,3.5862,3.5027,3.4746,3.4154,3.293,3.2533,3.1812,3.048,3.0307,2.9481,2.7807,2.6962,2.5507,2.3342,2.1786,0.0,0.0,0.0,0.0,0.0,0.0,0.0,0.0,0.0,0.0,0.0,0.0,0.0,0.0,0.0,0.0,0.0,0.0,0.0,0.0,0.0,0.0,0.0,0.0,0.0,0.0,0.0,0.0,2.582,2.6254,0.0,2.6518,2.7082,2.7508,2.7578,2.8359,2.9381,3.0733,3.1011,3.1673,3.2757,3.2546,3.388,3.697,3.5649,3.4936,3.497,3.7236,3.8901,3.9884,3.7888,3.7755,3.8971,3.8649,3.8263,3.7918,3.7742,3.6415,3.4482,3.4657,3.5418,3.6443,3.6721,3.6479,3.6009,3.6119,3.5826,3.532,3.4892,3.4454,3.4051,3.4141,3.3829,3.3769,3.5082,3.5666,3.597,3.6649,3.7166,3.7464,3.7291,3.7327,3.7323,3.7038,3.7184,3.6888,3.5224,3.432,3.3456,3.2302,3.2082,3.2192,3.2537,3.3503,3.4468,3.5368,3.5964,3.6098,3.5593,3.5023,3.4315,3.3381,3.2753,3.1847,3.048,2.9928,2.914,2.7875,2.7097,2.6116,2.4831,2.3816,2.1718,0.0,0.0,0.0,0.0,0.0,0.0,0.0,0.0,0.0,0.0,0.0,0.0,0.0,0.0,0.0,0.0,0.0,0.0,0.0,0.0,0.0,0.0,0.0,0.0,0.0,2.4688,2.6243,2.6933,2.7971,2.8525,2.8308,2.9066,2.9607,2.9725,3.0455,3.1485,3.291,3.3145,3.371,3.4749,3.4082,3.4259,3.5425,3.7496,3.855,3.8585,4.0621,4.1604,4.1534,3.9495,3.9153,4.0059,3.9701,3.9456,3.9322,3.9322,3.8304,3.6763,3.7004,3.7253,3.7664,3.8449,3.8389,3.7991,3.8413,3.8104,3.743,3.6591,3.6245,3.6211,3.641,3.6476,3.6693,3.7911,3.8135,3.8142,3.8474,3.851,3.84,3.8211,3.8135,3.8061,3.8211,3.84,3.8473,3.7914,3.6748,3.5605,3.4798,3.4651,3.4651,3.4651,3.5349,3.6046,3.6633,3.6927,3.6941,3.6431,3.5701,3.4774,3.3704,3.2687,3.1669,3.0745,2.9753,2.8898,2.8247,2.7232,2.6251,2.5236,2.4019,2.2395,2.0399,0.0,0.0,0.0,0.0,0.0,0.0,0.0,0.0,0.0,0.0,0.0,0.0,0.0,0.0,0.0,0.0,0.0,0.0,0.0,0.0,0.0,0.0,0.0,2.4679,2.7006,2.8458,2.7861,2.9494,2.9946,2.8147,2.9983,3.0767,2.9553,3.2183,3.4172,3.4966,3.5426,3.5922,3.652,3.6437,3.5208,3.2722,3.8579,4.156,4.156,4.1604,4.1604,4.1604,4.1604,4.1078,4.0172,4.0144,3.9863,3.9392,3.9392,3.9392,3.9364,3.9248,3.9445,3.991,4.1339,4.1548,4.1046,4.0702,4.0384,4.0052,3.9779,3.986,4.0089,4.0163,4.0163,4.0164,4.0492,4.0347,4.0089,4.0089,3.986,3.97,3.97,3.9494,3.937,3.9736,4.0009,4.0058,3.9618,3.8496,3.7331,3.6523,3.6376,3.6376,3.6376,3.7037,0.0,3.7514,3.8212,3.8395,3.7588,3.6772,3.5615,3.3879,3.2362,3.1419,3.1157,2.9803,2.8994,2.8994,2.7538,2.6081,2.4659,2.2491,2.1373,2.1305,0.0,0.0,0.0,0.0,0.0,0.0,0.0,0.0,0.0,0.0,0.0,0.0,0.0,0.0,0.0,0.0,0.0,0.0,0.0,0.0,0.0,2.5875,2.7611,2.7076,2.8044,2.9514,3.1547,3.1978,3.2494,3.3459,3.4541,3.5144,3.5167,3.5958,3.6636,3.697,3.6999,3.7041,3.7212,3.8026,3.8671,3.9076,4.0008,4.05,4.05,4.1255,4.1604,4.1604,4.1604,4.1464,4.1183,4.1192,4.1078,4.0972,4.0972,4.0972,4.0875,4.0182,3.9984,4.0167,4.1019,4.1052,4.0702,4.0633,4.0274,3.9818,3.974,3.962,3.9575,3.9779,3.9818,3.9857,3.9935,3.9896,3.9779,3.954,3.9453,3.9412,3.9412,3.9329,3.9453,4.0009,4.0125,4.0311,4.062,4.0349,3.968,3.8285,3.8028,3.8028,3.8028,3.8248,3.8358,3.8358,3.8579,3.8423,3.7778,3.6859,3.59,3.4874,3.3274,3.1764,3.048,2.9612,2.8901,2.8391,2.7947,2.7471,2.6894,2.5778,2.4661,0.0,0.0,0.0,0.0,0.0,0.0,0.0,0.0,0.0,0.0,0.0,0.0,0.0,0.0,0.0,0.0,0.0,0.0,0.0,0.0,0.0,0.0,2.7831,2.9722,3.0576,3.0909,3.1735,3.3521,3.4189,3.4903,3.5933,3.6725,3.7178,3.7158,3.7556,3.7954,3.8432,3.8242,3.8311,3.8802,3.9342,4.0066,4.0977,4.0402,4.0087,4.0138,4.0712,4.12,4.1604,4.1604,4.1604,4.1604,4.1604,4.1604,4.1604,4.1604,4.1604,4.1543,0.0,0.0,0.0,0.0,4.1686,4.1432,4.1283,4.0935,4.0488,4.0488,4.0363,4.0313,4.0613,4.0613,4.053,4.0654,4.0613,4.0447,4.0313,4.027,4.027,4.027,4.027,4.044,4.1053,4.1207,4.125,4.1562,4.1625,0.0,3.9937,3.9423,3.9203,3.9203,3.8909,3.8689,3.8689,3.8596,3.8336,3.7895,3.7041,3.6133,3.5302,3.3836,0.0,0.0,0.0,2.9211,2.8152,2.8083,0.0,0.0,0.0,0.0,0.0,2.7838,0.0,0.0,2.5274,2.5812,0.0,0.0,0.0,0.0,0.0,0.0,0.0,0.0,0.0,0.0,0.0,0.0,0.0,0.0,0.0,0.0,2.9405,3.142,3.4177,3.4618,3.4709,3.4709,3.6111,3.7021,3.6748,3.754,3.7863,3.7296,3.8048,3.887,3.9555,3.9302,0.0,0.0,0.0,4.0087,4.0087,4.0087,4.0104,4.0086,4.0205,4.0726,4.1604,4.1604,4.1604,4.1604,4.1604,4.1604,4.1604,4.1604,4.1604,4.1736,4.2369,4.2727,4.2882,4.2957,4.2806,4.249,4.2169,0.0,0.0,4.1604,4.1604,4.1648,4.1917,4.1866,4.1648,4.1995,4.1823,4.1604,4.1604,4.1604,4.1604,4.1604,4.1604,4.178,4.245,4.2609,4.2587,4.2477,4.2433,4.2213,4.1515,4.0634,4.0047,4.0047,3.9423,3.8951,3.8951,3.8692,3.8425,3.8113,3.7382,0.0,3.5723,3.4506,3.3549,3.2895,3.1504,3.0069,2.8699,2.8699,2.897,2.9502,2.9567,3.009,3.1041,3.2782,3.3186,3.2207,2.9147,2.9431,0.0,0.0,0.0,0.0,0.0,0.0,0.0,0.0,0.0,0.0,0.0,0.0,0.0,0.0,0.0,2.9282,3.2355,3.4552,3.4299,3.6291,3.7753,3.7753,3.7717,3.8119,3.9251,3.9538,3.9842,4.0297,4.0504,4.0689,4.0828,4.0439,4.0266,4.0534,4.0238,4.0087,4.0087,4.0087,4.0118,4.0103,4.0931,0.0,4.1604,4.1604,4.1604,4.1604,4.1604,4.1604,4.1604,4.1604,4.178,4.2037,4.245,4.2609,4.2688,4.292,4.2652,4.2205,4.2086,4.1909,4.1604,4.1604,4.1604,4.1604,4.1692,4.1648,0.0,4.1692,4.1648,4.1604,4.1604,4.1604,4.1604,4.1604,4.1604,4.178,4.245,4.2609,4.2732,4.3173,4.3277,4.3204,4.3057,4.1846,4.0891,4.0891,4.0744,4.0537,4.0266,4.0197,3.9878,3.9089,3.8725,3.8312,3.7682,3.6864,3.5795,3.4541,3.3162,3.228,3.2004,3.2363,3.2576,3.2544,3.3119,3.3516,3.3777,3.4699,3.5408,3.5768,3.4462,3.3792,0.0,0.0,0.0,0.0,0.0,0.0,0.0,0.0,0.0,0.0,0.0,2.4532,2.7453,0.0,3.0341,3.23,3.4191,3.5639,3.6291,3.7851,3.9009,3.9128,3.9159,3.9565,4.0548,4.0787,4.0871,4.0849,4.0977,4.0931,4.0645,4.0402,4.0288,4.0288,4.0188,4.0087,4.0087,4.0087,4.0186,4.0371,4.1198,4.1576,4.1604,4.1604,4.1604,4.1604,4.1604,4.1604,4.1604,4.1604,4.1692,4.1909,4.2246,4.245,4.2609,4.2573,4.2374,4.2079,4.1909,4.1736,4.1604,4.1604,4.1604,4.1604,4.1604,4.1604,4.1604,4.1604,4.1604,4.1604,4.1604,4.1604,4.1604,4.1604,4.1604,4.178,4.245,4.2609,4.2804,4.3393,4.3497,4.3497,4.3497,4.2837,4.2142,4.1533,4.1097,4.0739,4.042,4.0201,3.9938,3.9423,3.9006,3.8693,3.8425,3.7826,3.7154,3.6395,3.533,3.4708,3.4594,3.4727,3.4891,3.5081,3.5453,3.5734,3.5887,3.6848,3.7388,3.7614,3.7532,3.7017,0.0,0.0,0.0,0.0,0.0,0.0,0.0,2.1589,2.2933,2.5171,2.625,2.7574,3.0127,3.1146,3.2385,3.4924,3.5508,3.6398,3.8454,3.9206,3.9687,4.0035,4.0391,4.0806,4.123,4.1426,4.1244,4.068,4.0776,4.0631,4.0188,4.0138,4.0087,4.0087,4.0087,4.0087,4.0087,4.0138,4.0303,4.0645,4.1232,4.1555,4.1604,4.1604,4.1604,4.1604,4.1604,4.1604,4.1604,4.1604,4.1604,4.1648,4.1909,4.2205,4.2409,4.2205,4.2079,4.1995,4.1692,4.1604,4.1604,4.1604,4.1604,4.1604,4.1604,4.1604,4.1604,4.1604,4.1604,4.1604,4.1604,4.1604,4.1604,4.1604,4.1604,4.178,4.245,4.2609,4.2804,4.3393,4.3497,4.3497,4.3497,4.3463,4.3101,4.2196,4.1469,4.0926,4.0518,4.0321,4.0081,3.9757,3.9364,3.9098,3.9143,3.8582,3.8258,3.8258,3.7478,3.6894,3.6689,3.6429,3.6582,3.7212,3.7212,3.7408,3.7853,3.8656,3.8992,3.882,3.9209,3.909,2.2791,2.1529,2.1689,2.5149,2.4746,2.3976,0.0,2.5757,2.5697,2.6695,2.8445,3.0007,3.0563,3.2841,3.4694,3.4977,3.6825,3.8415,3.9124,3.9891,4.0629,4.1297,4.1216,4.1276,4.156,4.1198,4.1012,4.1117,4.0741,4.0534,4.0485,4.0238,4.0087,4.0087,4.0087,4.0087,4.0087,4.0337,4.0514,4.0617,4.1036,4.138,4.1604,4.1604,4.1604,4.1604,4.1604,4.1604,4.1604,4.1604,4.1604,4.1604,4.1648,4.1692,4.1736,4.2002,4.1909,4.1648,4.1604,4.1604,4.1604,4.1604,4.1604,4.1604,4.1604,4.1604,4.1604,4.1604,4.1604,4.1604,4.1604,4.1604,4.1604,4.1604,4.1604,4.178,4.245,4.2609,4.2804,4.3393,4.3497,4.3497,4.3497,4.325,4.3032,4.2886,4.2777,4.2517,4.1961,4.1837,4.1626,4.1066,4.0931,4.092,4.0885,4.0269,3.9817,3.9817,3.8945,3.8229,3.8003,3.7759,3.799,3.8734,3.8734,3.9106,3.9767,3.9476,3.9634,4.0247,3.9569,3.9365,2.4757,2.4141,2.4283,2.5491,2.6168,2.6742,2.7492,2.7727,2.8273,2.984,3.0889,3.1827,3.2827,3.4407,3.5814,3.6667,3.8047,3.9241,3.9926,4.0656,4.1078,4.0972,4.1101,4.1255,4.1346,4.1105,4.0871,4.0789,4.0631,4.0436,4.0288,4.0188,4.0087,4.0087,4.0087,4.0087,4.0087,4.0387,4.0597,4.0767,4.1036,4.1346,4.1604,4.1604,4.1604,4.1604,4.1604,4.1604,4.1604,4.1604,4.1604,4.1604,4.1604,4.1604,4.1604,4.178,4.1736,4.1604,4.1604,4.1604,4.1604,4.1604,4.1604,4.1604,4.1604,4.1604,4.1604,4.1604,4.1604,4.1604,4.1604,4.1604,4.1604,4.1604,4.1736,4.2037,4.249,4.2691,4.2957,4.3428,4.3497,4.3463,4.325,4.3105,4.2882,4.2534,4.2494,4.2333,4.1866,4.1823,4.1657,4.1255,4.1346,4.1346,4.1209,4.1066,4.0892,4.0722,4.0216,3.9812,3.9529,3.9321,3.9309,3.9614,3.9362,3.9629,4.0333,3.9818,3.9764,4.0061,3.9502,3.9495,2.5838,2.5616,2.565,2.6045,2.7272,2.8452,2.8699,2.9276,3.0178,3.1734,3.2581,3.3247,3.3963,3.5362,3.6706,3.7672,3.8831,3.9919,4.0691,4.1253,4.1394,4.0867,4.1031,4.1163,4.1117,4.0918,4.0728,4.0534,4.0436,4.0337,4.0138,4.0087,4.0087,4.0087,4.0087,4.0087,4.0087,4.0436,4.0728,4.0871,4.1163,4.1391,4.1604,4.1604,4.1604,4.1604,4.1604,4.1604,4.1604,4.1604,4.1745,4.192,4.192,4.192,4.1955,4.2166,4.1955,4.1604,4.1604,4.1604,4.1604,4.1604,4.1604,4.1604,4.1604,4.1604,4.1604,4.1604,4.1604,4.1604,4.1604,4.1604,4.1604,4.1604,4.1866,4.2205,4.253,4.2806,4.3105,4.3463,4.3428,4.3286,4.3032,4.2882,4.2613,4.2169,4.2037,4.1866,4.1648,4.1604,4.1515,4.1346,4.148,4.1515,4.13,4.1391,4.1346,4.1117,4.0918,4.0783,4.0694,4.0493,4.0493,4.0696,4.0247,4.0201,4.0534,3.9926,3.9707,3.9903,3.9693,4.003,2.5616,2.5005,2.5096,2.7815,2.8298,2.85,3.0,3.0733,3.1167,3.1232,3.3072,3.4193,3.2746,3.5545,3.7802,3.7145,3.8936,4.0691,4.1464,4.1604,4.1604,4.1569,4.1346,4.1117,4.0918,4.068,4.0534,4.0485,4.0288,4.0138,4.0087,4.0087,4.0087,4.0087,4.0087,4.0087,4.0087,4.0631,4.0871,4.0918,4.138,4.1604,4.1604,4.1604,4.1604,4.1604,4.1604,4.1604,4.1604,4.1604,4.2061,4.2763,4.2763,4.2763,4.2868,4.357,4.2868,4.1604,4.1604,4.1604,4.1604,4.1604,4.1604,4.1604,4.1604,4.1604,4.1604,4.1604,4.1604,4.1604,4.1604,4.1604,4.1604,4.1604,4.1866,4.2205,4.253,4.2806,4.3105,4.3463,4.325,4.3032,4.2995,4.2534,4.2086,4.2086,4.1823,4.1604,4.1604,4.1604,4.1604,4.1604,4.1604,4.1604,4.1604,4.1346,4.1117,4.0918,4.068,4.0694,4.1136,4.117,4.1508,4.2219,4.1787,4.1233,4.0621,3.9675,3.9564,4.0208,4.0451,4.1272,2.6294,2.6716,2.751,2.8861,2.9776,3.0437,3.0843,3.1487,3.1983,3.2017,3.3002,3.3776,3.3458,3.557,3.7501,3.7909,3.9376,4.0762,4.1499,4.1604,4.1429,4.0902,4.1066,4.0954,4.0422,4.0466,4.0436,4.0238,4.0138,4.0087,4.0087,4.0561,4.0595,4.0087,4.0561,4.0595,4.0087,4.0948,4.1435,4.163,4.2638,4.3114,4.3114,4.3114,4.3114,4.3114,4.3114,4.3114,4.3114,4.3114,4.3289,4.3535,4.3535,4.3535,4.357,4.3816,4.357,4.3114,4.3114,4.2798,4.2482,4.2973,4.2798,4.2482,4.2973,4.3114,4.3114,4.3114,4.3114,4.3114,4.3114,4.2763,4.2517,4.3009,4.2782,4.2633,4.318,4.332,4.3539,4.416,4.4017,4.3901,4.4209,4.3913,4.3562,4.3341,4.2326,4.1604,4.1604,4.1604,4.1815,4.2342,4.2412,4.2587,4.3079,4.2882,4.2645,4.2403,4.2106,4.1955,4.1914,4.1474,4.1201,4.1171,4.0216,3.9926,4.0359,4.0219,4.0483,4.1151,4.1211,4.1525,2.7426,2.858,2.9867,3.06,3.1876,3.2749,3.2158,3.2439,3.2721,3.2441,3.2818,3.3262,3.344,3.4978,3.667,3.7922,3.9206,4.0411,4.1464,4.1604,4.1429,4.0937,4.1156,4.108,4.0457,4.0513,4.0534,4.0288,4.0138,4.0189,4.046,4.0933,4.1102,4.0865,4.1339,4.1373,4.0865,4.1597,4.219,4.2535,4.3453,4.3886,4.3886,4.3886,4.3886,4.3886,4.3886,4.3886,4.3886,4.3886,4.4062,4.4343,4.4343,4.4343,4.4343,4.4624,4.4553,4.4273,4.3992,4.3605,4.3289,4.3746,4.357,4.3289,4.3746,4.3886,4.3886,4.3886,4.3886,4.3886,4.3886,4.3535,4.3371,4.3966,4.3736,4.362,4.4209,4.4344,4.449,4.4894,4.4705,4.4498,4.4713,4.444,4.4163,4.3933,4.3044,4.2412,4.2412,4.2412,4.2622,4.3149,4.3184,4.3395,4.3851,4.3406,4.3027,4.2699,4.2208,4.1818,4.1668,4.1499,4.1418,4.1475,4.0762,4.0767,4.1305,4.1087,4.1178,4.1588,4.1588,4.1999,2.8964,3.0531,3.201,3.2983,3.4304,3.5044,3.3809,3.353,3.3316,3.2508,3.2536,3.2654,3.2603,3.3908,3.5474,3.7108,3.843,3.9849,4.1394,4.1604,4.1604,4.1604,4.1604,4.1426,4.0965,4.0918,4.0776,4.0568,4.0272,4.046,4.117,4.1271,4.161,4.2286,4.232,4.232,4.2286,4.2584,4.303,4.3645,4.3885,4.4027,4.4027,4.4027,4.4027,4.4027,4.4027,4.4027,4.4027,4.4027,4.4483,4.515,4.515,4.515,4.5256,4.5958,4.5782,4.5045,4.4273,4.3992,4.3957,4.3992,4.3992,4.3957,4.3992,4.4027,4.4027,4.4027,4.4027,4.4027,4.4027,4.3992,4.4096,4.4529,4.4807,4.507,4.5464,4.5697,4.581,4.5542,4.5183,4.4886,4.4538,4.4223,4.4027,4.4027,4.4027,4.3992,4.3851,4.3886,4.3886,4.3886,4.3921,4.3992,4.3992,4.3126,4.2471,4.2216,4.1317,4.0798,4.08,4.1411,4.2179,4.3084,4.3202,4.3266,4.333,4.2169,4.1652,4.1746,4.1746,4.2853,3.1172,3.2198,3.3016,3.4519,3.5043,3.4907,3.4019,3.3952,3.369,3.232,3.2056,3.1981,3.1581,3.2942,3.4658,3.6435,3.816,3.9849,4.1394,4.1604,4.1604,4.1604,4.1604,4.1471,4.1163,4.1012,4.1016,4.1271,4.1087,4.1001,4.1204,4.2252,4.2692,4.2286,4.2828,4.2861,4.2286,4.3391,4.4353,4.5212,4.5495,4.5642,4.5642,4.5642,4.5642,4.5642,4.5642,4.5642,4.5642,4.5642,4.5747,4.5958,4.5958,4.5958,4.5958,4.6168,4.6049,4.5923,4.5712,4.5256,4.4869,4.5431,4.5256,4.4904,4.5466,4.5642,4.5642,4.5642,4.5642,4.5642,4.5642,4.5376,4.5336,4.6067,4.5767,4.5533,4.6194,4.5906,4.569,4.6194,4.6313,4.6173,4.5834,4.569,4.5642,4.5642,4.5642,4.501,4.3325,4.357,4.3886,4.3886,4.4448,4.501,4.5572,4.5187,4.4888,4.477,4.4702,4.4497,4.4052,4.4059,4.3845,4.3331,4.2269,4.1853,4.2039,4.1749,4.2378,4.3927,4.3927,4.478,3.2908,3.4083,3.5102,3.5954,3.5972,3.5469,3.4324,3.3953,3.3234,3.125,3.0894,3.0763,3.005,3.1564,3.3547,3.5507,3.7524,3.9463,4.1323,4.1604,4.1604,4.1604,4.192,4.1995,4.1591,4.176,4.1945,4.2057,4.1631,4.163,4.2151,4.3071,4.3512,4.3301,4.3707,4.3762,4.3484,4.4475,4.5233,4.5768,4.6055,4.6189,4.6189,4.6189,4.6189,4.6189,4.6189,4.6189,4.6189,4.6189,4.6189,4.6189,4.6189,4.6189,4.6189,4.6189,4.6189,4.6189,4.6189,4.5958,4.5677,4.6098,4.5958,4.5677,4.6098,4.6189,4.6189,4.6189,4.6189,4.6189,4.6189,4.6177,4.6255,4.69,4.6765,4.6673,4.7189,4.7146,4.7125,4.7587,4.7629,4.747,4.7222,4.7222,4.7257,4.7257,4.7257,4.666,4.5045,4.5185,4.5431,4.5431,4.6133,4.6765,4.7187,4.6755,4.6274,4.5728,4.5239,4.4505,4.3488,4.3317,4.3065,4.262,4.2395,4.2709,4.3453,4.3453,4.418,4.5602,4.5317,4.595,3.4402,3.592,3.7241,3.7244,3.6896,3.6194,3.4704,3.3702,3.2329,2.9941,2.9582,2.9415,2.8489,3.024,3.2496,3.4691,3.6741,3.8936,4.1288,4.171,4.178,4.178,4.2482,4.2754,4.2279,4.2783,4.3097,4.2912,4.2329,4.2415,4.3444,4.3863,4.4238,4.4609,4.4643,4.4776,4.5015,4.5546,4.5854,4.5854,4.6154,4.6288,4.6189,4.6288,4.6288,4.6189,4.6189,4.6189,4.6189,4.6189,4.6189,4.6189,4.6189,4.6189,4.6189,4.6189,4.6259,4.6379,4.6379,4.6449,4.6435,4.6259,4.6189,4.6189,4.6344,4.6379,4.6414,4.652,4.647,4.647,4.647,4.6861,4.7237,4.7474,4.7825,4.8202,4.8404,4.8675,4.8864,4.8852,4.8529,4.8205,4.8205,4.8205,4.824,4.8275,4.838,4.817,4.7467,4.7467,4.7503,4.7397,4.8064,4.8486,4.838,4.7732,4.6899,4.5807,4.4563,4.328,4.1981,4.2013,4.2141,4.241,4.3548,4.4717,4.595,4.5855,4.6202,4.6929,4.636,4.6834,3.6356,3.6853,3.7171,3.835,3.7566,3.6185,3.4963,3.3662,3.2008,2.9586,2.9126,2.8905,2.8044,3.0026,3.2558,3.486,3.6852,3.8936,4.1288,4.2166,4.2587,4.2587,4.3254,4.3617,4.3297,4.3353,4.3603,4.4009,4.3889,4.3924,4.4148,4.4555,4.4749,4.4609,4.4831,4.5069,4.5336,4.5615,4.5905,4.614,4.6495,4.6495,4.6239,4.6542,4.6495,4.6189,4.6189,4.6189,4.6189,4.6189,4.6189,4.6189,4.6189,4.6189,4.6189,4.6189,4.6625,4.7187,4.7187,4.7608,4.7924,4.6575,4.6189,4.6344,4.7011,4.7187,4.7327,4.7959,4.8135,4.8135,4.8135,4.8649,4.9159,4.8841,4.9307,4.9706,4.9406,4.8693,4.8034,4.7738,4.7096,4.6625,4.6625,4.6625,4.6625,4.6625,4.7187,4.7538,4.7397,4.7924,4.8099,4.7467,4.8064,4.8275,4.7643,4.7264,4.6734,4.6025,4.5917,4.5884,4.585,4.6269,4.6621,4.6803,4.6455,4.6392,4.6645,4.6076,4.6455,4.7719,4.7593,4.8256,3.7403,3.7951,3.8247,3.8905,3.7757,3.6127,3.4723,3.2863,3.0687,2.8264,2.7742,2.7485,2.6549,2.9016,3.178,3.3651,3.5613,3.7883,4.0621,4.1358,4.1885,4.2693,4.3816,4.4423,4.4182,4.4446,4.4729,4.4889,4.4837,4.4785,4.4662,4.4736,4.4776,4.4831,4.5069,4.5336,4.5598,4.5854,4.6055,4.6239,4.6434,4.6385,4.6239,4.6398,4.635,4.6189,4.6189,4.6189,4.6189,4.6189,4.6484,4.6835,4.6835,4.7081,4.7432,4.7467,4.7678,4.7959,4.7959,4.8205,4.838,4.7678,4.7432,4.7503,4.7889,4.7994,4.8064,4.8415,4.8556,4.8451,4.8029,4.8484,4.8847,4.8081,4.8586,4.9361,4.9806,4.947,4.9118,4.9222,4.9223,4.9258,4.9258,4.9574,4.9855,4.9855,5.0171,5.0417,5.0417,5.0733,5.0346,4.8766,4.91,4.9482,4.9571,4.9007,4.8473,4.8127,4.7603,4.7137,4.6814,4.6748,4.6716,4.6803,4.6803,4.6992,4.7372,4.7403,4.794,4.8952,4.8952,4.9299,3.8141,3.8902,3.9264,3.8872,3.7538,3.5899,3.4191,3.1814,2.9308,2.7068,2.6581,2.6355,2.5506,2.8108,3.0856,3.2453,3.4305,3.6654,3.9779,4.0656,4.1499,4.2868,4.4413,4.5229,4.5033,4.5556,4.5803,4.5494,4.5389,4.523,4.5049,4.4776,4.4776,4.4961,4.5283,4.5546,4.5803,4.623,4.6379,4.6189,4.6428,4.6534,4.6484,4.6499,4.6604,4.668,4.668,4.673,4.673,4.673,4.7081,4.7643,4.7643,4.7994,4.8521,4.8591,4.8661,4.8766,4.8766,4.8872,4.9012,4.9012,4.8802,4.8556,4.8766,4.8802,4.8802,4.8977,4.9047,4.8942,4.8259,4.8564,4.8898,4.8224,4.8734,4.9674,5.0657,5.0712,5.068,5.1032,5.147,5.1786,5.1786,5.2277,5.2699,5.2699,5.2839,5.2944,5.2944,5.2936,5.2193,5.0375,5.0593,5.1002,5.1269,5.0556,4.9981,4.962,4.8609,4.7741,4.732,4.674,4.655,4.6676,4.7214,4.7751,4.832,4.8857,4.9394,4.9931,4.9931,4.9931,3.8826,3.9502,3.9289,3.8115,3.6794,3.5291,3.3426,3.0991,2.8645,2.6943,2.6581,2.6518,2.6237,2.8056,3.027,3.2346,3.3882,3.5881,3.8971,4.1253,4.2903,4.3711,4.5185,4.6084,4.6084,4.6119,4.6055,4.5768,4.5336,4.5049,4.4995,4.4995,4.4995,4.4995,4.5283,4.5546,4.5803,4.6755,4.6941,4.6239,4.725,4.7603,4.7292,4.7603,4.7908,4.831,4.831,4.8345,4.838,4.831,4.8345,4.8415,4.8415,4.8451,4.8521,4.8591,4.9012,4.9574,4.9574,5.0066,5.0662,5.0662,4.9679,4.8661,4.9363,4.9574,4.9714,5.0452,5.0662,5.0608,5.023,5.0647,5.1272,5.1932,5.2413,5.2775,5.286,5.2333,5.1876,5.1891,5.14,5.0978,5.0978,5.1049,5.1084,5.1084,5.1681,5.2137,5.2137,5.1997,5.1829,5.1623,5.2181,5.1973,5.0772,5.0125,4.9326,4.8241,4.7819,4.7965,4.8636,4.8636,4.8889,4.9521,4.9615,4.9679,4.9742,4.9805,4.9868,4.9931,4.9931,4.9931,3.83,3.9114,3.9189,3.8177,3.6679,3.4987,3.3278,3.0478,2.7967,2.684,2.6126,2.581,2.6233,2.7549,2.9347,3.1604,3.2329,3.3741,3.6991,3.8878,4.0629,4.2529,4.4402,4.5663,4.592,4.5955,4.5977,4.5991,4.5623,4.5716,4.6293,4.5473,4.5069,4.523,4.5943,4.6499,4.6755,4.7627,4.7924,4.7608,4.8076,4.8252,4.8064,4.8217,4.8393,4.8556,4.8521,4.8521,4.8556,4.8521,4.8802,4.9223,4.9223,4.9504,4.996,4.996,5.0171,5.0417,5.0417,5.0908,5.1575,5.1575,5.147,5.1224,5.0592,5.0733,5.1154,5.147,5.1891,5.2116,5.1255,5.0969,5.1122,5.2236,5.2482,5.2593,5.3085,5.2944,5.2699,5.2699,5.2839,5.2944,5.2944,5.3366,5.3682,5.3682,5.3928,5.3929,5.3385,5.3225,5.2985,5.2367,5.1524,5.0955,5.0926,5.0116,4.9714,4.9701,4.9245,4.9152,4.9489,4.9521,4.9647,4.99,4.9931,4.9931,4.9931,4.9931,4.9931,4.9931,5.0374,5.0563,3.7512,3.8428,3.8738,3.7928,3.6504,3.4833,3.3213,3.0418,2.7947,2.7136,2.6162,2.5709,2.6504,2.7442,2.8834,3.0914,3.1355,3.2705,3.6185,3.7775,3.9529,4.2072,4.3708,4.4851,4.5436,4.5719,4.5941,4.6088,4.6102,4.6442,4.7147,4.6357,4.6025,4.6203,4.6916,4.7457,4.7713,4.8486,4.8766,4.8556,4.8802,4.8907,4.8872,4.8872,4.9012,4.9293,4.9223,4.9223,4.9223,4.9223,4.9539,5.003,5.003,5.0382,5.0873,5.0873,5.1049,5.1224,5.1224,5.1716,5.2348,5.2348,5.2734,5.298,5.1891,5.1926,5.2348,5.2236,5.245,5.2555,5.1882,5.1477,5.1581,5.2654,5.2951,5.319,5.3752,5.3857,5.3857,5.3857,5.4314,5.4665,5.4665,5.5121,5.5448,5.5174,5.5079,5.4738,5.3844,5.3414,5.301,5.2354,5.0824,5.0249,5.1059,5.0505,5.0209,5.0538,5.0136,4.9931,4.9931,4.9931,4.9931,4.9931,5.0121,5.0247,5.0247,5.0437,5.0532,5.0563,5.1037,5.1164,3.6648,3.7628,3.7891,3.6942,3.5996,3.4813,3.303,3.0742,2.8737,2.7934,2.6982,2.6536,2.7342,2.803,2.8959,3.0484,3.1506,3.3418,3.7252,3.8859,4.0547,4.2939,4.336,4.3819,4.4655,4.5558,4.6122,4.6122,4.6772,4.7182,4.7182,4.7741,4.8066,4.8066,4.8066,4.8207,4.8521,4.9293,4.9293,4.8591,4.9328,4.9679,4.9679,4.9679,5.0101,5.0873,5.0873,5.0873,5.0873,5.0873,5.0873,5.0873,5.0873,5.0873,5.0873,5.0873,5.1365,5.1997,5.1997,5.2523,5.3155,5.3155,5.319,5.319,5.3155,5.3155,5.3098,5.2753,5.2218,5.1788,5.2096,5.277,5.3445,5.3714,5.464,5.5472,5.5472,5.5507,5.5507,5.5507,5.5507,5.5507,5.5507,5.5507,5.5174,5.4264,5.4102,5.3778,5.2874,5.1888,5.1336,5.1336,5.0461,5.026,5.1229,5.0962,5.057,4.9931,4.9931,4.9931,4.9931,4.9931,4.9931,4.9931,5.0627,5.0974,5.0974,5.1638,5.1986,5.1986,5.1986,5.1638,3.4431,3.5211,3.5477,3.4531,3.3576,3.2625,3.143,3.0125,2.8915,2.8088,2.7404,2.704,2.7414,2.7929,2.9197,3.1989,3.269,3.4117,3.7627,3.9084,4.0415,4.2157,4.3624,4.4818,4.5608,4.5738,4.634,4.7592,4.7865,4.838,4.9353,4.9556,4.9179,4.8135,4.8837,4.9241,4.9328,5.0101,5.0382,5.0171,5.0417,5.0522,5.0522,5.0522,5.0662,5.0873,5.0873,5.0592,5.0101,5.0662,5.0557,5.0101,5.0662,5.1224,5.1645,5.1645,5.1969,5.252,5.2748,5.3182,5.3637,5.387,5.4198,5.4441,5.4441,5.4056,5.3624,5.3879,5.3582,5.3327,5.3645,5.3977,5.4212,5.4548,5.5059,5.5507,5.5507,5.5507,5.5507,5.5507,5.5507,5.5294,5.4676,5.4516,5.4264,5.3281,5.3146,5.2771,5.1888,5.1451,5.1038,5.0416,5.0501,5.0596,5.037,5.0292,5.0136,4.9931,4.9931,5.0153,5.0627,5.0627,5.0879,5.1353,5.1575,5.167,5.167,5.1417,5.129,5.129,5.129,5.1285,3.1899,3.2861,3.343,3.2873,3.201,3.1238,3.1042,3.006,2.9126,2.8577,2.7858,2.7513,2.8046,2.836,2.9373,3.2073,3.2903,3.4438,3.7953,3.9265,4.0557,4.2185,4.4039,4.5275,4.5478,4.6272,4.7214,4.8309,4.8768,4.9401,5.0341,5.0509,5.0145,4.9168,4.9837,5.0136,5.0136,5.0627,5.0873,5.0873,5.0873,5.0873,5.0873,5.0873,5.0873,5.0873,5.0873,5.0592,0.0,5.0978,5.1013,5.0627,5.1435,5.2032,5.2453,5.2453,5.2717,5.3112,5.3346,5.3753,5.4079,5.4321,5.4609,5.4807,5.4683,5.4275,5.3936,5.423,5.4045,5.3883,5.408,5.4209,5.4367,5.4745,5.5053,5.5329,5.5448,5.5507,5.5507,5.5507,5.5507,5.5294,5.4551,5.4471,5.4088,5.3068,5.2948,5.2638,5.1694,5.1572,5.1339,5.077,5.1101,5.1195,5.0753,5.0721,5.0721,5.0721,5.0721,5.0911,5.1353,5.1353,5.1448,5.1606,5.1891,5.1891,5.1606,5.1448,5.1512,5.1796,5.16,5.157,0.0,3.0509,3.1565,3.1656,3.1021,3.0567,3.1464,3.0494,0.0,2.9336,2.8463,2.8031,2.9193,2.9193,2.9619,3.1446,3.2576,3.4585,3.8352,3.9767,4.112,4.3054,4.4561,4.5314,4.4902,4.6975,4.847,4.8538,4.9447,5.0114,5.0397,5.071,5.0873,5.0873,5.0873,5.0873,5.0873,5.0873,5.0873,5.0873,5.0873,5.0873,5.0803,5.0873,5.0873,5.0803,5.0908,5.0943,5.0943,5.1751,5.2067,5.2102,5.2874,5.3225,5.326,5.326,5.3486,5.3878,5.3878,5.4121,5.4431,5.4431,5.4431,5.4367,5.4045,5.398,5.398,5.398,5.3751,5.3518,5.3518,5.3751,5.411,5.4431,5.4745,5.5113,5.5448,5.5507,5.5543,5.5518,5.5518,5.5399,5.5008,5.4987,5.4635,5.3268,5.3117,5.2875,5.1941,5.1859,5.1859,5.1859,5.1891,5.1922,5.1922,5.1986,5.1986,5.1954,5.1922,5.1922,5.1922,5.1922,5.167,5.1069,5.1733,5.1733,5.1037,5.1796,5.2408,5.3007,5.2582,5.2324,2.6132,0.0,2.8584,2.9082,2.9045,2.912,0.0,3.03,3.0188,2.9586,2.9058,2.9177,3.0865,3.0064,3.0494,3.4618,3.5547,3.6851,4.0079,4.2262,4.3784,4.4733,4.5486,4.6349,4.7431,4.807,4.885,4.986,5.0124,5.0397,5.0764,5.0819,5.0873,5.0873,5.0873,5.0873,5.0873,5.0873,5.0873,5.0873,5.0873,5.0557,4.9995,5.0592,5.0557,5.003,5.1224,5.1435,5.0978,5.2348,5.2558,5.2102,5.2874,5.3541,5.4033,5.3707,5.3931,5.4344,5.4344,5.423,5.411,5.411,5.411,5.4045,5.3751,5.3817,5.3915,5.3685,5.3551,5.3518,5.3518,5.3949,5.4367,5.4494,5.493,5.5389,5.5507,5.5507,5.5564,5.5881,5.5959,5.5623,5.473,5.4506,5.3857,5.1848,5.155,5.1327,5.0469,5.0405,5.0405,5.0405,5.0879,5.1227,5.1227,5.1701,5.1764,5.1259,5.1227,5.1227,5.1227,5.1227,5.1385,5.1764,5.2491,5.2491,5.1764,5.2574,5.2809,5.2465,5.256,5.2362,2.4911,2.6019,2.7415,2.7766,2.8122,2.8608,2.9494,2.9983,3.0133,2.9683,2.9353,2.9598,3.1012,3.0354,3.0967,3.5235,3.6178,3.7831,4.1935,4.3656,4.4971,4.6234,4.6757,4.7493,4.8778,4.9114,4.9664,5.0605,5.0509,5.0544,5.0873,5.0873,5.0873,5.0873,5.0873,5.0873,5.0873,5.0873,5.0873,5.0873,5.0522,5.0311,5.0241,5.0311,5.0487,5.0803,5.1645,5.1997,5.2032,5.3225,5.3436,5.3155,5.3928,5.4489,5.4782,5.4451,5.4426,5.4494,5.4303,5.4045,5.3751,5.3751,5.3751,5.3751,5.3585,5.3618,5.3751,5.3551,5.3518,5.3585,5.3685,5.4014,5.4303,5.4431,5.5147,5.5758,5.5758,5.6038,5.6326,5.6558,5.6195,5.5506,5.4481,5.4044,5.332,5.1645,5.1389,5.1322,5.0911,5.0879,5.1006,5.1353,5.1733,5.208,5.2396,5.306,5.287,5.1543,5.1448,5.1606,5.1954,5.1954,5.227,5.2965,5.3376,5.3376,5.2965,5.3177,5.3103,5.2816,5.2393,5.2124,2.5158,2.6397,2.7524,2.7261,2.7708,2.8457,2.9307,2.9401,2.9326,2.9458,2.9399,2.9688,3.0809,3.0803,3.1726,3.5008,3.6376,3.8761,4.361,4.4653,4.5569,4.7407,4.7998,4.8607,4.9466,5.009,5.0564,5.0964,5.0675,5.0599,5.0873,5.0873,5.0873,5.0873,5.0873,5.0838,5.0697,5.0697,5.0697,5.0697,5.003,5.003,5.0697,5.0241,5.0768,5.2032,5.2277,5.2734,5.3401,5.4173,5.4489,5.4559,5.5227,5.5448,5.5389,5.5053,5.4683,5.4367,5.4045,5.3751,5.3518,5.3518,5.3518,5.3518,5.3619,5.3687,5.3687,5.3822,5.3754,5.372,5.402,5.4254,5.4453,5.4775,5.5577,5.6245,5.614,5.653,5.6918,5.6854,5.6077,5.5174,5.4421,5.3878,5.3203,5.2377,5.2345,5.246,5.2333,5.2333,5.2554,5.3186,5.325,5.3502,5.404,5.464,5.4229,5.2428,5.2428,5.2712,5.325,5.325,5.3471,5.3945,5.3954,5.3954,5.3828,5.3409,5.3268,5.3268,5.2459,5.206,2.7244,2.8575,2.8988,2.7561,2.7295,2.7612,2.8425,2.8067,2.7766,2.839,2.9006,3.0081,3.2009,3.3032,3.4312,3.6597,3.9428,4.2154,4.4493,4.5946,4.7084,4.791,4.8588,4.9353,5.0175,5.0328,5.0509,5.0873,5.0873,5.0819,5.0873,5.0873,5.0873,5.0873,5.0873,5.0557,4.989,4.9855,4.9855,4.9855,4.975,4.975,4.989,5.1119,5.1786,5.2067,5.3401,5.4033,5.4208,5.4981,5.5332,5.5332,5.5472,5.5329,5.5053,5.4683,5.4367,5.4045,5.3685,5.3551,5.3518,5.3518,5.3518,5.3619,5.4228,5.4431,5.4566,5.5209,5.4905,5.4431,5.4465,5.5381,5.6326,5.6391,5.672,5.6871,5.6245,5.5958,5.577,5.5478,5.4873,5.4522,5.4731,5.4789,5.4566,5.3851,5.4283,5.4451,5.385,5.3787,5.3818,5.3913,5.3945,5.3976,5.4071,5.4198,5.4134,5.3787,5.4324,5.4451,5.3976,5.3945,5.3724,5.3281,5.3444,5.3184,5.259,5.2854,5.2977,5.2977,5.2989,5.2972,2.608,2.7035,2.7711,2.7735,2.9439,3.0957,3.041,3.0553,3.0914,3.1392,3.1612,3.2367,3.4412,3.4835,3.5684,3.8254,4.1107,4.3459,4.4527,4.549,4.672,4.8458,4.9205,4.9978,5.1121,5.107,5.1017,5.1175,5.1034,5.0873,5.0873,5.0873,5.0873,5.0873,5.0452,5.0066,4.9679,4.9293,4.9293,4.9679,4.9679,5.0136,5.0978,5.1681,5.2453,5.3296,5.3998,5.4559,5.4981,5.5367,5.5507,5.5507,5.5329,5.5113,5.493,5.4431,5.398,5.3685,5.3551,5.3518,5.3585,5.3957,5.4093,5.4228,5.4972,5.4905,5.4668,5.5006,5.5141,5.5177,5.4907,5.548,5.5947,5.5372,5.5934,5.6397,5.5731,5.6056,5.6508,5.6365,5.6006,5.5605,5.5603,5.4923,5.4255,5.365,5.3502,5.3313,5.2997,5.2965,5.3123,5.3534,5.3566,5.3724,5.4071,5.4451,5.4514,5.4134,5.4387,5.4419,5.4103,5.4451,5.4514,5.4198,5.4423,5.4532,5.4594,5.4204,5.4036,5.4036,5.3886,5.3743,2.5694,2.6242,2.6868,2.8166,3.0445,3.235,3.2173,3.2465,3.3049,3.419,3.4328,3.477,3.6399,3.6739,3.7649,4.0116,4.2633,4.4354,4.4706,4.5411,4.6764,4.9088,4.9658,5.0399,5.1615,5.1485,5.128,5.128,5.1052,5.0873,5.0873,5.0873,5.0803,5.0592,4.9995,4.9504,4.9153,4.8942,4.9118,4.9679,4.989,5.0768,5.2312,5.2453,5.3296,5.4595,5.4595,5.4946,5.5507,5.5507,5.5507,5.5448,5.5174,5.4992,5.4807,5.411,5.3751,5.3518,5.3687,5.3754,5.389,5.4634,5.4735,5.4735,5.548,5.5175,5.4634,5.4803,5.5378,5.582,5.5179,5.5377,5.5541,5.4695,5.5606,5.6487,5.5788,5.6609,5.7446,5.7144,5.6578,5.608,5.5698,5.4691,5.3815,5.3619,5.325,5.2997,5.2997,5.2997,5.3281,5.4008,5.4071,5.4356,5.5019,5.5557,5.5651,5.5114,5.4767,5.4577,5.4577,5.5272,5.5468,5.5191,5.5434,5.5751,5.6123,5.5267,5.4873,5.5024,5.463,5.4371,2.8671,2.8906,2.8426,2.9213,2.7923,2.7531,3.1853,3.1177,3.0664,3.436,3.5708,3.6368,3.6973,3.9226,4.1393,4.2594,4.457,4.5825,4.5534,4.713,4.871,4.9573,5.006,5.053,5.0927,5.0927,5.0927,5.0927,5.0927,5.0873,5.0873,5.0873,5.0557,4.9785,4.9714,4.9012,4.7573,4.8907,4.9644,4.9679,5.0452,5.161,5.312,5.3822,5.4595,5.5437,5.5437,5.5472,5.5507,5.5507,5.5507,5.5507,5.5448,5.5088,5.4431,5.3751,5.3518,5.3585,5.4262,5.4499,5.4634,5.5378,5.5175,5.4735,5.548,5.5175,5.4735,5.5446,5.6156,5.6393,5.5041,5.5417,5.6166,5.603,5.7227,5.8116,5.7363,5.7634,5.7597,5.6254,5.5005,5.4051,5.4034,5.4051,5.4315,5.4893,5.5493,5.5873,5.5873,5.5873,5.6157,5.6852,5.6915,5.72,5.7927,5.8022,5.8022,5.799,5.6757,5.6031,5.6031,5.6694,5.6486,5.5374,5.5565,5.5463,5.5013,5.4488,5.462,5.522,5.5119,5.479,2.6405,2.721,2.7921,2.9096,2.8646,2.8961,3.276,3.4632,3.6252,3.8426,3.8993,3.9272,3.9904,4.2122,4.3563,4.2602,4.3948,4.4991,4.4733,4.5955,4.756,4.9293,5.0258,5.091,5.1175,5.1228,5.1158,5.0927,5.0873,5.0662,5.0171,5.0136,4.9785,4.8977,4.8521,4.7994,4.7397,4.8907,4.9925,5.0452,5.1716,5.2874,5.3892,5.47,5.5227,5.5507,5.5507,5.5507,5.5507,5.5507,5.5507,5.5448,5.5026,5.4431,5.3885,5.4127,5.416,5.4296,5.504,5.4972,5.4702,5.548,5.5209,5.4735,5.548,5.5513,5.5344,5.5649,5.6258,5.6562,5.5547,5.6437,5.7395,5.6743,5.7223,5.753,5.6617,5.6579,5.6382,5.5502,5.5263,5.5301,5.5325,5.5383,5.5493,5.5746,5.5999,5.6347,5.6757,5.6821,5.7105,5.78,5.7864,5.799,5.8243,5.8274,5.8085,5.7642,5.7137,5.7042,5.7453,5.7021,5.6714,5.6591,5.6111,5.5749,5.5486,5.499,5.494,5.5179,5.5179,5.5269,2.5897,2.6246,2.6837,2.8812,2.9842,3.1168,3.4076,3.6685,3.9195,4.1739,4.2077,4.2119,4.2631,4.412,4.4606,4.2578,4.3527,4.4495,4.4369,4.5355,4.6865,4.9098,5.0204,5.091,5.1228,5.1228,5.1052,5.0576,5.0522,5.0171,4.9363,4.9328,4.8977,4.8205,4.7643,4.7397,4.7397,4.9153,5.0452,5.1259,5.305,5.4173,5.47,5.5262,5.5507,5.5507,5.5507,5.5507,5.5507,5.5389,5.5269,5.5148,5.4683,5.4282,5.4025,5.4465,5.46,5.4702,5.5446,5.5209,5.4702,5.548,5.5209,5.4735,5.548,5.5547,5.5412,5.5649,5.6258,5.6697,5.619,5.6942,5.7627,5.6701,5.687,5.7031,5.6404,5.6282,5.6198,5.5795,5.5975,5.6176,5.6467,5.6505,5.6505,5.6505,5.6505,5.6599,5.6852,5.6884,5.7137,5.7769,5.8085,5.8432,5.8875,5.878,5.8496,5.8022,5.7522,5.7273,5.7428,5.6808,5.6497,5.6648,5.6122,5.5971,5.5983,5.5681,5.5598,5.5807,5.5807,5.6047,2.8046,2.6729,2.5385,2.8552,3.1071,3.3434,3.5817,3.634,3.7955,4.3571,4.4709,4.4709,4.4709,4.4808,4.4402,4.2861,4.3774,4.4655,4.4689,4.5806,4.7276,4.9075,4.9945,5.0544,5.0873,5.0873,5.0557,4.975,4.9679,4.9328,4.8556,4.8521,4.817,4.7397,4.7397,4.7397,4.7397,4.9714,5.1259,5.2032,5.4384,5.5507,5.5507,5.5507,5.5507,5.5507,5.5507,5.5507,5.5448,5.5113,5.4807,5.4529,5.4529,5.472,5.5075,5.4737,5.46,5.4702,5.5446,5.5209,5.4702,5.5446,5.5209,5.4735,5.548,5.5209,5.4769,5.5513,5.6258,5.6833,5.6799,5.6833,5.663,5.5919,5.6398,5.6987,5.702,5.7053,5.7227,5.7227,5.6654,5.641,5.7105,5.7231,5.7231,5.7231,5.7231,5.6979,5.6283,5.622,5.641,5.6852,5.7737,5.8843,6.017,5.9918,5.9665,5.9665,5.8311,5.6903,5.5499,5.6154,5.6029,5.4947,5.5614,5.5983,5.6196,5.6196,5.6496,5.7094,5.7094,5.7094,2.6706,2.7048,2.7942,3.1036,3.3179,3.5376,3.8903,4.012,4.1332,4.4121,4.4709,4.4892,4.5443,4.4815,4.4021,4.3548,4.3262,4.3415,4.4215,4.5355,4.6794,4.873,5.0,5.0764,5.0873,5.0382,4.996,4.9714,4.9188,4.8521,4.7783,4.7713,4.7362,4.659,4.659,4.6835,4.7397,4.9714,5.1259,5.2032,5.4384,5.5507,5.5507,5.5507,5.5507,5.5507,5.5507,5.5389,5.5113,5.4362,5.4042,5.4179,5.4227,5.4466,5.4771,5.5245,5.5378,5.5412,5.5649,5.5209,5.4634,5.4871,5.4769,5.4634,5.4871,5.5513,5.619,5.6427,5.7374,5.8254,5.7712,5.7655,5.7658,5.7457,5.7573,5.762,5.7233,5.6802,5.6392,5.6503,5.6335,5.6252,5.6441,5.6884,5.7231,5.7231,5.7642,5.7895,5.7674,5.8496,5.9128,5.9286,5.9538,5.9854,6.0265,6.017,6.0107,6.0107,5.9562,5.8674,5.7651,5.7105,5.6854,5.7041,5.6817,5.6822,5.6825,5.6825,5.6915,5.7094,5.7094,5.7094,2.7565,2.809,2.9126,3.3265,3.5209,3.7235,4.1552,4.3167,4.3901,4.4562,4.4966,4.5223,4.5406,4.4522,4.3696,4.3248,4.267,4.2645,4.363,4.4888,4.6413,4.8335,4.9936,5.0873,5.0873,5.0171,4.9539,4.9258,4.8521,4.7748,4.6976,4.6941,4.673,4.6189,4.6189,4.6765,4.7819,4.9855,5.1435,5.2488,5.4524,5.5507,5.5507,5.5507,5.5448,5.5294,5.5148,5.4807,5.4235,5.4042,5.3715,5.3484,5.4296,5.4532,5.4668,5.5446,5.5513,5.5277,5.5277,5.4972,5.46,5.46,5.4803,5.5108,5.5378,5.6089,5.6867,5.7137,5.8084,5.8822,5.8126,5.826,5.8419,5.8119,5.7661,5.7265,5.7183,5.6595,5.6272,5.6531,5.6599,5.6757,5.7326,5.7769,5.8085,5.818,5.8243,5.8274,5.8274,5.9001,5.9507,5.9507,5.9507,5.9507,5.9507,6.0518,6.115,6.115,6.0085,5.9154,5.8572,5.7717,5.7425,5.7643,5.7303,5.7094,5.7094,5.7094,5.7244,5.7513,5.7513,5.7782,2.9589,2.9468,2.9562,3.5024,3.719,3.9093,4.3681,4.5259,4.559,4.4966,4.5333,4.559,4.4893,4.4118,4.3319,4.2471,4.2076,4.2196,4.3024,4.4491,4.6118,4.7926,4.9695,5.0768,5.0768,5.0066,4.9258,4.8486,4.7713,4.6976,4.6224,4.6189,4.6189,4.6189,4.6189,4.6976,4.8486,5.0101,5.1645,5.319,5.477,5.5507,5.5507,5.5507,5.5329,5.4992,5.462,5.3946,5.3179,5.3946,5.3651,5.2827,5.4364,5.4805,5.4769,5.5378,5.5175,5.46,5.46,5.46,5.46,5.4668,5.5209,5.5953,5.6596,5.6867,5.7036,5.778,5.849,5.8882,5.823,5.8574,5.8827,5.8183,5.707,5.6316,5.6937,5.6694,5.6473,5.7168,5.7326,5.7706,5.9001,5.9222,5.9286,5.9507,5.8812,5.8274,5.8274,5.8496,5.8654,5.8654,5.8654,5.8654,5.8654,6.0767,6.2116,6.2116,5.9928,5.8745,5.8745,5.8145,5.7734,5.7274,5.7214,5.7244,5.7363,5.7363,5.7723,5.8381,5.8381,5.9039,2.8315,2.9731,3.1679,3.544,3.8854,4.1882,4.4195,4.4856,4.5112,4.5553,4.5296,4.504,4.5257,4.4007,4.2933,4.303,4.215,4.1917,4.3201,4.4292,4.5648,4.7857,4.9205,4.996,4.996,4.9223,4.8451,4.7678,4.6906,4.6414,4.6239,4.6189,4.6189,4.6189,4.6189,4.6976,4.8486,5.0101,5.1645,5.319,5.477,5.5507,5.5507,5.5507,5.5329,5.4992,5.4367,5.3749,5.3043,5.2557,5.2782,5.3456,5.3301,5.4167,5.5412,5.5006,5.4735,5.46,5.46,5.46,5.4702,5.5277,5.5953,5.6596,5.6765,5.7205,5.7814,5.8558,5.8896,5.8984,5.8909,5.8621,5.8363,5.8203,5.7538,5.697,5.7179,5.7069,5.72,5.7895,5.8053,5.8148,5.8432,5.8496,5.8496,5.8559,5.8401,5.8274,5.8274,6.017,6.1529,6.1529,6.1529,6.1529,6.1529,6.0424,5.9849,5.9849,5.9365,5.9001,5.9001,5.8234,5.8068,5.865,5.8171,5.8411,5.9428,5.9428,5.9787,6.0475,6.0475,6.0625,2.8606,3.0618,3.3224,3.8044,4.074,4.2837,4.4819,4.4672,4.4452,4.5663,4.5259,4.4673,4.4565,4.35,4.2677,4.2787,4.1912,4.1789,4.3262,4.4167,4.5626,4.8068,4.8767,4.9258,4.9644,4.8661,4.7819,4.7432,4.666,4.6189,4.6189,4.6189,4.6189,4.6189,4.6189,4.6976,4.8486,5.0101,5.1645,5.319,5.477,5.5448,5.5269,5.5053,5.493,5.4683,5.3749,5.3008,5.2449,5.26,5.2891,5.3327,5.3911,5.4615,5.5141,5.4735,5.46,5.46,5.46,5.504,5.5716,5.6122,5.6731,5.7374,5.7746,5.8118,5.8592,5.9336,5.9549,5.9499,5.9231,5.8936,5.8648,5.8332,5.7707,5.7299,5.767,5.7737,5.7832,5.8211,5.8622,5.8812,5.8369,5.8274,5.8274,5.8274,5.9412,6.0265,6.0265,6.1529,6.2446,6.2446,6.2446,6.2449,6.2716,6.1649,6.1014,6.1014,6.1014,6.1014,6.1014,6.0565,6.0146,5.9727,5.9608,5.9907,6.0565,6.0565,6.0924,6.1583,6.1583,6.1762,2.8878,3.131,3.4321,4.0561,4.2103,4.2763,4.5333,4.4635,4.3938,4.5553,4.5149,4.427,4.3503,4.2957,4.2534,4.2175,4.1666,4.1869,4.3358,4.416,4.5551,4.8099,4.8345,4.8591,4.9223,4.8135,4.7327,4.7187,4.659,4.6189,4.6189,4.6189,4.6189,4.6189,4.6295,4.7081,4.8521,5.0206,5.1786,5.319,5.4712,5.5269,5.4992,5.4494,5.4239,5.4239,5.3076,5.2236,5.1614,5.2997,5.3221,5.2959,5.4678,5.5072,5.46,5.46,5.46,5.4634,5.4871,5.5784,5.6833,5.6934,5.7476,5.8186,5.8829,5.9099,5.937,6.0114,6.0259,6.0056,5.9613,5.9458,5.912,5.8459,5.7832,5.7579,5.8148,5.8274,5.8274,5.8274,5.9096,5.9444,5.8432,5.8274,5.8432,5.8906,6.0961,6.2604,6.3078,6.3141,6.3141,6.3141,6.2738,6.2712,6.3129,6.3079,6.3079,6.3079,6.3079,6.3079,6.3079,6.3079,6.2391,6.0894,6.1134,6.1343,6.1463,6.1463,6.1732,6.2271,6.2271,6.257,2.6908,3.0354,3.4871,3.9974,4.1258,4.2066,4.5186,4.4635,4.3938,4.5553,4.4709,4.3467,4.2842,4.2844,4.2655,4.1788,4.1831,4.244,4.3676,4.3945,4.4857,4.7292,4.7538,4.7573,4.7678,4.7503,4.7116,4.6414,4.6224,4.6189,4.6189,4.6189,4.6189,4.6189,4.6871,4.7643,4.8521,5.0733,5.2312,5.319,5.4441,5.5053,5.4992,5.3781,5.3315,5.3247,5.28,5.1987,5.0984,5.2408,5.2819,5.2852,5.3645,5.4216,5.46,5.46,5.46,5.4769,5.6055,5.663,5.69,5.7543,5.8254,5.8896,5.8998,5.9471,6.0114,6.0926,6.0662,6.027,6.0688,6.0128,5.9355,5.8518,5.8211,5.8148,5.8243,5.8274,5.8274,5.8274,5.9317,5.9791,5.8496,5.8274,5.9096,6.1498,6.2193,6.3299,6.5732,6.6048,6.6048,6.6048,6.4193,6.3033,6.3049,6.3079,6.3079,6.3079,6.3079,6.3079,6.3079,6.3079,6.2959,6.272,6.2211,6.2241,6.281,6.281,6.2869,6.2959,6.2959,6.2989,2.9089,3.218,3.5569,4.001,4.1111,4.1846,4.4599,4.4342,4.3938,4.5553,4.4455,4.3142,4.2882,4.2806,4.2573,4.1995,4.1866,4.2309,4.3722,4.3886,4.4764,4.7116,4.7011,4.6906,4.7362,4.7011,4.659,4.6239,4.6189,4.6189,4.6189,4.6189,4.6189,4.6189,4.6976,4.7748,4.8521,5.0838,5.2726,5.422,5.4739,5.4648,5.3912,5.3382,5.3111,5.3043,5.2026,5.1554,5.152,5.2421,5.3006,5.3442,5.4,5.4628,5.5175,5.4735,5.5108,5.5886,5.6393,5.6934,5.7476,5.778,5.849,5.9261,5.9231,5.97,6.0315,6.0926,6.0523,5.9971,6.0468,6.0096,5.943,5.8493,5.8274,5.8685,6.0265,5.938,5.8748,6.0297,6.1087,6.1308,6.0708,6.1909,6.3362,6.4595,6.4753,6.5227,6.6459,6.6617,6.6054,6.4746,6.3736,6.3079,6.3079,6.3079,6.3079,6.3079,6.3079,6.3079,6.3079,6.3079,6.3079,6.3079,6.278,6.278,6.3079,6.3079,6.3079,6.3079,6.3079,6.3079,3.011,3.2412,3.4513,3.8836,4.0047,4.0928,4.3754,4.3754,4.3644,4.5259,4.42,4.2995,4.292,4.2652,4.2369,4.2037,4.1956,4.2377,4.3711,4.4062,4.4904,4.6871,4.659,4.6449,4.7046,4.6555,4.6189,4.6189,4.6189,4.6189,4.6189,4.6189,4.6259,4.652,4.7292,4.8029,4.8802,5.1154,5.3137,5.4772,5.471,5.3939,5.2604,5.2527,5.2424,5.2221,5.1424,5.1379,5.2004,5.2747,5.3344,5.3898,5.4586,5.5108,5.5412,5.5141,5.575,5.6697,5.6765,5.7273,5.7881,5.7881,5.866,5.9557,5.9643,5.989,6.0291,6.0738,6.0312,5.9968,6.0652,6.034,5.9728,5.9412,5.9317,5.9886,6.1972,6.0803,5.9949,6.2035,6.3015,6.3489,6.3489,6.5227,6.6617,6.6617,6.6617,6.6617,6.6617,6.6617,6.5731,6.3309,6.3079,6.3079,6.3079,6.3079,6.3079,6.3079,6.3079,6.3079,6.3079,6.3079,6.3079,6.3079,6.3079,6.3079,6.3079,6.3079,6.3079,6.3079,6.3079,6.3079,2.7374,2.8668,3.0503,3.5349,3.711,3.8689,4.2653,4.2947,4.2837,4.4452,4.3798,4.292,4.2688,4.2369,4.2037,4.1692,4.2236,4.3009,4.3781,4.4553,4.5361,4.6168,4.6239,4.6189,4.6274,4.6189,4.6189,4.6189,4.6189,4.6189,4.6189,4.6189,4.6555,4.7292,4.8064,4.8837,4.9609,5.1961,5.345,5.4102,5.3778,5.2809,5.1317,5.1075,5.0596,5.0047,5.1282,5.1862,5.2004,5.3335,5.3766,5.3823,5.5168,5.5243,5.4769,5.5919,5.6359,5.6562,5.7476,5.7848,5.7881,5.7881,5.8863,6.008,6.0038,6.0151,6.0279,6.0312,6.0312,6.0567,6.1951,6.1273,6.0581,6.1909,6.2225,6.2256,6.2414,6.2319,6.2256,6.2414,6.4563,6.6396,6.6396,6.6523,6.6617,6.6617,6.6617,6.6617,6.6617,6.6617,6.5731,6.3309,6.3079,6.3079,6.3079,6.3079,6.3079,6.3079,6.3079,6.3079,6.3079,6.3079,6.3079,6.3079,6.3079,6.3079,6.3079,6.3079,6.3079,6.3079,6.3079,6.3079,2.7337,2.8778,3.043,3.322,3.5716,3.7961,3.978,4.1099,4.2231,4.3176,4.2871,4.2374,4.2328,4.2205,4.1995,4.1648,4.2271,4.3079,4.3781,4.4589,4.5361,4.6133,4.6189,4.6189,4.6189,4.6189,4.6189,4.6189,4.6189,4.6189,4.6189,4.6189,4.659,4.7362,4.817,4.9644,5.1891,5.2636,5.3294,5.3778,5.3044,5.2075,5.0936,5.1271,5.1307,5.1262,5.2616,5.2702,5.2004,5.3222,5.3705,5.3723,5.4662,5.4905,5.4905,5.6021,5.6833,5.7408,5.778,5.7881,5.822,6.0148,6.1129,6.1223,5.9441,5.9577,6.0141,5.9298,5.903,5.9537,6.1795,6.2012,6.1782,6.2319,6.2446,6.292,6.4721,6.51,6.51,6.51,6.5922,6.6617,6.6617,6.6617,6.6617,6.6617,6.6617,6.6617,6.6617,6.5297,6.4075,6.3194,6.3079,6.3079,6.3079,6.3079,6.3079,6.3079,6.3079,6.3079,6.3079,6.3079,6.3079,6.3079,6.3079,6.3079,6.3079,6.3079,6.3079,6.3079,6.3079,6.3079,2.6654,2.775,2.9219,3.1935,3.3623,3.5467,3.8542,3.9537,4.0345,4.2336,4.2163,4.1766,4.205,4.2037,4.1866,4.1648,4.2482,4.336,4.3816,4.4799,4.5677,4.6119,4.6189,4.6189,4.6189,4.6189,4.6189,4.6189,4.6189,4.6189,4.6189,4.6484,4.7081,4.8135,4.9188,5.0729,5.2683,5.2839,5.2864,5.2805,5.1943,5.1051,5.0141,5.0778,5.1242,5.1617,5.3203,5.3475,5.2943,5.3732,5.4128,5.4343,5.4833,5.5141,5.5547,5.6528,5.7645,5.8626,5.8626,5.8964,5.9742,6.1738,6.2381,6.187,5.912,5.8972,5.9476,5.8518,5.8938,6.0107,6.194,6.2446,6.2541,6.3015,6.2762,6.3078,6.5416,6.627,6.6617,6.6617,6.6617,6.6617,6.6617,6.6617,6.6617,6.6617,6.6617,6.6268,6.5515,6.4075,6.3079,6.3079,6.3079,6.272,6.1822,6.1732,6.1732,6.1732,6.257,6.3079,6.3079,6.3079,6.3079,6.3079,6.3079,6.3079,6.3079,6.3079,6.3079,6.3079,6.3079,6.3079,0.0,0.0,0.0,3.1237,3.0662,3.1066,3.8951,3.8141,3.7039,4.1833,4.1743,4.1055,4.1943,4.1823,4.1604,4.1604,4.2903,4.3886,4.3886,4.5256,4.6189,4.6189,4.6189,4.6189,4.6189,4.6189,4.6189,4.6189,4.6189,4.6189,4.6239,4.7011,4.8135,4.9644,5.1224,5.1952,5.1836,5.2529,5.2337,5.1303,5.0587,4.9779,4.8998,4.9576,5.0295,5.1156,5.2957,5.4195,5.4828,5.4722,5.5118,5.5683,5.5716,5.6021,5.6528,5.7543,5.8863,6.0114,6.0148,6.1129,6.2381,6.2381,6.2381,6.187,5.912,5.8274,5.8306,5.8369,6.0329,6.2446,6.2446,6.2477,6.2888,6.4247,6.3552,6.292,6.4279,6.5638,6.6617,6.6617,6.6617,6.6617,6.6617,6.6617,6.6586,6.6491,6.6491,6.5607,6.3304,6.2959,6.2959,6.2959,6.2959,6.1942,5.9428,5.9219,5.9219,5.9219,6.1642,6.3079,6.3079,6.3079,6.3079,6.3079,6.3079,6.3079,6.3079,6.3079,6.3079,6.3079,6.3079,6.3079,2.4485,0.0,0.0,0.0,0.0,0.0,3.2154,3.2871,3.4056,3.7893,3.8337,3.8853,4.1278,4.1648,4.1604,4.1604,4.2903,4.3886,4.3886,4.5256,4.6189,4.6189,4.6189,4.6189,4.6189,4.6189,4.6189,4.6189,4.6005,4.625,4.7046,4.8345,4.9258,4.9679,5.1529,5.2275,5.1836,5.2201,5.2047,5.1303,5.0357,4.9995,5.0282,5.1328,5.2528,5.3791,5.4711,5.5302,5.5437,5.4898,5.4732,5.4972,5.5513,5.6021,5.663,5.8355,5.9471,6.025,6.1366,6.2042,6.2381,6.2381,6.2381,6.187,5.912,5.8274,5.8685,6.0708,6.1845,6.2446,6.2446,6.3931,6.5543,6.5954,6.5732,6.5543,6.5954,6.6333,6.6617,6.6617,6.6617,6.6617,6.6617,6.6617,6.5922,6.39,6.3584,6.2736,6.0536,6.0206,6.0206,6.0206,6.0206,6.0685,6.1882,6.1972,6.1972,6.1972,6.266,6.3079,6.3079,6.3079,6.3079,6.3079,6.3079,6.3079,6.3079,6.3079,6.3079,6.3079,6.3079,6.3079,0.0,0.0,0.0,2.6944,0.0,0.0,3.1232,3.1374,3.2085,3.671,3.758,3.8093,4.027,4.106,4.1366,4.1016,4.2275,4.3442,4.3851,4.4879,4.5705,4.6119,4.6189,4.6189,4.6189,4.6189,4.6154,4.6055,4.6184,4.6795,4.8068,4.9135,4.996,5.0627,5.2109,5.2502,5.1715,5.2133,5.1828,5.0617,5.0037,5.0037,5.0723,5.207,5.3223,5.4395,5.4999,5.5243,5.5209,5.4769,5.4769,5.5141,5.5886,5.6528,5.7205,5.8693,5.9607,6.0283,6.1501,6.1795,6.1628,6.2223,6.2381,6.187,5.912,5.9096,6.036,6.1972,6.2446,6.2699,6.3868,6.5385,6.6617,6.6617,6.6617,6.6617,6.6617,6.6617,6.6617,6.6617,6.6617,6.6238,6.5069,6.4879,6.431,6.2667,6.1582,6.0555,5.9315,5.9099,5.9518,6.0655,6.0775,6.1403,6.2959,6.3079,6.3079,6.3079,6.3079,6.3079,6.3079,6.3079,6.3079,6.3079,6.3079,6.3079,6.3079,6.3079,6.3079,6.3079,6.3079,6.3079,2.5816,2.5528,0.0,2.8796,2.6898,0.0,3.2853,3.1607,3.0685,3.6469,3.7341,3.7461,3.869,3.9922,4.0523,3.9861,4.1115,4.2521,4.3594,4.4327,4.5082,4.5979,4.6168,4.6189,4.6189,4.6189,4.6055,4.5854,4.6604,4.763,4.9035,4.959,5.0487,5.1906,5.2713,5.2615,5.1698,5.2367,5.1702,4.9844,4.9918,5.0245,5.0851,5.225,5.3265,5.3966,5.4494,5.4668,5.4531,5.4668,5.5108,5.5784,5.6528,5.7306,5.8084,5.8863,5.9607,6.0351,6.1052,6.0898,6.0567,6.1595,6.2018,6.1632,5.9266,6.0359,6.2446,6.2635,6.2541,6.3078,6.589,6.6617,6.6617,6.6617,6.6617,6.6617,6.6617,6.6617,6.6523,6.6207,6.6143,6.5353,6.2857,6.2446,6.2347,6.2116,6.0346,5.9219,5.9518,5.9548,6.0446,6.2839,6.3079,6.3079,6.3079,6.3079,6.3079,6.3079,6.3079,6.3079,6.3079,6.3079,6.3079,6.3079,6.3079,6.3079,6.3079,6.3079,6.3079,6.3079,6.3079,6.3079,2.6982,2.7184,2.7518,2.6896,2.7994,0.0,2.7049,2.7504,2.8888,3.1273,3.1175,3.1879,3.5776,3.7211,3.7772,3.7632,3.925,4.108,4.2521,4.406,4.5102,4.5291,4.5852,4.6189,4.6189,4.6005,4.5854,4.5768,4.7091,4.8058,4.8541,4.9931,5.0974,5.166,5.2101,5.2344,5.2264,5.2503,5.191,5.0399,5.0933,5.1512,5.225,5.3578,5.4631,5.5339,5.541,5.4861,5.3971,5.5033,5.5581,5.5784,5.6528,5.7611,5.8863,5.9607,6.0385,6.1086,6.1207,6.1217,6.087,5.9729,5.9415,5.9663,6.0104,6.1277,6.2667,6.3805,6.3299,6.3078,6.589,6.6617,6.6617,6.6617,6.6617,6.6617,6.6617,6.6617,6.5954,6.3678,6.3236,6.3078,6.2509,6.2446,6.1815,6.0031,5.9422,5.9877,6.2032,6.2301,6.251,6.3019,6.3079,6.3079,6.3079,6.3079,6.3079,6.3079,6.3079,6.3079,6.3079,6.3079,6.3079,6.3079,6.3079,6.3079,6.3079,6.3079,6.3079,6.3079,6.3079,6.3079,2.8004,2.7951,2.8298,2.8627,2.8393,0.0,0.0,2.7,2.7465,3.012,3.0334,3.0896,3.3599,3.4964,3.5797,3.6217,3.7339,3.8781,4.0398,4.2416,4.392,4.4448,4.5185,4.5628,4.5446,4.5695,4.6065,4.6672,4.7326,4.8092,4.909,5.0253,5.1245,5.1869,5.2451,5.258,5.2336,5.206,5.1475,5.0615,5.0933,5.1822,5.3075,5.4125,5.4803,5.5141,5.5141,5.4799,5.4183,5.4921,5.5602,5.6325,5.707,5.8017,5.9099,5.9844,6.052,6.1153,6.1294,6.0703,5.9903,5.9555,5.8709,5.8235,6.0796,6.2016,6.2572,6.3268,6.3994,6.4848,6.6238,6.5731,6.5156,6.6268,6.6617,6.6617,6.6617,6.5511,6.4121,6.2699,6.2446,6.2446,6.2446,6.1481,6.0805,6.1117,6.1074,6.1583,6.2899,6.3079,6.3079,6.3079,6.3079,6.3079,6.3079,6.3079,6.3079,6.3079,6.3079,6.3079,6.3079,6.3079,6.3079,6.3079,6.3079,6.3079,6.3079,6.3079,6.3079,6.3079,6.3079,6.3079,2.9898,2.9567,2.9804,3.0761,2.9052,2.7455,0.0,0.0,0.0,2.9492,3.0088,3.0404,3.1528,3.2581,3.3552,3.4492,3.5278,3.6312,3.7868,3.9826,4.166,4.3079,4.4097,4.4668,4.4788,4.5107,4.5892,4.7375,4.7009,4.7603,4.9516,5.0504,5.133,5.2062,5.2819,5.2929,5.236,5.1724,5.1184,5.0702,5.1069,5.2024,5.3551,5.4397,5.4735,5.46,5.4735,5.4666,5.4426,5.4912,5.5722,5.6723,5.7465,5.8349,5.9302,5.9877,6.0554,6.1143,6.1132,6.0173,5.9004,5.9531,5.843,5.7433,6.1033,6.2441,6.2699,6.2699,6.4405,6.627,6.6523,6.4857,6.3622,6.5515,6.6268,6.6459,6.5922,6.4026,6.2446,6.2446,6.2016,6.1815,6.1815,6.0241,5.9997,6.269,6.3079,6.3079,6.3079,6.3079,6.3079,6.3079,6.3079,6.3079,6.3079,6.3079,6.3079,6.3079,6.3079,6.3079,6.3079,6.3079,6.3079,6.3079,6.3079,6.3079,6.3079,6.3079,6.3079,6.3079,6.3079,6.3079,3.4022,3.4408,3.4022,3.0156,3.1456,3.1914,2.5384,0.0,2.7174,2.6262,0.0,2.6718,2.8895,0.0,0.0,3.1459,3.2897,3.4123,3.5037,3.5983,3.7632,4.0516,4.2166,4.3605,4.4927,4.4118,4.4371,4.6493,4.5774,4.6191,4.8377,5.0076,5.121,5.1719,5.2443,5.2823,5.2796,5.2399,5.183,5.1157,5.2505,5.3281,5.3551,5.4938,5.5209,5.4634,5.531,5.4895,5.3966,5.5804,5.6337,5.6103,5.6838,5.8278,5.9979,6.008,6.0994,6.2054,6.0787,6.0326,6.0007,5.8184,5.7303,5.754,6.0506,6.248,6.3678,6.3678,6.4184,6.5037,6.6301,6.4857,6.3194,6.3394,6.5077,6.5922,6.3457,6.2667,6.2446,6.2446,6.0763,5.9529,5.9529,5.9315,5.9997,6.269,6.3079,6.3079,6.3079,6.3079,6.3079,6.3079,6.3079,6.3079,6.3079,6.3079,6.3079,6.3079,6.3079,6.3079,6.3079,6.3079,6.3079,6.3079,6.3079,6.3079,6.3079,6.3079,6.3079,6.3079,6.3079,6.3079,3.4266,3.4582,3.4477,3.1633,3.1493,3.0826,2.6191,2.5454,2.5805,2.6051,0.0,0.0,0.0,0.0,0.0,0.0,3.0307,3.0973,3.1914,3.2581,3.4329,3.8023,3.9427,4.0911,4.3075,4.2615,4.3048,4.5079,4.4783,4.552,4.7786,4.9683,5.0905,5.1439,5.2564,5.2874,5.2068,5.19,5.19,5.2034,5.2671,5.365,5.4803,5.4972,5.4905,5.46,5.4938,5.5002,5.4888,5.5455,5.627,5.7036,5.7056,5.8297,6.0148,6.0622,6.1467,6.2223,6.1235,6.0738,6.0174,5.7875,5.8491,6.0431,6.1628,6.2399,6.3015,6.3015,6.3141,6.35,6.4381,6.3849,6.3079,6.3079,6.2637,6.2285,6.2368,6.1379,6.0451,6.0451,5.9743,5.9608,6.1134,6.1403,6.1792,6.2899,6.3079,6.3079,6.3079,6.3079,6.3079,6.3079,6.3079,6.3079,6.3079,6.3079,6.3079,6.3079,6.3079,6.3079,6.3079,6.3079,6.3079,6.3079,6.3079,6.3079,6.3079,6.3079,6.3079,6.3079,6.3079,6.3079,3.5387,3.553,3.5285,3.2476,3.1072,2.9632,2.6648,2.5595,2.5665,2.7245,2.8052,0.0,0.0,0.0,2.8789,0.0,0.0,2.9508,3.0021,3.0064,3.1533,3.5565,3.7637,3.9511,4.1418,4.1133,4.167,4.3727,4.3508,4.4475,4.7162,4.9145,5.0515,5.1183,5.2503,5.2606,5.1429,5.1396,5.1764,5.2499,5.2803,5.3782,5.5378,5.4837,5.46,5.46,5.4803,5.531,5.5984,5.578,5.6738,5.818,5.7819,5.8673,6.0223,6.0984,6.1772,6.2336,6.1583,6.0946,6.0224,5.8237,5.9829,6.2315,6.1714,6.201,6.258,6.2436,6.2983,6.3515,6.3139,6.3079,6.2899,6.2151,6.0505,5.9529,6.1175,6.0241,5.9308,6.0057,6.0206,6.0805,6.275,6.3079,6.3079,6.3079,6.3079,6.3079,6.3079,6.3079,6.3079,6.3079,6.3079,6.3079,6.3079,6.3079,6.3228,6.3588,6.3617,6.3617,6.3617,6.3498,6.3438,6.3438,6.3558,6.3677,6.3797,6.3558,6.3408,6.3318,6.3169,6.3079,3.9147,3.9147,3.7707,3.1703,3.0685,2.9948,2.5411,2.6016,2.8052,2.9667,3.1739,3.3494,3.4337,3.3845,0.0,0.0,0.0,0.0,0.0,2.8789,2.9246,3.3143,3.7637,4.0446,4.0551,3.9634,4.0114,4.2647,4.1626,4.2546,4.6335,4.8367,4.9943,5.1183,5.1961,5.1995,5.1186,5.1186,5.1558,5.2334,5.3112,5.389,5.4634,5.46,5.46,5.4634,5.5344,5.6089,5.6833,5.7543,5.8287,5.8991,5.8975,5.9551,6.0265,6.1032,6.1772,6.2324,6.1645,6.0929,6.0198,5.9334,6.0524,6.2016,5.9849,6.1006,6.2958,6.2567,6.4374,6.5929,6.3706,6.3079,6.2421,5.9847,5.9159,5.9099,5.9207,5.9099,5.9877,6.245,6.2959,6.2989,6.3079,6.3079,6.3079,6.3079,6.3079,6.3079,6.3079,6.3079,6.3079,6.3079,6.3079,6.3079,6.3079,6.3079,6.3617,6.4874,6.4964,6.4964,6.4964,6.4575,6.4336,6.4336,6.4755,6.5173,6.5592,6.4755,6.4216,6.3947,6.3348,6.3079,4.1007,4.1218,4.0516,3.5811,3.4091,3.2406,2.8298,2.8719,3.0018,3.0088,3.2722,3.4969,3.4723,3.4021,0.0,0.0,0.0,0.0,0.0,2.7736,2.8403,3.0264,3.349,3.6033,3.7079,3.7805,3.8781,4.0114,4.0882,4.2415,4.4854,4.8014,4.971,4.9729,5.142,5.1961,5.1217,5.2232,5.2841,5.3112,5.4363,5.4837,5.46,5.5108,5.5074,5.4668,5.5919,5.6562,5.69,5.7641,5.816,5.8418,5.9464,6.0018,6.0284,6.1026,6.1776,6.2531,6.276,6.2313,6.1524,6.0506,6.0272,6.0031,5.9315,6.0954,6.3129,6.287,6.3598,6.365,6.1117,6.0446,6.0206,5.9308,5.9099,5.9099,5.9099,6.0475,6.2002,6.2899,6.3079,6.3079,6.3079,6.3079,6.3079,6.3079,6.3079,6.3079,6.3079,6.3079,6.3079,6.3079,6.3079,6.3079,6.3079,6.4665,6.5862,6.6311,6.5772,6.5323,6.5054,6.4874,6.5051,6.5404,6.5555,6.5706,6.5857,6.5555,6.5226,6.4665,6.4455,6.3917,4.3325,4.3219,4.2377,3.9041,3.7496,3.5811,3.2195,3.2757,3.395,3.3459,3.5776,3.7883,3.7953,3.6654,0.0,0.0,0.0,0.0,0.0,2.7245,2.7877,2.8403,3.1078,3.3659,3.5824,3.5928,3.687,3.932,3.9764,4.1196,4.4062,4.7575,4.9316,4.8984,5.115,5.2063,5.1623,5.2875,5.3619,5.389,5.4871,5.5074,5.46,5.5108,5.5209,5.5074,5.6258,5.679,5.6908,5.7706,5.8219,5.8507,5.9267,5.9977,6.0684,6.1695,6.2266,6.2628,6.3105,6.2847,6.2199,6.12,6.0061,5.9279,6.0236,6.1044,6.1672,6.1672,6.1672,6.1283,5.9548,5.9099,5.9099,5.9099,5.9099,5.9368,6.0326,6.1852,6.3079,6.3079,6.3079,6.3079,6.3079,6.3079,6.3079,6.3079,6.3079,6.3079,6.3079,6.3079,6.3438,6.4366,6.4455,6.4455,6.4455,6.6011,6.6999,6.6999,6.6673,6.6492,6.6072,6.631,6.6546,6.7016,6.7016,6.6899,6.6664,6.6422,6.5947,6.5383,6.5144,6.4575]},{"header":{"parameterUnit":"m.s-1","parameterCategory":1,"la1":30.6,"la2":29.2853,"lo1":-89.7004,"lo2":-87.6739,"dy":0.0162,"dx":0.0183,"nx":112,"ny":82,"refTime":"2025-02-23T18:00:00:Z","depth":0,"parameterNumber":3,"parameterNumberName":"V-component_of_WINDS"},"data":[0.0,0.0,0.0,0.0,0.0,0.0,0.0,0.0,0.0,0.0,0.0,0.0,0.0,0.0,0.0,0.0,0.0,0.0,0.0,0.0,0.0,0.0,0.0,0.0,0.0,0.0,0.0,0.0,0.0,0.0,0.0,0.0,0.0,0.0,0.0,0.0,0.0,0.0,0.0,0.0,0.0,0.0,0.0,0.0,0.0,0.0,0.0,0.0,0.0,0.0,0.0,0.0,0.0,0.0,0.0,0.0,0.0,0.0,0.0,0.0,0.0,0.0,0.0,0.0,0.0,0.0,0.0,0.0,0.0,0.0,0.0,0.0,0.0,0.0,0.0,0.0,0.0,0.0,0.0,0.0,0.0,0.0,0.0,0.0,0.0,0.0,0.0,0.0,0.0,0.0,0.4321,0.4897,0.5216,0.5639,0.6366,0.6757,0.6986,0.7146,0.0,0.0,0.0,0.0,0.0,0.0,0.0,0.0,0.0,0.0,0.0,0.0,0.0,0.0,0.0,0.0,0.0,0.0,0.0,0.0,0.0,0.0,0.0,0.0,0.0,0.0,0.0,0.0,0.0,0.0,0.0,0.0,0.0,0.0,0.0,0.0,0.0,0.0,0.0,0.0,0.0,0.0,0.0,0.0,0.0,0.0,0.0,0.0,0.0,0.0,0.0,0.0,0.0,0.0,0.0,0.0,0.0,0.0,0.0,0.0,0.0,0.0,0.0,0.0,0.0,0.0,0.0,0.0,0.0,0.0,0.0,0.0,0.0,0.0,0.0,0.0,0.0,0.0,0.0,0.0,0.0,0.0,0.0,0.0,0.0,0.0,0.0,0.0,0.0,0.0,0.0,0.0,0.0,0.0,0.0,0.0,0.0,0.0,0.0,0.0,0.0,0.0,0.0,0.0,0.4178,0.5006,0.51,0.5572,0.6554,0.6933,0.7165,0.7412,0.0,0.0,0.0,0.0,0.0,0.0,0.0,0.0,0.0,0.0,0.0,0.0,0.0,0.0,0.0,0.0,0.0,0.0,0.0,0.0,0.0,0.0,0.0,0.0,0.0,0.0,0.0,0.0,0.0,0.0,0.0,0.0,0.0,0.0,0.0,0.0,0.0,0.0,0.0,0.0,0.0,0.0,0.0,0.0,0.0,0.0,0.0,0.0,0.0,0.0,0.0,0.0,0.0,0.0,0.0,0.0,0.0,0.0,0.0,0.0,0.0,0.0,0.0,0.0,0.0,0.0,0.0,0.0,0.0,0.0,0.0,0.0,0.0,0.0,0.0,0.0,0.0,0.0,0.0,0.0,0.0,0.0,0.0,0.0,0.0,0.0,0.0,0.0,0.0,0.0,0.0,0.0,0.0,0.0,0.0,0.0,0.0,0.0,0.0,0.0,0.0,0.0,0.0,0.4334,0.4707,0.5203,0.5385,0.5855,0.6741,0.701,0.7207,0.746,0.7317,0.0,0.0,0.0,0.0,0.0,0.0,0.0,0.0,0.0,0.0,0.0,0.0,0.0,0.0,0.0,0.0,0.0,0.0,0.0,0.0,0.0,0.0,0.0,0.0,0.0,0.0,0.0,0.0,0.0,0.0,0.0,0.0,0.0,0.0,0.0,0.0,0.0,0.0,0.0,0.0,0.0,0.0,0.0,0.0,0.0,0.0,0.0,0.0,0.0,0.0,0.0,0.0,0.0,0.0,0.0,0.0,0.0,0.0,0.0,0.0,0.0,0.0,0.0,0.0,0.0,0.0,0.0,0.0,0.0,0.0,0.0,0.0,0.0,0.0,0.0,0.0,0.0,0.0,0.0,0.0,0.0,0.0,0.0,0.0,0.0,0.0,0.0,0.0,0.0,0.0,0.0,0.0,0.0,0.0,0.0,0.0,0.0,0.0,0.0,0.0,0.0,0.0,0.4992,0.5298,0.5447,0.5671,0.6102,0.694,0.6959,0.7144,0.7557,0.7426,0.0,0.0,0.0,0.0,0.0,0.0,0.0,0.0,0.0,0.0,0.0,0.0,0.0,0.0,0.0,0.0,0.0,0.0,0.0,0.0,0.0,0.0,0.0,0.0,0.0,0.0,0.0,0.0,0.0,0.0,0.0,0.0,0.0,0.0,0.0,0.0,0.0,0.0,0.0,0.0,0.0,0.0,0.0,0.0,0.0,0.0,0.0,0.0,0.0,0.0,0.0,0.0,0.0,0.0,0.0,0.0,0.0,0.0,0.0,0.0,0.0,0.0,0.0,0.0,0.0,0.0,0.0,0.0,0.0,0.0,0.0,0.0,0.0,0.0,0.0,0.0,0.0,0.0,0.0,0.0,0.0,0.0,0.0,0.0,0.0,0.0,0.0,0.0,0.0,0.0,0.0,0.0,0.0,0.0,0.0,0.0,0.0,0.0,0.0,0.0,0.0,0.0,0.5108,0.561,0.5752,0.5786,0.6171,0.7191,0.6885,0.6975,0.7832,0.732,0.0,0.0,0.0,0.0,0.0,0.0,0.0,0.0,0.0,0.0,0.0,0.0,0.0,0.0,0.0,0.0,0.0,0.0,0.0,0.0,0.0,0.0,0.0,0.0,0.0,0.0,0.0,0.0,0.0,0.0,0.0,0.0,0.0,0.0,0.0,0.0,0.0,0.0,0.0,0.0,0.0,0.0,0.0,0.0,0.0,0.0,0.0,0.0,0.0,0.0,0.0,0.0,0.0,0.0,0.0,0.0,0.0,0.0,0.0,0.0,0.0,0.0,0.0,0.0,0.0,0.0,0.0,0.0,0.0,0.0,0.0,0.0,0.0,0.0,0.0,0.0,0.0,0.0,0.0,0.0,0.0,0.0,0.0,0.0,0.0,0.0,0.0,0.0,0.0,0.0,0.0,0.0,0.0,0.0,0.0,0.0,0.0,0.0,0.0,0.0,0.0,0.0,0.5013,0.5561,0.6257,0.6516,0.7043,0.8078,0.7914,0.7845,0.8207,0.0,0.0,0.0,0.0,0.0,0.0,0.0,0.0,0.0,0.0,0.0,0.0,0.0,0.0,0.0,0.0,0.0,0.0,0.0,0.0,0.0,0.0,0.0,0.0,0.0,0.0,0.0,0.0,0.0,0.0,0.0,0.0,0.0,0.0,0.0,0.0,0.0,0.0,0.0,0.0,0.0,0.0,0.0,0.0,0.0,0.0,0.0,0.0,0.0,0.0,0.0,0.0,0.0,0.0,0.0,0.0,0.0,0.0,0.0,0.0,0.0,0.0,0.0,0.0,0.0,0.0,0.0,0.0,0.0,0.0,0.0,0.0,0.0,0.0,0.0,0.0,0.0,0.0,0.0,0.0,0.0,0.0,0.0,0.0,0.0,0.0,0.0,0.0,0.0,0.0,0.0,0.0,0.0,0.0,0.0,0.0,0.0,0.0,0.0,0.0,0.0,0.0,0.4653,0.5067,0.5649,0.6768,0.7009,0.7485,0.8517,0.8391,0.822,0.8101,0.0,0.0,0.0,0.0,0.0,0.0,0.0,0.0,0.0,0.0,0.0,0.0,0.0,0.0,0.0,0.0,0.0,0.0,0.0,0.0,0.0,0.0,0.0,0.0,0.0,0.0,0.0,0.0,0.0,0.0,0.0,0.0,0.0,0.0,0.0,0.0,0.0,0.0,0.0,0.0,0.0,0.0,0.0,0.0,0.0,0.0,0.0,0.0,0.0,0.0,0.0,0.0,0.0,0.0,0.0,0.0,0.0,0.0,0.0,0.0,0.0,0.0,0.0,0.0,0.0,0.0,0.0,0.0,0.0,0.0,0.0,0.0,0.0,0.0,0.0,0.0,0.0,0.0,0.0,0.0,0.0,0.0,0.0,0.0,0.0,0.0,0.0,0.0,0.0,0.0,0.0,0.0,0.0,0.0,0.0,0.0,0.0,0.0,0.0,0.0,0.0,0.0,0.4823,0.5311,0.6044,0.7126,0.7155,0.7485,0.8333,0.8125,0.7817,0.0,0.0,0.0,0.0,0.0,0.0,0.0,0.0,0.0,0.0,0.0,0.0,0.0,0.0,0.0,0.0,0.0,0.0,0.0,0.0,0.0,0.0,0.0,0.0,0.0,0.0,0.0,0.0,0.0,0.0,0.0,0.0,0.0,0.0,0.0,0.0,0.0,0.0,0.0,0.0,0.0,0.0,0.0,0.0,0.0,0.0,0.0,0.0,0.0,0.0,0.0,0.0,0.0,0.0,0.0,0.0,0.0,0.0,0.0,0.0,0.0,0.0,0.0,0.0,0.0,0.0,0.0,0.0,0.0,0.0,0.0,0.0,0.0,0.0,0.0,0.0,0.0,0.0,0.0,0.0,0.0,0.0,0.0,0.0,0.0,0.0,0.0,0.0,0.0,0.0,0.0,0.0,0.0,0.0,0.0,0.0,0.0,0.0,0.0,0.0,0.0,0.0,0.0,0.4958,0.5277,0.6194,0.8081,0.817,0.8713,0.9956,0.9731,0.9114,0.8407,0.0,0.0,0.0,0.0,0.0,0.0,0.0,0.0,0.0,0.0,0.0,0.0,0.0,0.0,0.0,0.0,0.0,0.0,0.0,0.0,0.0,0.0,0.0,0.0,0.0,0.0,0.0,0.0,0.0,0.0,0.0,0.0,0.0,0.0,0.0,0.0,0.0,0.0,0.0,0.0,0.0,0.0,0.0,0.0,0.0,0.0,0.0,0.0,0.0,0.0,0.0,0.0,0.0,0.0,0.0,0.0,0.0,0.0,0.0,0.0,0.0,0.0,0.0,0.0,0.0,0.0,0.0,0.0,0.0,0.0,0.0,0.0,0.0,0.0,0.0,0.0,0.0,0.0,0.0,0.0,0.0,0.0,0.0,0.0,0.0,0.0,0.0,0.0,0.0,0.0,0.0,0.0,0.0,0.0,0.0,0.0,0.0,0.0,0.0,0.0,0.0,0.0,0.5236,0.5739,0.6695,0.851,0.8857,0.9328,1.0355,1.0412,0.9838,0.8637,0.0,0.0,0.0,0.0,0.0,0.0,0.0,0.0,0.0,0.0,0.0,0.0,0.0,0.0,0.0,0.0,0.0,0.0,0.0,0.0,0.0,0.0,0.0,0.0,0.0,0.0,0.0,0.0,0.0,0.0,0.0,0.0,0.0,0.0,0.0,0.0,0.0,0.0,0.0,0.0,0.0,0.0,0.0,0.0,0.0,0.0,0.0,0.0,0.0,0.0,0.0,0.0,0.0,0.0,0.0,0.0,0.0,0.0,0.0,0.0,0.0,0.0,0.0,0.0,0.0,0.0,0.0,0.0,0.0,0.0,0.0,0.0,0.0,0.0,0.0,0.0,0.0,0.0,0.0,0.0,0.0,0.0,0.0,0.0,0.0,0.0,0.0,0.0,0.0,0.0,0.0,0.0,0.0,0.0,0.0,0.0,0.0,0.0,0.0,0.0,0.0,0.0,0.5747,0.6476,0.7511,0.8855,0.9308,0.9673,1.0135,1.0554,1.018,0.869,0.0,0.0,0.0,0.0,0.0,0.0,0.0,0.0,0.0,0.0,0.0,0.0,0.0,0.0,0.0,0.0,0.0,0.0,0.0,0.0,0.0,0.0,0.0,0.0,0.0,0.0,0.0,0.0,0.0,0.0,0.0,0.0,0.0,0.0,0.0,0.0,0.0,0.0,0.0,0.0,0.0,0.0,0.0,0.0,0.0,0.0,0.0,0.0,0.0,0.0,0.0,0.0,0.0,0.0,0.0,0.0,0.0,0.0,0.0,0.0,0.8776,0.8073,0.0,0.0,0.0,0.0,0.0,0.0,0.0,0.0,0.0,0.0,0.0,0.0,0.0,0.0,0.0,0.0,0.0,0.0,0.0,0.0,0.0,0.0,0.0,0.0,0.0,0.0,0.0,0.0,0.0,0.0,0.0,0.0,0.0,0.0,0.0,0.0,0.0,0.0,0.0,0.0,0.6535,0.7277,0.8393,1.0183,1.0382,1.0657,1.1457,1.1501,1.1117,1.0166,0.9576,0.0,0.0,0.0,0.0,0.0,0.0,0.0,0.0,0.0,0.0,0.0,0.0,0.0,0.0,0.0,0.0,0.0,0.0,0.0,0.0,0.0,0.0,0.0,0.0,0.0,0.0,0.0,0.0,0.0,0.0,0.0,0.0,0.0,0.0,0.0,0.0,0.0,0.0,0.0,0.0,0.0,0.0,0.0,0.0,0.0,0.0,0.0,0.0,0.0,0.0,0.0,0.0,0.0,0.0,0.0,0.0,0.0,0.0,0.0,0.9336,0.8484,0.0,0.0,0.0,0.0,0.0,0.0,0.0,0.0,0.0,0.0,0.0,0.0,0.0,0.0,0.0,0.0,0.0,0.0,0.0,0.0,0.0,0.0,0.0,0.0,0.0,0.0,0.0,0.0,0.0,0.0,0.0,0.0,0.0,0.0,0.0,0.0,0.0,0.0,0.0,0.0,0.711,0.8256,0.958,1.0742,1.0935,1.1313,1.2026,1.204,1.1902,1.1616,1.0778,0.0,0.0,0.0,0.0,0.0,0.0,0.0,0.0,0.0,0.0,0.0,0.0,0.0,0.0,0.0,0.0,0.0,0.0,0.0,0.0,0.0,0.0,0.0,0.0,0.0,0.0,0.0,0.0,0.0,0.0,0.0,0.0,0.0,0.0,0.0,0.0,0.0,0.0,0.0,0.0,0.0,0.0,0.0,0.0,0.0,0.0,0.0,0.0,0.0,0.0,0.0,0.0,0.0,1.411,1.3802,1.435,1.3027,1.2336,1.2047,1.0078,0.9187,0.8978,0.8626,0.0,0.0,0.0,0.0,0.0,0.0,0.0,0.0,0.0,0.0,0.0,0.0,0.0,0.0,0.0,0.0,0.0,0.0,0.0,0.0,0.0,0.0,0.9381,0.9494,0.9493,0.9272,0.8355,0.0,0.0,0.0,0.0,0.0,0.0,0.0,0.0,0.0,0.0,0.0,0.7778,0.9388,1.0697,1.1096,1.1385,1.1779,1.2441,1.2513,1.2679,1.2932,1.2149,1.1564,0.0,0.0,0.0,0.0,0.0,0.0,0.0,0.0,0.0,0.0,0.0,0.0,0.0,0.0,0.0,0.0,0.0,0.0,0.0,0.0,0.0,0.0,0.0,0.0,0.0,0.0,0.0,0.0,0.0,0.0,0.0,0.0,0.5505,0.5771,0.0,0.0,0.0,0.0,0.0,0.0,0.0,0.0,0.0,0.0,0.0,0.0,0.0,1.1333,1.2605,1.1967,1.2329,1.3802,1.3613,1.3905,1.4624,1.4425,1.3754,1.2725,1.1556,0.0,0.9897,0.9099,0.0,0.0,0.0,0.0,0.0,0.0,0.0,0.0,0.0,0.0,0.0,0.0,0.0,0.0,0.0,0.0,0.0,0.0,0.0,0.0,0.0,0.0,1.1408,1.1154,1.1724,1.2258,1.1723,0.9258,0.7012,0.6715,0.6533,0.6378,0.0,0.0,0.0,0.0,0.0,0.0,0.9094,1.039,1.1488,1.2012,1.2151,1.2458,1.2998,1.3264,1.3514,1.3893,1.366,1.3366,1.3153,1.1973,0.0,0.0,0.0,0.0,0.0,0.0,0.0,0.0,0.0,0.0,0.0,0.0,0.0,0.0,0.0,0.0,0.0,0.0,0.0,0.0,0.0,0.0,0.0,0.0,0.0,0.0,0.0,0.0,0.0,0.546,0.6293,0.6293,0.6825,0.7194,0.0,0.0,0.0,0.0,0.0,0.0,0.0,0.0,0.0,1.1607,1.222,1.2843,1.3511,1.3716,1.4585,1.6021,1.5191,1.5189,1.5942,1.5942,1.5728,1.5297,1.4063,1.3219,1.257,1.1276,1.0623,1.0343,0.0,0.0,0.0,0.0,0.9552,1.0127,1.0234,1.0167,1.0033,1.0033,0.0,0.0,0.0,0.0,0.0,0.0,0.0,1.0102,1.0523,1.1378,1.219,1.2376,1.2829,1.3266,1.31,1.1543,0.9918,0.9084,0.8483,0.7959,0.7325,0.7308,0.0,0.0,0.0,0.9718,0.9908,1.1108,1.2012,1.2291,1.2305,1.2673,1.3622,1.3595,1.4034,1.5269,1.4556,1.4296,1.4535,1.334,1.2246,0.0,0.0,0.0,0.0,0.0,0.0,0.0,0.0,0.0,0.0,0.0,0.0,0.0,0.0,0.0,0.0,0.0,0.0,0.0,0.0,0.0,0.0,0.0,0.0,0.0,0.0,0.0,0.0,0.6158,0.6936,0.6752,0.7362,0.7797,0.0,0.0,0.0,0.0,0.0,0.0,1.2068,1.2605,1.3168,1.3835,1.4022,1.4281,1.4658,1.5755,1.6908,1.8008,1.6491,1.6302,1.7209,1.7209,1.7304,1.7415,1.6342,1.5729,1.5241,1.397,1.2912,1.2027,1.1736,1.1498,1.1169,1.0518,1.0823,1.1597,1.1637,1.1503,1.1343,1.141,1.1089,1.0595,1.0336,0.0,0.0,0.0,0.0,1.0901,1.1546,1.2297,1.2996,1.3446,1.4038,1.4417,1.433,1.3796,1.2885,1.1269,1.0322,0.9517,0.869,0.8644,0.0,0.8333,0.979,1.0876,1.0734,1.1793,1.2505,1.2425,1.256,1.3051,1.4129,1.4096,1.4673,1.6321,1.5523,1.5158,1.5586,1.4551,1.3535,1.2531,0.0,0.0,0.0,0.0,0.0,0.0,0.0,0.0,0.0,0.0,0.0,0.0,0.0,0.0,0.0,0.0,0.0,0.0,0.0,0.0,0.0,0.0,0.0,0.0,0.0,0.0,0.0,0.0,0.0,0.7469,0.8013,0.0,0.0,0.0,0.0,1.0509,1.2254,1.3649,1.4409,1.516,1.5375,1.4966,1.5446,1.637,1.7792,1.784,1.794,1.8008,1.6491,1.6559,1.798,1.798,1.798,1.798,1.79,1.761,1.7132,1.6843,1.5896,1.4632,1.466,1.402,1.3066,1.2778,1.2764,1.2772,1.2398,1.2251,1.2278,1.2647,1.2452,1.233,1.2884,1.2249,0.0,0.0,1.1997,1.2291,1.2612,1.359,1.4517,1.4531,1.5751,1.6718,1.6397,1.5905,1.4757,1.2331,1.1275,1.0754,1.0491,0.0,1.0428,1.0392,1.1204,1.1846,1.171,1.2555,1.3053,1.2835,1.3251,1.3799,1.4489,1.5084,1.5774,1.6722,1.6713,1.651,1.6055,1.5566,1.4727,1.3477,1.2578,0.0,0.0,0.0,0.0,0.0,0.0,0.0,0.0,0.0,0.0,0.0,0.0,0.0,0.0,0.0,0.0,0.0,0.0,0.0,0.0,0.0,0.0,0.0,0.0,0.0,0.0,0.0,0.0,0.8514,0.9297,0.0,1.0379,1.1776,1.2827,1.3228,1.4294,1.5213,1.5744,1.5972,1.6051,1.5977,1.5874,1.6524,1.8031,1.7969,1.7993,1.8011,1.8464,1.8973,1.9453,1.8994,1.8824,1.9007,1.8955,1.8766,1.8494,1.8408,1.7564,1.6355,1.5794,1.5034,1.4172,1.3547,1.3187,1.3106,1.3146,1.3039,1.2943,1.3307,1.3572,1.3844,1.3621,1.3241,1.2963,1.3467,1.3691,1.3988,1.4714,1.5205,1.571,1.6118,1.6619,1.7009,1.6879,1.6362,1.5468,1.3964,1.2832,1.2012,1.1757,1.1677,1.1717,1.1682,1.2111,1.2545,1.2698,1.3001,1.3317,1.3663,1.362,1.4126,1.5389,1.5535,1.5878,1.6722,1.659,1.6319,1.6094,1.5644,1.5078,1.4336,1.375,1.2539,0.0,0.0,0.0,0.0,0.0,0.0,0.0,0.0,0.0,0.0,0.0,0.0,0.0,0.0,0.0,0.0,0.0,0.0,0.0,0.0,0.0,0.0,0.0,0.0,0.0,0.8081,0.8972,0.9604,1.0737,1.167,1.2089,1.3553,1.4681,1.5227,1.6193,1.6917,1.7315,1.7623,1.7642,1.7325,1.7086,1.7081,1.7278,1.8288,1.8802,1.8819,1.9812,2.0292,2.0257,1.9799,1.9521,1.9538,1.9471,1.935,1.9179,1.9179,1.8682,1.7831,1.6766,1.5909,1.5122,1.428,1.3878,1.3828,1.4266,1.4532,1.465,1.5063,1.5385,1.5464,1.4989,1.483,1.4918,1.5029,1.5311,1.5604,1.6331,1.6645,1.6896,1.7414,1.758,1.7647,1.7414,1.6896,1.6133,1.5126,1.3922,1.2959,1.2665,1.2612,1.2612,1.2612,1.2866,1.312,1.3333,1.344,1.3628,1.3985,1.4243,1.485,1.5806,1.6031,1.6486,1.713,1.6663,1.635,1.6309,1.5723,1.5156,1.457,1.3867,1.293,1.1777,0.0,0.0,0.0,0.0,0.0,0.0,0.0,0.0,0.0,0.0,0.0,0.0,0.0,0.0,0.0,0.0,0.0,0.0,0.0,0.0,0.0,0.0,0.0,0.7722,0.963,1.0995,1.0695,1.2292,1.3411,1.3576,1.4624,1.5592,1.6381,1.7839,1.8844,1.9183,2.0043,2.0117,1.9011,1.917,1.8231,1.5959,1.892,2.0382,2.0382,2.0292,2.0292,2.0292,2.0292,2.0035,1.9485,1.9363,1.9228,1.9213,1.9213,1.9213,1.9093,1.768,1.6642,1.5922,1.5251,1.502,1.5143,1.5828,1.6624,1.7311,1.8024,1.7747,1.7224,1.7152,1.7152,1.7049,1.636,1.6712,1.7224,1.7224,1.7747,1.8197,1.8197,1.8732,1.899,1.8213,1.7604,1.6798,1.5706,1.4489,1.3587,1.3293,1.324,1.324,1.324,1.348,0.0,1.3654,1.3908,1.3975,1.3681,1.5137,1.595,1.5708,1.6847,1.7686,1.7988,1.7207,1.6655,1.6655,1.5819,1.4982,1.4165,1.292,1.2278,1.2239,0.0,0.0,0.0,0.0,0.0,0.0,0.0,0.0,0.0,0.0,0.0,0.0,0.0,0.0,0.0,0.0,0.0,0.0,0.0,0.0,0.0,0.872,0.944,0.9191,1.0207,1.1403,1.2427,1.3739,1.498,1.6139,1.7128,1.81,1.8896,1.9321,1.9377,1.9245,1.9777,2.0111,2.0205,1.9585,1.9175,1.9059,2.1273,2.2334,2.2334,2.0907,2.0292,2.0292,2.0292,2.0223,2.0086,1.9979,2.0035,1.9984,1.9984,1.9984,1.9826,1.789,1.6972,1.6638,1.5438,1.5349,1.5828,1.6006,1.6888,1.7937,1.811,1.837,1.8559,1.8024,1.7937,1.785,1.7676,1.7763,1.8024,1.8543,1.8818,1.8904,1.8904,1.9076,1.8818,1.7604,1.7239,1.6698,1.5389,1.4886,1.4442,1.3935,1.3841,1.3841,1.3841,1.3921,1.3961,1.3961,1.4041,1.4461,1.5359,1.5836,1.655,1.7769,1.7879,1.7789,1.7598,1.6754,1.6186,1.5818,1.5651,1.5542,1.5527,1.4883,1.4238,0.0,0.0,0.0,0.0,0.0,0.0,0.0,0.0,0.0,0.0,0.0,0.0,0.0,0.0,0.0,0.0,0.0,0.0,0.0,0.0,0.0,0.0,0.9992,1.0965,1.1356,1.202,1.2902,1.3799,1.5311,1.6742,1.8013,1.8612,1.9354,2.0386,2.0391,2.0393,2.0327,2.0764,2.1127,2.1287,2.1029,2.108,2.1445,2.2511,2.3144,2.3057,2.1193,2.0318,2.0292,2.0292,2.0292,2.0292,2.0292,2.0292,2.0292,2.0292,2.0292,2.015,0.0,0.0,0.0,0.0,1.6316,1.695,1.7311,1.8119,1.9096,1.9096,1.936,1.9553,1.883,1.883,1.9007,1.8742,1.883,1.9184,1.9553,1.9641,1.9641,1.9641,1.9641,1.9289,1.785,1.7491,1.7086,1.5436,1.515,0.0,1.4536,1.4349,1.4269,1.4269,1.4162,1.4082,1.4082,1.4334,1.4908,1.5794,1.6589,1.7429,1.8475,1.8563,0.0,0.0,0.0,1.6192,1.5524,1.5567,0.0,0.0,0.0,0.0,0.0,1.6235,0.0,0.0,1.4739,1.4902,0.0,0.0,0.0,0.0,0.0,0.0,0.0,0.0,0.0,0.0,0.0,0.0,0.0,0.0,0.0,0.0,1.1361,1.2535,1.3635,1.4517,1.5002,1.5002,1.6839,1.8458,1.9334,1.9334,1.9815,2.1101,2.1199,2.1325,2.1701,2.2236,0.0,0.0,0.0,2.3144,2.3144,2.3144,2.3038,2.2911,2.1153,2.0305,2.0292,2.0292,2.0292,2.0292,2.0292,2.0292,2.0292,2.0292,2.0292,2.0019,1.8643,1.7807,1.7326,1.7138,1.7512,1.8365,1.8996,0.0,0.0,2.0292,2.0292,2.0201,1.9546,1.9745,2.0201,1.9471,1.9837,2.0292,2.0292,2.0292,2.0292,2.0292,2.0292,1.9928,1.8458,1.8087,1.7531,1.5776,1.5444,1.5364,1.511,1.479,1.4576,1.4576,1.4349,1.4273,1.4273,1.4853,1.5427,1.5982,1.7531,0.0,1.8596,1.9127,1.9078,1.8328,1.7373,1.6496,1.5745,1.5826,1.6224,1.6947,1.707,1.7724,1.9022,1.931,1.9548,1.9737,1.7169,1.6992,0.0,0.0,0.0,0.0,0.0,0.0,0.0,0.0,0.0,0.0,0.0,0.0,0.0,0.0,0.0,1.1461,1.2827,1.396,1.4471,1.5968,1.7006,1.7006,1.8192,1.9318,2.0107,2.0146,2.041,2.0977,2.1085,2.1069,2.1141,2.1957,2.2435,2.2353,2.2882,2.3144,2.3144,2.3144,2.2698,2.2001,2.0855,0.0,2.0292,2.0292,2.0292,2.0292,2.0292,2.0292,2.0292,2.0292,1.9928,1.9379,1.8458,1.8087,1.79,1.7232,1.7885,1.9012,1.918,1.9654,2.0292,2.0292,2.0292,2.0292,2.011,2.0201,0.0,2.011,2.0201,2.0292,2.0292,2.0292,2.0292,2.0292,2.0292,1.9928,1.8458,1.8087,1.7591,1.6035,1.5752,1.5725,1.5671,1.5231,1.4883,1.4883,1.483,1.5055,1.5658,1.5834,1.6518,1.8124,1.8888,1.9626,2.0566,2.0434,1.9944,1.9146,1.8005,1.7254,1.7107,1.7755,1.8337,1.8789,1.9121,1.9448,1.9698,2.0134,2.0546,2.0859,1.9997,1.9905,0.0,0.0,0.0,0.0,0.0,0.0,0.0,0.0,0.0,0.0,0.0,0.9664,1.1092,0.0,1.2182,1.3379,1.4425,1.5312,1.6063,1.745,1.8294,1.8038,1.8888,1.9834,2.066,2.0447,2.0713,2.1606,2.1445,2.1535,2.2069,2.2511,2.2794,2.2794,2.2969,2.3144,2.3144,2.3144,2.2736,2.1919,2.1105,2.0616,2.0292,2.0292,2.0292,2.0292,2.0292,2.0292,2.0292,2.0292,2.011,1.9654,1.892,1.8458,1.8087,1.8071,1.8535,1.9288,1.9654,2.0019,2.0292,2.0292,2.0292,2.0292,2.0292,2.0292,2.0292,2.0292,2.0292,2.0292,2.0292,2.0292,2.0292,2.0292,2.0292,1.9928,1.8458,1.8087,1.7621,1.6116,1.5832,1.5832,1.5832,1.5591,1.5443,1.5735,1.5673,1.5842,1.6536,1.6961,1.7573,1.8698,1.9554,2.025,2.0755,2.0218,1.9651,1.925,1.8588,1.8261,1.8394,1.9052,1.964,2.0254,2.0469,2.084,2.135,2.1489,2.1804,2.2267,2.2329,2.2352,0.0,0.0,0.0,0.0,0.0,0.0,0.0,0.8396,0.9034,0.8483,0.9425,1.1001,1.3099,1.3301,1.358,1.5095,1.5902,1.6683,1.7728,1.87,1.9143,1.8775,1.9482,2.0234,2.0782,2.0654,2.1015,2.2087,2.1909,2.2176,2.2969,2.3057,2.3144,2.3144,2.3144,2.3144,2.3144,2.3057,2.2687,2.2069,2.1464,2.0832,2.0292,2.0292,2.0292,2.0292,2.0292,2.0292,2.0292,2.0292,2.0292,2.0201,1.9654,1.9012,1.855,1.9012,1.9288,1.9471,2.011,2.0292,2.0292,2.0292,2.0292,2.0292,2.0292,2.0292,2.0292,2.0292,2.0292,2.0292,2.0292,2.0292,2.0292,2.0292,2.0292,1.9928,1.8458,1.8087,1.7621,1.6116,1.5832,1.5832,1.5832,1.5927,1.6115,1.6515,1.644,1.6639,1.7513,1.8057,1.8584,1.9177,2.0057,2.0571,2.0485,1.9871,1.9388,1.9388,1.9199,1.9308,1.9611,2.0089,2.0697,2.1484,2.1484,2.1925,2.2857,2.2884,2.3083,2.3673,2.4382,2.4426,0.5947,0.6123,0.6943,0.8906,0.9437,0.9687,0.0,1.0801,1.0842,1.0247,1.1348,1.2583,1.3369,1.488,1.5994,1.594,1.6782,1.7811,1.8871,1.9349,1.9707,2.003,2.0549,2.0692,2.0382,2.1105,2.1463,2.1177,2.1891,2.2353,2.2441,2.2882,2.3144,2.3144,2.3144,2.3144,2.3144,2.2706,2.2227,2.171,2.1248,2.0744,2.0292,2.0292,2.0292,2.0292,2.0292,2.0292,2.0292,2.0292,2.0292,2.0292,2.0201,2.011,2.0019,1.9363,1.9654,2.0201,2.0292,2.0292,2.0292,2.0292,2.0292,2.0292,2.0292,2.0292,2.0292,2.0292,2.0292,2.0292,2.0292,2.0292,2.0292,2.0292,2.0292,1.9928,1.8458,1.8087,1.7621,1.6116,1.5832,1.5832,1.5832,1.6386,1.6842,1.6893,1.6958,1.7394,1.8792,1.9066,1.9521,2.0587,2.0855,2.0962,2.0944,2.0518,2.0288,2.0288,2.0274,2.0541,2.0957,2.1472,2.1934,2.2363,2.2363,2.2578,2.3075,2.372,2.4288,2.4784,2.6066,2.6303,0.7333,0.7612,0.8184,0.9341,1.0308,1.1077,1.1811,1.2056,1.2367,1.3363,1.4077,1.4841,1.5922,1.6781,1.7371,1.7489,1.8046,1.8717,1.9366,1.9829,2.0035,1.9984,2.0604,2.0907,2.0727,2.1284,2.1731,2.1802,2.2176,2.253,2.2794,2.2969,2.3144,2.3144,2.3144,2.3144,2.3144,2.2618,2.2157,2.1676,2.1248,2.0727,2.0292,2.0292,2.0292,2.0292,2.0292,2.0292,2.0292,2.0292,2.0292,2.0292,2.0292,2.0292,2.0292,1.9928,2.0019,2.0292,2.0292,2.0292,2.0292,2.0292,2.0292,2.0292,2.0292,2.0292,2.0292,2.0292,2.0292,2.0292,2.0292,2.0292,2.0292,2.0292,2.0019,1.9379,1.8365,1.7792,1.7138,1.6021,1.5832,1.5927,1.6386,1.6763,1.7326,1.8164,1.8257,1.8627,1.9745,1.9837,2.0093,2.0907,2.0727,2.0727,2.0997,2.0587,2.0499,2.0749,2.1047,2.1392,2.1911,2.236,2.2695,2.2871,2.3302,2.3694,2.4115,2.4881,2.5333,2.5522,2.6519,2.7017,0.8333,0.8509,0.8895,0.9868,1.1019,1.215,1.2853,1.3188,1.3753,1.5221,1.5803,1.6396,1.7492,1.8018,1.8301,1.8374,1.8939,1.947,1.9847,2.0121,2.0189,1.9932,2.0569,2.1087,2.1177,2.1642,2.1998,2.2353,2.253,2.2706,2.3057,2.3144,2.3144,2.3144,2.3144,2.3144,2.3144,2.253,2.1998,2.1731,2.1087,2.0637,2.0292,2.0292,2.0292,2.0292,2.0292,2.0292,2.0292,2.0292,2.036,2.0446,2.0446,2.0446,2.0463,2.0566,2.0463,2.0292,2.0292,2.0292,2.0292,2.0292,2.0292,2.0292,2.0292,2.0292,2.0292,2.0292,2.0292,2.0292,2.0292,2.0292,2.0292,2.0292,1.9745,1.9012,1.8272,1.7512,1.6763,1.5927,1.6021,1.6292,1.6951,1.7326,1.7978,1.8996,1.9379,1.9745,2.0201,2.0292,2.0473,2.0727,2.0456,2.0473,2.0817,2.0637,2.0727,2.1177,2.1642,2.2143,2.279,2.3144,2.3379,2.3496,2.4183,2.4635,2.4839,2.5805,2.6282,2.6411,2.728,2.8029,0.8509,0.8488,0.8703,1.0816,1.2012,1.2913,1.3672,1.4413,1.4866,1.473,1.5863,1.6862,1.6956,1.7916,1.8642,1.8117,1.899,1.9847,2.0223,2.0292,2.0292,2.0275,2.0727,2.1177,2.1642,2.2087,2.2353,2.2441,2.2794,2.3057,2.3144,2.3144,2.3144,2.3144,2.3144,2.3144,2.3144,2.2176,2.1731,2.1642,2.0744,2.0292,2.0292,2.0292,2.0292,2.0292,2.0292,2.0292,2.0292,2.0292,2.0514,2.0857,2.0857,2.0857,2.0908,2.1251,2.0908,2.0292,2.0292,2.0292,2.0292,2.0292,2.0292,2.0292,2.0292,2.0292,2.0292,2.0292,2.0292,2.0292,2.0292,2.0292,2.0292,2.0292,1.9745,1.9012,1.8272,1.7512,1.6763,1.5927,1.6386,1.6951,1.7044,1.8164,1.918,1.918,1.9837,2.0292,2.0292,2.0292,2.0292,2.0292,2.0292,2.0292,2.0292,2.0727,2.1177,2.1642,2.2087,2.279,2.375,2.3769,2.3965,2.4375,2.5108,2.5268,2.4771,2.626,2.7192,2.7634,2.8854,2.9986,0.9182,0.9856,1.0629,1.1881,1.3024,1.4032,1.4547,1.5103,1.5513,1.5443,1.5829,1.611,1.578,1.7157,1.8189,1.7879,1.8887,1.9881,2.024,2.0292,2.0206,1.9949,2.0587,2.098,2.0819,2.1743,2.253,2.2882,2.3057,2.3144,2.3144,2.3418,2.3437,2.3144,2.3418,2.3437,2.3144,2.2815,2.2497,2.2135,2.1375,2.1028,2.1028,2.1028,2.1028,2.1028,2.1028,2.1028,2.1028,2.1028,2.1114,2.1234,2.1234,2.1234,2.1251,2.1371,2.1251,2.1028,2.1028,2.0874,2.072,2.096,2.0874,2.072,2.096,2.1028,2.1028,2.1028,2.1028,2.1028,2.1028,2.0857,2.0737,2.0977,1.9723,1.8427,1.844,1.7283,1.6171,1.6182,1.6786,1.7515,1.8312,1.9208,2.0083,2.0557,2.0415,2.0292,2.0292,2.0292,2.0394,2.0651,2.0686,2.0771,2.1011,2.1497,2.1964,2.2427,2.2981,2.3496,2.4199,2.3945,2.4028,2.4616,2.513,2.5805,2.6713,2.8031,2.8876,2.9353,2.9804,3.017,0.9377,1.0332,1.1465,1.2989,1.4359,1.5358,1.5511,1.5647,1.5783,1.5822,1.5303,1.4896,1.4976,1.631,1.7393,1.7482,1.87,1.971,2.0223,2.0292,2.0206,1.9966,2.0407,2.0819,2.0837,2.1655,2.2353,2.2794,2.3057,2.3203,2.3359,2.3633,2.373,2.3594,2.3867,2.3887,2.3594,2.3415,2.2907,2.226,2.1665,2.1405,2.1405,2.1405,2.1405,2.1405,2.1405,2.1405,2.1405,2.1405,2.149,2.1627,2.1627,2.1627,2.1627,2.1764,2.173,2.1593,2.1456,2.1268,2.1114,2.1336,2.1251,2.1114,2.1336,2.1405,2.1405,2.1405,2.1405,2.1405,2.1405,2.1234,2.1036,2.0971,1.9702,1.8404,1.8312,1.7133,1.6303,1.6785,1.7497,1.8432,1.9326,2.0136,2.0829,2.1309,2.0994,2.0686,2.0686,2.0686,2.0788,2.1045,2.1062,2.1165,2.1388,2.176,2.216,2.2703,2.3037,2.3659,2.4544,2.4445,2.4887,2.5916,2.6598,2.7368,2.8521,2.9307,2.9917,3.0216,3.0216,3.0514,0.9202,1.0068,1.1414,1.4171,1.5814,1.6809,1.6581,1.6173,1.5713,1.5593,1.4316,1.3442,1.4261,1.5364,1.6354,1.7009,1.833,1.9436,2.0189,2.0292,2.0292,2.0292,2.0292,2.0654,2.1553,2.1642,2.1909,2.2372,2.2901,2.3359,2.3769,2.3828,2.4023,2.4414,2.4434,2.4434,2.4414,2.397,2.3242,2.2238,2.1761,2.1473,2.1473,2.1473,2.1473,2.1473,2.1473,2.1473,2.1473,2.1473,2.1696,2.2021,2.2021,2.2021,2.2073,2.2415,2.2329,2.197,2.1593,2.1456,2.1439,2.1456,2.1456,2.1439,2.1456,2.1473,2.1473,2.1473,2.1473,2.1473,2.1473,2.1456,2.1151,2.0411,1.9599,1.8784,1.8023,1.7313,1.7014,1.7825,1.8716,1.9517,2.0297,2.0975,2.1473,2.1473,2.1473,2.1456,2.1388,2.1405,2.1405,2.1405,2.1422,2.1456,2.1456,2.162,2.1874,2.2447,2.255,2.3318,2.5002,2.5501,2.6484,2.8113,2.9277,2.9875,2.9919,3.0079,3.0262,3.0331,3.0331,3.1134,1.0734,1.2038,1.3172,1.4652,1.5602,1.6277,1.6684,1.6286,1.5088,1.2487,1.2627,1.2921,1.2123,1.4068,1.5886,1.6222,1.7896,1.9436,2.0189,2.0292,2.0292,2.0292,2.0292,2.0564,2.1087,2.1463,2.2039,2.2877,2.3364,2.3672,2.3789,2.4394,2.4648,2.4414,2.4727,2.4746,2.4414,2.3805,2.3335,2.3036,2.2559,2.2261,2.2261,2.2261,2.2261,2.2261,2.2261,2.2261,2.2261,2.2261,2.2312,2.2415,2.2415,2.2415,2.2415,2.2518,2.2584,2.2398,2.2295,2.2073,2.1884,2.2158,2.2073,2.1901,2.2175,2.2261,2.2261,2.2261,2.2261,2.2261,2.2261,2.1643,2.09,2.0994,1.9545,1.8166,1.8196,1.7967,1.7768,1.8196,1.9659,2.1042,2.1862,2.2161,2.2261,2.2261,2.2261,2.1953,2.1131,2.1251,2.1405,2.1405,2.1679,2.1953,2.2227,2.2652,2.3492,2.4944,2.4906,2.582,2.8199,2.7531,2.7798,2.9365,2.905,2.9306,3.0125,3.0194,3.079,3.1915,3.1915,3.2535,1.1331,1.2574,1.3739,1.5169,1.6204,1.6918,1.7301,1.6195,1.4279,1.122,1.1397,1.1963,1.1535,1.3317,1.5024,1.5809,1.7597,1.9247,2.0155,2.0292,2.0292,2.0292,2.0446,2.0824,2.1536,2.1971,2.2538,2.3312,2.3434,2.3673,2.4336,2.4617,2.4869,2.5,2.5234,2.5139,2.4602,2.3772,2.3422,2.332,2.2837,2.2653,2.2653,2.2653,2.2653,2.2653,2.2653,2.2653,2.2653,2.2653,2.2653,2.2653,2.2653,2.2653,2.2653,2.2653,2.2653,2.2653,2.2653,2.2415,2.2278,2.2484,2.2415,2.2278,2.2484,2.2653,2.2653,2.2653,2.2653,2.2653,2.2653,2.1778,2.0958,2.0759,1.949,1.815,1.8114,1.8334,1.892,1.9955,2.133,2.2515,2.3032,2.3032,2.3049,2.3049,2.3049,2.2758,2.197,2.2038,2.2158,2.2158,2.2501,2.2809,2.3014,2.3184,2.396,2.5871,2.5465,2.6346,2.8921,2.84,2.8639,2.9982,2.9962,3.0464,3.157,3.157,3.2099,3.3132,3.2925,3.3384,1.1427,1.2544,1.3831,1.5427,1.6814,1.7751,1.7587,1.5626,1.3308,1.1046,1.0548,1.0779,1.1655,1.2836,1.4214,1.5718,1.7426,1.899,2.0138,2.0343,2.0377,2.0377,2.072,2.1316,2.2244,2.2628,2.3036,2.3542,2.3223,2.3632,2.483,2.4565,2.4775,2.5625,2.5645,2.5333,2.4824,2.3836,2.3238,2.3238,2.2636,2.2451,2.2653,2.2451,2.2451,2.2653,2.2653,2.2653,2.2653,2.2653,2.2653,2.2653,2.2653,2.2653,2.2653,2.2653,2.2687,2.2621,2.2621,2.2655,2.2773,2.2687,2.2653,2.2653,2.2603,2.2621,2.2638,2.2689,2.2791,2.2791,2.2791,2.1976,2.1155,2.0519,1.9688,1.8745,1.8218,1.8929,2.024,2.2135,2.3017,2.3511,2.3511,2.3511,2.3528,2.3545,2.3597,2.3494,2.3151,2.3151,2.3169,2.3117,2.3443,2.3648,2.3597,2.341,2.4025,2.6048,2.547,2.6263,2.9123,2.9145,2.9645,3.0813,3.1639,3.2489,3.3384,3.3315,3.3568,3.4096,3.3683,3.4027,1.1988,1.3414,1.4455,1.4434,1.5465,1.6205,1.5202,1.3345,1.165,1.0768,1.0314,1.0236,1.0765,1.2437,1.4072,1.5339,1.7282,1.899,2.0138,2.0566,2.0771,2.0771,2.1097,2.151,2.2061,2.2209,2.2577,2.34,2.3459,2.3478,2.3721,2.4444,2.5061,2.5625,2.5235,2.4726,2.4233,2.3619,2.3138,2.2754,2.1928,2.1928,2.2552,2.1827,2.1928,2.2653,2.2653,2.2653,2.2653,2.2653,2.2653,2.2653,2.2653,2.2653,2.2653,2.2653,2.274,2.3014,2.3014,2.322,2.3374,2.2842,2.2653,2.2603,2.2929,2.3014,2.3083,2.3391,2.3477,2.3477,2.3477,2.2299,2.1248,2.1873,2.0803,1.9831,2.0465,2.1046,2.1764,2.277,2.2843,2.274,2.274,2.274,2.274,2.274,2.3014,2.3186,2.3117,2.3374,2.346,2.3151,2.3443,2.3545,2.3237,2.3565,2.4849,2.7382,2.7182,2.8811,3.2855,3.2398,3.2644,3.4004,3.3752,3.3706,3.3889,3.3476,3.3752,3.467,3.4578,3.506,1.1793,1.2514,1.2983,1.3112,1.3556,1.3687,1.2982,1.2042,1.1169,1.0287,0.9892,0.98,1.0191,1.2019,1.3901,1.4982,1.6796,1.8477,1.9812,2.0172,2.0429,2.0823,2.1371,2.1907,2.239,2.2646,2.3037,2.3742,2.384,2.3938,2.4249,2.4925,2.5333,2.5235,2.4726,2.4233,2.3737,2.3238,2.2837,2.2552,2.2148,2.2249,2.2552,2.2131,2.2232,2.2653,2.2653,2.2653,2.2653,2.2653,2.2672,2.2843,2.2843,2.2963,2.3134,2.3151,2.3254,2.3391,2.3391,2.3511,2.3597,2.3254,2.3134,2.3169,2.3357,2.3408,2.3443,2.3614,2.3682,2.3631,2.3425,2.2095,2.0986,2.1659,2.1,2.0572,2.1915,2.2285,2.2774,2.3742,2.4008,2.4025,2.4025,2.4179,2.4316,2.4316,2.447,2.459,2.459,2.4744,2.4556,2.3785,2.4347,2.4806,2.4715,2.5647,2.7285,2.9493,2.9746,3.1051,3.3856,3.3345,3.3322,3.4004,3.4004,3.4142,3.4418,3.444,3.4831,3.5566,3.5566,3.5818,1.1388,1.1431,1.1445,1.207,1.2016,1.1751,1.144,1.1266,1.0958,0.9919,0.9543,0.9593,1.0176,1.1859,1.3577,1.479,1.6363,1.7877,1.9401,1.9829,2.024,2.0908,2.1662,2.2304,2.2698,2.2962,2.3338,2.3935,2.4134,2.443,2.4843,2.5333,2.5333,2.4922,2.4332,2.3836,2.3338,2.2924,2.2621,2.2653,2.2519,2.257,2.2672,2.2553,2.2605,2.2894,2.2894,2.2792,2.2792,2.2792,2.2963,2.3237,2.3237,2.3408,2.3665,2.3699,2.3734,2.3785,2.3785,2.3836,2.3905,2.3905,2.3802,2.3682,2.3785,2.3802,2.3802,2.3888,2.3922,2.3871,2.3668,2.2388,2.1261,2.1723,2.1825,2.2116,2.3353,2.3513,2.3767,2.4753,2.5104,2.5258,2.5258,2.5497,2.5703,2.5703,2.5771,2.5823,2.5823,2.6105,2.6022,2.5116,2.5639,2.6127,2.6547,2.788,2.9441,3.1308,3.1869,3.2812,3.4223,3.3958,3.3821,3.3912,3.4303,3.4693,3.5106,3.5497,3.5887,3.6277,3.6277,3.6277,1.1133,1.1327,1.1359,1.1744,1.1778,1.1723,1.1265,1.0898,1.0497,0.9806,0.9543,0.9717,1.0868,1.1982,1.3162,1.4741,1.607,1.7501,1.9007,2.0121,2.0925,2.1319,2.2038,2.2601,2.2601,2.2619,2.2837,2.332,2.4233,2.4843,2.4941,2.4941,2.4941,2.4941,2.4332,2.3836,2.3338,2.3184,2.2895,2.2552,2.2158,2.2324,2.3066,2.2324,2.2595,2.3562,2.3562,2.358,2.3597,2.3562,2.358,2.3614,2.3614,2.3631,2.3665,2.3699,2.3905,2.4179,2.4179,2.4419,2.471,2.471,2.423,2.3734,2.4076,2.4179,2.4247,2.4607,2.471,2.482,2.5318,2.4293,2.3231,2.3667,2.458,2.5456,2.5639,2.5383,2.5162,2.5309,2.5069,2.4864,2.4864,2.4898,2.4915,2.4915,2.5206,2.5429,2.5429,2.6924,2.7995,2.7883,2.7164,2.7056,2.7567,2.8649,3.0079,3.193,3.2559,3.3586,3.5336,3.5336,3.552,3.5979,3.6048,3.6094,3.614,3.6185,3.6231,3.6277,3.6277,3.6277,1.0982,1.1401,1.1701,1.1672,1.2006,1.2133,1.1458,1.0943,1.0526,1.0303,1.0094,1.0362,1.1475,1.2266,1.322,1.4486,1.5334,1.6275,1.7446,1.8752,1.9707,2.0172,2.1417,2.2395,2.302,2.3038,2.3427,2.4583,2.5419,2.5733,2.5661,2.5206,2.4726,2.443,2.4172,2.3693,2.3184,2.3358,2.3374,2.322,2.306,2.3144,2.3443,2.3127,2.3212,2.3682,2.3665,2.3665,2.3682,2.3665,2.3802,2.4008,2.4008,2.4145,2.4367,2.4367,2.447,2.459,2.459,2.483,2.5155,2.5155,2.5104,2.4984,2.4675,2.4744,2.4949,2.5104,2.5309,2.556,2.5975,2.5412,2.4658,2.422,2.4892,2.5652,2.5891,2.5823,2.5703,2.5703,2.5771,2.5823,2.5823,2.6028,2.6182,2.6182,2.6302,2.6741,2.7643,2.8449,2.9219,3.0234,2.9898,2.9865,3.0298,3.1621,3.2749,3.3682,3.4482,3.5222,3.5956,3.5979,3.6071,3.6254,3.6277,3.6277,3.6277,3.6277,3.6277,3.6277,3.6599,3.6736,1.0756,1.1383,1.1843,1.1686,1.2037,1.2335,1.1761,1.1222,1.0798,1.0621,1.0637,1.0913,1.1731,1.2218,1.2838,1.3926,1.4372,1.4991,1.63,1.7615,1.8749,1.9396,2.0965,2.2362,2.3026,2.3673,2.4427,2.5547,2.6083,2.6275,2.6134,2.5301,2.4601,2.418,2.4164,2.379,2.3271,2.3648,2.3785,2.3682,2.3802,2.3853,2.3836,2.3836,2.3905,2.4042,2.4008,2.4008,2.4008,2.4008,2.4162,2.4401,2.4401,2.4573,2.4812,2.4812,2.4898,2.4984,2.4984,2.5223,2.5532,2.5532,2.572,2.584,2.5309,2.5326,2.5532,2.576,2.6294,2.6778,2.6721,2.6655,2.6282,2.5256,2.5541,2.5943,2.6217,2.6268,2.6268,2.6268,2.6491,2.6662,2.6662,2.6884,2.7194,2.7659,2.7762,2.8343,2.9846,3.0529,3.1225,3.224,3.2691,3.2788,3.2685,3.3746,3.4669,3.5223,3.5927,3.6277,3.6277,3.6277,3.6277,3.6277,3.6415,3.6507,3.6507,3.6645,3.6714,3.6736,3.7081,3.7173,1.0509,1.1057,1.1675,1.1825,1.1957,1.2157,1.2267,1.1801,1.1247,1.0723,1.0902,1.1264,1.1465,1.1539,1.1848,1.2861,1.305,1.3842,1.5812,1.7403,1.8692,1.9568,2.1148,2.2327,2.2753,2.4479,2.5566,2.5566,2.5926,2.6153,2.6153,2.5118,2.4491,2.4491,2.4491,2.4298,2.3665,2.4042,2.4042,2.3699,2.4059,2.423,2.423,2.423,2.4436,2.4812,2.4812,2.4812,2.4812,2.4812,2.4812,2.4812,2.4812,2.4812,2.4812,2.4812,2.5052,2.536,2.536,2.5617,2.5925,2.5925,2.5943,2.5943,2.5925,2.5925,2.6041,2.6734,2.7765,2.8559,2.7992,2.8058,2.8119,2.7516,2.7242,2.7056,2.7056,2.7073,2.7073,2.7073,2.7073,2.7073,2.7073,2.7073,2.7659,2.9157,2.9375,2.9963,3.1456,3.3056,3.3979,3.3979,3.5333,3.5685,3.4069,3.4536,3.5245,3.6277,3.6277,3.6277,3.6277,3.6277,3.6277,3.6277,3.6782,3.7035,3.7035,3.7517,3.777,3.777,3.777,3.7517,0.9145,0.9848,1.0341,1.064,1.2138,1.3099,1.1751,1.1114,1.0667,1.0085,1.0795,1.1478,1.1496,1.1783,1.2393,1.3414,1.3457,1.3784,1.5107,1.6893,1.8418,1.9212,2.2108,2.4207,2.4634,2.5614,2.6218,2.638,2.6532,2.6405,2.5829,2.5523,2.5058,2.4526,2.4349,2.4149,2.4059,2.4436,2.4573,2.447,2.459,2.4641,2.4641,2.4641,2.471,2.4812,2.4812,2.4675,2.4436,2.471,2.4658,2.4436,2.471,2.4984,2.5189,2.5189,2.577,2.6329,2.5869,2.6226,2.6889,2.642,2.6727,2.7292,2.7292,2.7099,2.7176,2.8048,2.8941,2.9408,2.8824,2.87,2.8674,2.7944,2.7452,2.7073,2.7073,2.7073,2.7073,2.7073,2.7073,2.7418,2.8462,2.8683,2.9157,3.0762,3.0994,3.1552,3.3056,3.3733,3.4425,3.5466,3.6356,3.6424,3.5598,3.5708,3.5927,3.6277,3.6277,3.6438,3.6782,3.6782,3.6966,3.7311,3.7471,3.754,3.754,3.7356,3.7265,3.7265,3.7265,3.7604,0.8175,0.9113,0.9823,1.005,1.1414,1.2463,1.1222,1.0719,1.0314,0.9631,1.0485,1.1256,1.0977,1.1243,1.1867,1.2796,1.2713,1.2962,1.4379,1.6465,1.8483,2.0348,2.2925,2.4839,2.5599,2.6179,2.6576,2.6778,2.6755,2.6406,2.5789,2.5459,2.5138,2.4648,2.4442,2.4453,2.4453,2.4693,2.4812,2.4812,2.4812,2.4812,2.4812,2.4812,2.4812,2.4812,2.4812,2.4675,0.0,2.4864,2.4881,2.4693,2.5086,2.5378,2.5583,2.5583,2.6284,2.7062,2.6598,2.7094,2.8002,2.7529,2.7825,2.8379,2.8618,2.8555,2.8527,2.9139,2.9804,3.0176,2.9823,2.9587,2.9213,2.8498,2.79,2.7435,2.7194,2.7073,2.7073,2.7073,2.7073,2.7418,2.8701,2.9268,3.0291,3.2044,3.2765,3.3696,3.5197,3.5445,3.5781,3.6718,3.7127,3.7196,3.6874,3.6851,3.6851,3.6851,3.6851,3.6989,3.7311,3.7311,3.7379,3.7494,3.7701,3.7701,3.7494,3.7379,3.7425,3.7632,3.7834,3.8335,0.0,0.8676,0.9651,0.9754,1.0079,1.0451,1.0604,1.0425,0.0,0.932,1.0079,1.069,1.0123,1.0123,1.0561,1.1368,1.1217,1.174,1.3864,1.6067,1.8848,2.2532,2.3694,2.4603,2.5664,2.6442,2.6729,2.6767,2.6569,2.6227,2.5679,2.5145,2.4812,2.4812,2.4812,2.4812,2.4812,2.4812,2.4812,2.4812,2.4812,2.4812,2.4778,2.4812,2.4812,2.4778,2.483,2.4847,2.4847,2.5241,2.5395,2.5412,2.5788,2.596,2.5977,2.5977,2.6667,2.7452,2.7452,2.8174,2.9094,2.9094,2.9094,2.9213,2.9804,2.9922,2.9922,2.9922,3.0411,3.0898,3.0898,3.0411,2.9686,2.9094,2.8498,2.7779,2.7194,2.7073,2.709,2.7228,2.7228,2.747,2.8331,2.9545,3.1069,3.3285,3.4825,3.617,3.7565,3.7678,3.7678,3.7678,3.7701,3.7724,3.7724,3.777,3.777,3.7747,3.7724,3.7724,3.7724,3.7724,3.754,3.7104,3.7586,3.7586,3.7081,3.7632,3.8251,3.8689,3.9265,3.9608,0.6758,0.0,0.7726,0.8408,0.8535,0.8557,0.0,0.8975,0.8942,0.9045,0.9793,1.0404,1.0178,0.9987,1.0425,1.2005,1.2067,1.2599,1.4488,1.7398,2.0533,2.3535,2.4697,2.556,2.6427,2.6646,2.6523,2.5955,2.5954,2.5679,2.5034,2.4923,2.4812,2.4812,2.4812,2.4812,2.4812,2.4812,2.4812,2.4812,2.4812,2.4658,2.4384,2.4675,2.4658,2.4401,2.4984,2.5086,2.4864,2.5532,2.5634,2.5412,2.5788,2.6114,2.6354,2.6924,2.7776,2.8592,2.8592,2.9139,2.9686,2.9686,2.9686,2.9804,3.0411,3.0294,3.0039,3.0528,3.0762,3.0898,3.0898,3.0058,2.9213,2.8975,2.814,2.7315,2.7073,2.7073,2.7401,2.8166,2.8359,2.9265,3.2078,3.2912,3.3817,3.5801,3.6432,3.6611,3.6668,3.6622,3.6622,3.6622,3.6966,3.7219,3.7219,3.7563,3.7609,3.7242,3.7219,3.7219,3.7219,3.7219,3.7333,3.7609,3.8137,3.8137,3.7609,3.908,3.9614,3.9356,4.033,4.1094,0.6792,0.7033,0.741,0.7896,0.7931,0.7934,0.8388,0.8527,0.8569,0.8722,0.9396,0.9903,0.9852,1.023,1.0966,1.2132,1.2634,1.3583,1.5888,1.8419,2.0851,2.3178,2.447,2.5252,2.5663,2.6114,2.5992,2.5093,2.5459,2.5476,2.4812,2.4812,2.4812,2.4812,2.4812,2.4812,2.4812,2.4812,2.4812,2.4812,2.4641,2.4538,2.4504,2.4538,2.4624,2.4778,2.5189,2.536,2.5378,2.596,2.6062,2.5925,2.6302,2.6576,2.6867,2.7445,2.8181,2.8975,2.9331,2.9804,3.0411,3.0411,3.0411,3.0411,3.0782,3.0645,3.0411,3.0762,3.0898,3.0782,3.0528,2.9941,2.9331,2.9094,2.8402,2.78,2.78,2.794,2.8237,2.8818,2.9097,2.9981,3.2574,3.3443,3.4297,3.6162,3.6995,3.7288,3.6989,3.6966,3.7058,3.7311,3.7586,3.7839,3.8068,3.855,3.8413,3.7448,3.7379,3.7494,3.7747,3.7747,3.7976,3.8481,3.878,3.878,3.8481,3.9709,4.0198,3.98,4.1118,4.1834,0.7214,0.7569,0.7892,0.7817,0.7814,0.7892,0.8334,0.8431,0.8409,0.8516,0.8988,0.9503,0.9714,1.0606,1.1626,1.2311,1.324,1.4782,1.7399,1.9069,2.0767,2.2739,2.3931,2.4633,2.4663,2.5248,2.5348,2.4445,2.5128,2.5366,2.4812,2.4812,2.4812,2.4812,2.4812,2.4795,2.4727,2.4727,2.4727,2.4727,2.4401,2.4401,2.4727,2.4504,2.4761,2.5378,2.5497,2.572,2.6045,2.6422,2.6576,2.661,2.6936,2.7194,2.7315,2.79,2.8618,2.9213,2.9804,3.0411,3.0898,3.0898,3.0898,3.0898,3.0957,3.0996,3.0996,3.1074,3.1035,3.0859,3.0252,3.0073,2.9874,2.9278,2.8931,2.8658,2.8605,2.8959,2.9315,2.9439,2.966,3.0426,3.2217,3.3341,3.455,3.5998,3.7337,3.8114,3.8022,3.8022,3.8183,3.8642,3.8688,3.8872,3.9262,3.9698,3.94,3.8091,3.8091,3.8298,3.8688,3.8688,3.8849,3.9193,3.938,3.938,3.9288,4.0246,4.069,4.069,4.1915,4.2535,0.7876,0.8194,0.8312,0.7903,0.7698,0.7722,0.8151,0.7982,0.7896,0.8545,0.8937,0.9557,1.0944,1.1213,1.1815,1.332,1.4448,1.5971,1.8544,1.9622,2.121,2.4018,2.4757,2.5147,2.5428,2.5643,2.5459,2.4812,2.4812,2.4923,2.4812,2.4812,2.4812,2.4812,2.4812,2.4658,2.4333,2.4316,2.4316,2.4316,2.4264,2.4264,2.4333,2.4932,2.5258,2.5395,2.6045,2.6354,2.6439,2.6816,2.6987,2.6987,2.7056,2.7435,2.79,2.8618,2.9213,2.9804,3.0528,3.0762,3.0898,3.0898,3.0898,3.0957,3.1309,3.1426,3.1504,3.1875,3.1699,3.1426,3.1287,3.0698,3.0107,2.9984,2.9527,2.8977,2.8658,2.913,2.9654,3.0279,3.1046,3.2276,3.47,3.6264,3.7502,3.8589,3.9259,3.9561,3.9124,3.9078,3.9101,3.917,3.9193,3.9216,3.9285,3.9377,3.9331,3.9078,3.9469,3.9561,3.9216,3.9193,3.9033,3.8711,3.9546,3.9895,3.945,4.148,4.2519,4.2519,4.3681,4.4252,0.754,0.7752,0.7946,0.8281,0.872,0.9096,0.9152,1.0001,1.0645,1.02,1.0654,1.1224,1.1765,1.2679,1.3967,1.5845,1.6713,1.7669,1.9361,2.0373,2.1538,2.2984,2.3866,2.4241,2.3838,2.4223,2.4334,2.3999,2.4479,2.4812,2.4812,2.4812,2.4812,2.4812,2.4607,2.4419,2.423,2.4042,2.4042,2.423,2.423,2.4453,2.4864,2.5206,2.5583,2.5994,2.6336,2.661,2.6816,2.7004,2.7073,2.7073,2.7435,2.7779,2.814,2.9094,2.9922,3.0528,3.0762,3.0898,3.0937,3.1152,3.123,3.1309,3.1738,3.1699,3.1562,3.1758,3.1836,3.1696,3.1223,3.0438,2.9904,3.0065,2.9428,2.9046,2.9477,3.0278,3.1162,3.2215,3.299,3.4409,3.6803,3.7396,3.7814,3.8801,3.8872,3.8734,3.8504,3.8481,3.8596,3.8895,3.8918,3.9033,3.9285,3.9561,3.9607,3.9331,3.9515,3.9538,3.9308,3.9561,3.9607,3.9377,4.0455,4.1093,4.114,4.2923,4.3757,4.3757,4.4618,4.5095,0.7186,0.7401,0.7768,0.8611,0.9308,0.989,1.0067,1.1417,1.2439,1.1689,1.2241,1.2741,1.2711,1.4379,1.6175,1.7652,1.8427,1.9171,2.0021,2.1296,2.218,2.2371,2.3553,2.3904,2.2846,2.3328,2.3776,2.3776,2.4351,2.4812,2.4812,2.4812,2.4778,2.4675,2.4384,2.4145,2.3973,2.3871,2.3956,2.423,2.4333,2.4761,2.5515,2.5583,2.5994,2.6628,2.6628,2.6799,2.7073,2.7073,2.7073,2.7194,2.7659,2.802,2.8379,2.9686,3.0411,3.0898,3.0996,3.1035,3.1113,3.1543,3.1601,3.1601,3.2031,3.1855,3.1543,3.1641,3.1973,3.2066,3.106,3.0381,2.9999,3.0162,2.9878,2.9719,3.0607,3.1865,3.3,3.3828,3.4841,3.6072,3.7923,3.794,3.8033,3.8778,3.8688,3.8504,3.8504,3.8504,3.8711,3.9239,3.9285,3.9492,3.9974,4.0364,4.0433,4.0043,3.979,3.9652,3.9652,4.0158,4.0485,4.0468,4.1583,4.2394,4.3065,4.4159,4.4833,4.4957,4.5435,4.5623,0.7549,0.7881,0.8286,0.8792,0.847,0.8549,1.0426,1.0356,1.0409,1.1915,1.2557,1.3147,1.41,1.5948,1.7251,1.7101,1.8461,1.9806,2.0751,2.2228,2.3364,2.3911,2.4959,2.5331,2.4701,2.4701,2.4701,2.4701,2.4701,2.4812,2.4812,2.4812,2.4658,2.4282,2.4247,2.3905,2.3203,2.3853,2.4213,2.423,2.4607,2.5172,2.5908,2.6251,2.6628,2.7039,2.7039,2.7056,2.7073,2.7073,2.7073,2.7073,2.7194,2.7917,2.9094,3.0411,3.0898,3.0937,3.1328,3.1465,3.1543,3.1973,3.1855,3.1601,3.2031,3.1855,3.1601,3.2012,3.2422,3.2559,3.1618,3.1194,3.0973,3.1058,3.1558,3.2049,3.1797,3.3611,3.5123,3.4473,3.5721,3.7148,3.731,3.8376,3.9281,3.9882,4.0318,4.0594,4.0594,4.0594,4.08,4.1306,4.1352,4.1558,4.2086,4.2155,4.2155,4.2132,4.1237,4.0709,4.0709,4.1191,4.1607,4.1727,4.283,4.3723,4.435,4.5116,4.5629,4.613,4.625,4.5974,0.6952,0.7418,0.8204,0.9174,0.917,0.934,1.1041,1.2434,1.3464,1.3891,1.4385,1.4977,1.5618,1.6912,1.7933,1.8303,1.9223,2.0622,2.2425,2.3038,2.3583,2.4309,2.4648,2.4556,2.3999,2.3888,2.4128,2.4701,2.4812,2.471,2.447,2.4453,2.4282,2.3888,2.3665,2.3408,2.3117,2.3853,2.435,2.4607,2.5223,2.5788,2.6285,2.6679,2.6936,2.7073,2.7073,2.7073,2.7073,2.7073,2.7073,2.7194,2.8037,2.9094,3.0332,3.0936,3.1269,3.1348,3.1777,3.1738,3.1582,3.2031,3.1875,3.1601,3.2031,3.2051,3.1953,3.2129,3.248,3.2656,3.207,3.1931,3.1979,3.2104,3.2047,3.2218,3.3184,3.4164,3.5231,3.6389,3.7451,3.8363,3.9281,3.987,4.0318,4.0502,4.0686,4.0938,4.1237,4.1283,4.1489,4.1994,4.204,4.2132,4.2316,4.2339,4.2201,4.188,4.1512,4.1443,4.1742,4.2001,4.235,4.2838,4.4036,4.4744,4.5132,4.5735,4.61,4.6301,4.6301,4.6376,0.6577,0.7094,0.8013,0.9292,0.9913,1.0504,1.19,1.3534,1.485,1.5295,1.5732,1.6063,1.6364,1.7491,1.8476,1.8846,2.0066,2.1582,2.322,2.361,2.4008,2.4613,2.4758,2.4556,2.3888,2.3888,2.4078,2.4531,2.4641,2.447,2.4076,2.4059,2.3888,2.3511,2.3237,2.3117,2.3117,2.3973,2.4607,2.5001,2.5874,2.6422,2.6679,2.6953,2.7073,2.7073,2.7073,2.7073,2.7073,2.7315,2.7556,2.7797,2.8618,2.978,3.0878,3.1287,3.1523,3.1582,3.2012,3.1875,3.1582,3.2031,3.1875,3.1601,3.2031,3.207,3.1992,3.2129,3.248,3.2734,3.2441,3.2545,3.2604,3.2572,3.2669,3.3093,3.4227,3.5169,3.6321,3.7989,3.8831,3.9701,4.0838,4.1053,4.1053,4.1053,4.1053,4.1122,4.1306,4.1329,4.1512,4.1971,4.2201,4.2454,4.2775,4.2706,4.25,4.2155,4.2177,4.2186,4.2108,4.242,4.2962,4.3664,4.4841,4.5527,4.5944,4.6309,4.6652,4.6828,4.6828,4.7029,0.6669,0.71,0.7822,0.9208,1.0547,1.184,1.2948,1.3227,1.3814,1.5858,1.6273,1.6273,1.6273,1.7876,1.8962,1.8193,2.0645,2.2753,2.277,2.3845,2.4742,2.5005,2.5448,2.5476,2.4812,2.4812,2.4658,2.4264,2.423,2.4059,2.3682,2.3665,2.3494,2.3117,2.3117,2.3117,2.3117,2.4247,2.5001,2.5378,2.6525,2.7073,2.7073,2.7073,2.7073,2.7073,2.7073,2.7073,2.7194,2.7779,2.8379,2.8993,2.8993,2.9711,3.0686,3.1285,3.1523,3.1582,3.2012,3.1875,3.1582,3.2012,3.1875,3.1601,3.2031,3.1875,3.1621,3.2051,3.248,3.2812,3.2793,3.2812,3.2695,3.2285,3.3554,3.4922,3.4942,3.7228,3.9147,3.9147,4.0039,4.0984,4.1489,4.1581,4.1581,4.1581,4.1581,4.1397,4.0892,4.0846,4.0984,4.1306,4.1948,4.2752,4.3716,4.3533,4.3349,4.3349,4.3345,4.2879,4.1821,4.2315,4.3187,4.4495,4.5036,4.5944,4.7154,4.7154,4.7405,4.7908,4.7908,4.7908,0.6721,0.7565,0.8676,1.0159,1.1263,1.2441,1.4064,1.4603,1.5044,1.6059,1.6273,1.6339,1.654,1.754,1.8459,1.8373,2.0173,2.2002,2.3262,2.361,2.423,2.5502,2.5339,2.5034,2.4812,2.4573,2.4367,2.4247,2.399,2.3665,2.3306,2.3271,2.31,2.2723,2.2723,2.2843,2.3117,2.4247,2.5001,2.5378,2.6525,2.7073,2.7073,2.7073,2.7073,2.7073,2.7073,2.7315,2.7779,2.9057,2.9648,2.9724,3.068,3.113,3.1304,3.1735,3.1973,3.1992,3.2129,3.1875,3.1543,3.168,3.1621,3.1543,3.168,3.2051,3.2441,3.2578,3.3125,3.3633,3.332,3.3961,3.4644,3.4524,3.4936,3.583,3.7524,3.8313,3.912,4.0118,4.0555,4.0869,4.1007,4.1329,4.1581,4.1581,4.188,4.2063,4.1903,4.25,4.2959,4.3074,4.3257,4.3487,4.3785,4.3716,4.3671,4.3671,4.4477,4.4617,4.3443,4.4415,4.5427,4.6191,4.6836,4.7258,4.7682,4.7682,4.7757,4.7908,4.7908,4.7908,0.7451,0.8321,0.9464,1.113,1.2209,1.3277,1.5124,1.5712,1.5979,1.6219,1.6366,1.646,1.6526,1.7538,1.8323,1.8581,2.0238,2.1964,2.3198,2.3492,2.4032,2.5162,2.5033,2.4812,2.4812,2.447,2.4162,2.4025,2.3665,2.3288,2.2912,2.2895,2.2792,2.2653,2.2653,2.2809,2.3323,2.4316,2.5086,2.56,2.6593,2.7073,2.7073,2.7073,2.7194,2.7418,2.7797,2.8379,2.9294,2.9648,3.0236,3.0879,3.119,3.1484,3.1562,3.2012,3.2051,3.1914,3.1914,3.1738,3.1523,3.1523,3.1641,3.1816,3.1973,3.2383,3.2832,3.2988,3.3535,3.4132,3.4239,3.5006,3.5799,3.5616,3.6206,3.7189,3.8935,3.9444,3.9769,4.0884,4.1122,4.1237,4.165,4.1971,4.2201,4.227,4.2316,4.2339,4.2339,4.2867,4.3234,4.3234,4.3234,4.3234,4.3234,4.3969,4.4428,4.4428,4.5277,4.5596,4.4944,4.591,4.671,4.7307,4.7658,4.7908,4.7908,4.7908,4.8033,4.8259,4.8259,4.8485,0.8484,0.9291,1.0251,1.2145,1.317,1.4229,1.5899,1.6473,1.6593,1.6366,1.65,1.6593,1.6451,1.7601,1.8612,1.8798,2.075,2.2318,2.2756,2.3408,2.4007,2.442,2.4642,2.4761,2.4761,2.4419,2.4025,2.3648,2.3271,2.2912,2.267,2.2653,2.2653,2.2653,2.2653,2.2912,2.3648,2.4436,2.5189,2.5943,2.6713,2.7073,2.7073,2.7073,2.7435,2.802,2.8737,2.9903,3.1169,2.9903,3.0509,3.2214,3.1229,3.1165,3.1621,3.1973,3.1855,3.1523,3.1523,3.1523,3.1523,3.1562,3.1875,3.2305,3.2676,3.2832,3.293,3.3359,3.3769,3.4339,3.5509,3.607,3.6403,3.6181,3.7417,3.8886,3.9499,4.0253,4.103,4.1535,4.165,4.1926,4.2867,4.3028,4.3074,4.3234,4.2729,4.2339,4.2339,4.25,4.2614,4.2614,4.2614,4.2614,4.2614,4.4556,4.5754,4.5754,4.6192,4.6311,4.6311,4.6876,4.7381,4.8058,4.8008,4.8033,4.8134,4.8134,4.8435,4.8987,4.8987,4.954,0.8792,0.9876,1.1063,1.2376,1.3854,1.5244,1.6086,1.6326,1.642,1.658,1.6486,1.6616,1.7372,1.7669,1.8224,1.9271,2.0331,2.1243,2.225,2.269,2.3384,2.4384,2.4399,2.4367,2.4367,2.4008,2.3631,2.3254,2.2877,2.2638,2.2552,2.2653,2.2653,2.2653,2.2653,2.2912,2.3648,2.4436,2.5189,2.5943,2.6713,2.7073,2.7073,2.7073,2.7435,2.802,2.9213,3.0255,3.1401,3.2207,3.2662,3.2758,3.3306,3.2869,3.1992,3.1758,3.1601,3.1523,3.1523,3.1523,3.1582,3.1914,3.2305,3.2676,3.2773,3.3027,3.3379,3.3809,3.4004,3.4398,3.5747,3.6808,3.7721,3.889,3.9176,3.9521,4.0785,4.1273,4.1558,4.2063,4.2178,4.2247,4.2454,4.25,4.25,4.2545,4.2431,4.2339,4.2339,4.3716,4.4704,4.4704,4.4704,4.4704,4.4704,4.7209,4.8682,4.8682,4.8719,4.8853,4.8853,4.8432,4.8509,4.9213,4.8812,4.9012,4.9866,4.9866,5.0167,5.0745,5.0745,5.087,0.9295,1.0543,1.1847,1.3566,1.4728,1.5591,1.6313,1.6259,1.6179,1.662,1.6473,1.637,1.6773,1.7465,1.8225,1.905,2.0103,2.1063,2.2043,2.2504,2.2997,2.3966,2.4049,2.4025,2.4213,2.3734,2.3323,2.3134,2.2758,2.2653,2.2653,2.2653,2.2653,2.2653,2.2653,2.2912,2.3648,2.4436,2.5189,2.5943,2.6713,2.7194,2.7556,2.79,2.814,2.8618,3.0255,3.1536,3.2457,3.3028,3.3372,3.3485,3.3361,3.2654,3.1836,3.1601,3.1523,3.1523,3.1523,3.1777,3.2168,3.2402,3.2754,3.3125,3.334,3.3555,3.3828,3.4258,3.4902,3.5751,3.7011,3.8274,3.9558,4.0845,4.0783,4.0683,4.1708,4.1948,4.2017,4.2293,4.2591,4.2729,4.2408,4.2339,4.2339,4.2339,4.3165,4.3785,4.3785,4.4704,4.537,4.537,4.537,4.6421,4.8779,5.0369,5.1197,5.1197,5.1197,5.1197,5.1197,5.082,5.0469,5.0117,5.0017,5.0268,5.082,5.082,5.1122,5.1674,5.1674,5.1825,0.9592,1.0934,1.2492,1.4763,1.5324,1.5565,1.65,1.6246,1.5992,1.658,1.6433,1.6222,1.6157,1.7138,1.8164,1.8888,1.9985,2.0989,2.1854,2.2259,2.2711,2.346,2.358,2.3699,2.4008,2.3477,2.3083,2.3014,2.2723,2.2653,2.2653,2.2653,2.2653,2.2653,2.2705,2.2963,2.3665,2.4487,2.5258,2.5943,2.6833,2.7556,2.802,2.8975,2.945,2.945,3.1421,3.2799,3.384,3.3277,3.358,3.4064,3.2854,3.1956,3.1523,3.1523,3.1523,3.1543,3.168,3.2207,3.2812,3.2871,3.3184,3.3594,3.3965,3.4121,3.4277,3.4707,3.585,3.7164,3.8161,3.9541,4.1013,4.2084,4.2017,4.1834,4.2247,4.2339,4.2339,4.2339,4.2936,4.3188,4.2454,4.2339,4.2454,4.2798,4.429,4.5484,4.5829,4.5875,4.5875,4.5875,4.6424,4.8338,5.2504,5.2929,5.2929,5.2929,5.2929,5.2929,5.2929,5.2929,5.2352,5.1096,5.1297,5.1473,5.1574,5.1574,5.18,5.2251,5.2251,5.2503,0.92,1.0824,1.2692,1.4549,1.5017,1.5311,1.6446,1.6246,1.5992,1.658,1.6273,1.6252,1.7527,1.7419,1.7777,1.982,1.9729,1.9903,2.1302,2.1552,2.1999,2.3066,2.3186,2.3203,2.3254,2.3169,2.298,2.2638,2.267,2.2653,2.2653,2.2653,2.2653,2.2653,2.286,2.3237,2.3665,2.4744,2.5515,2.5943,2.7292,2.79,2.802,3.0119,3.0937,3.1053,3.1883,3.3119,3.4714,3.4197,3.4137,3.4159,3.3197,3.2255,3.1523,3.1523,3.1523,3.1621,3.2363,3.2695,3.2851,3.3223,3.3633,3.4004,3.4062,3.4336,3.4707,3.5176,3.609,3.7115,3.7922,3.9235,4.0603,4.1934,4.2293,4.2247,4.2316,4.2339,4.2339,4.2339,4.3096,4.3441,4.25,4.2339,4.2936,4.4681,4.5186,4.5989,4.7757,4.7987,4.7987,4.7987,5.0379,5.2192,5.2904,5.2929,5.2929,5.2929,5.2929,5.2929,5.2929,5.2929,5.2829,5.2628,5.2201,5.2226,5.2703,5.2703,5.2754,5.2829,5.2829,5.2854,1.0301,1.1633,1.2946,1.4563,1.4963,1.5231,1.6233,1.6139,1.5992,1.658,1.6621,1.6669,1.7326,1.7512,1.8071,1.9471,1.9745,2.018,2.1207,2.1405,2.1833,2.298,2.2929,2.2877,2.31,2.2929,2.2723,2.2552,2.2653,2.2653,2.2653,2.2653,2.2653,2.2653,2.2912,2.3288,2.3665,2.4795,2.6002,2.7033,2.7741,2.86,2.9884,3.082,3.1285,3.1401,3.2985,3.4285,3.5244,3.4533,3.4423,3.454,3.2768,3.2018,3.1855,3.1601,3.1816,3.2266,3.2559,3.2871,3.3184,3.3359,3.3769,3.4387,3.559,3.5872,3.6062,3.6789,3.7819,3.876,3.8708,4.0345,4.2001,4.2303,4.2339,4.2637,4.3785,4.3142,4.2683,4.3808,4.4382,4.4543,4.4107,4.4979,4.6035,4.6931,4.7046,4.739,4.8286,4.84,4.9101,5.0813,5.2074,5.2929,5.2929,5.2929,5.2929,5.2929,5.2929,5.2929,5.2929,5.2929,5.2929,5.2929,5.2678,5.2678,5.2929,5.2929,5.2929,5.2929,5.2929,5.2929,1.0811,1.1797,1.2647,1.4135,1.4576,1.4897,1.5925,1.5925,1.5885,1.6473,1.6856,1.7044,1.7232,1.7885,1.8643,1.9379,2.0012,2.0668,2.1319,2.149,2.1901,2.286,2.2723,2.2655,2.2946,2.2706,2.2653,2.2653,2.2653,2.2653,2.2653,2.2653,2.2687,2.2689,2.3066,2.3425,2.3802,2.4949,2.6493,2.8361,2.848,2.9592,3.1451,3.2031,3.2125,3.2158,3.4199,3.5312,3.5575,3.4748,3.4477,3.4337,3.2475,3.1816,3.1992,3.1836,3.2187,3.2734,3.2773,3.3066,3.3418,3.3418,3.3867,3.4733,3.6192,3.7061,3.7674,3.8138,3.9167,3.9692,3.8639,4.0892,4.3395,4.3165,4.3096,4.351,4.5025,4.4176,4.3556,4.5071,4.5783,4.6127,4.6127,4.739,4.84,4.84,4.84,4.84,4.84,4.84,4.9532,5.2654,5.2929,5.2929,5.2929,5.2929,5.2929,5.2929,5.2929,5.2929,5.2929,5.2929,5.2929,5.2929,5.2929,5.2929,5.2929,5.2929,5.2929,5.2929,5.2929,5.2929,0.9761,1.0434,1.1102,1.2866,1.3507,1.4082,1.5524,1.5631,1.5591,1.6179,1.6703,1.7232,1.79,1.8643,1.9379,2.011,2.06,2.0977,2.1353,2.173,2.2124,2.2518,2.2552,2.2653,2.2569,2.2653,2.2653,2.2653,2.2653,2.2653,2.2653,2.2653,2.2706,2.3066,2.3443,2.3819,2.4196,2.5343,2.7087,2.9375,2.9963,3.0797,3.1911,3.3806,3.445,3.4076,3.5245,3.5644,3.5575,3.5134,3.4253,3.2983,3.2334,3.1894,3.1621,3.2285,3.2539,3.2656,3.3184,3.3398,3.3418,3.3418,3.3984,3.4687,3.4838,3.6861,3.9146,3.9167,3.9167,3.8772,3.6674,3.9982,4.4015,4.4979,4.5209,4.5232,4.5347,4.5278,4.5232,4.5347,4.6908,4.824,4.824,4.8331,4.84,4.84,4.84,4.84,4.84,4.84,4.9532,5.2654,5.2929,5.2929,5.2929,5.2929,5.2929,5.2929,5.2929,5.2929,5.2929,5.2929,5.2929,5.2929,5.2929,5.2929,5.2929,5.2929,5.2929,5.2929,5.2929,5.2929,0.9748,1.0474,1.1076,1.2091,1.2999,1.3911,1.5071,1.5777,1.6317,1.7116,1.7867,1.8535,1.8735,1.9012,1.9471,2.0201,2.0617,2.1011,2.1353,2.1747,2.2124,2.2501,2.2653,2.2653,2.2653,2.2653,2.2653,2.2653,2.2653,2.2653,2.2653,2.2653,2.2723,2.31,2.3494,2.4213,2.5309,2.6964,2.8486,2.9963,3.1245,3.254,3.3874,3.3935,3.4444,3.5067,3.5157,3.5381,3.5575,3.4233,3.3396,3.2921,3.2038,3.1699,3.1699,3.2344,3.2812,3.3144,3.3359,3.3418,3.3613,3.4726,3.5293,3.6063,3.8786,3.9433,3.943,4.0755,4.1142,4.1302,4.1878,4.3421,4.4887,4.5278,4.537,4.5714,4.7023,4.7298,4.7298,4.7298,4.7895,4.84,4.84,4.84,4.84,4.84,4.84,4.84,4.84,5.0104,5.1656,5.2792,5.2929,5.2929,5.2929,5.2929,5.2929,5.2929,5.2929,5.2929,5.2929,5.2929,5.2929,5.2929,5.2929,5.2929,5.2929,5.2929,5.2929,5.2929,5.2929,5.2929,0.957,1.01,1.0635,1.1623,1.2238,1.2997,1.4699,1.5375,1.6096,1.732,1.8333,1.9034,1.9163,1.9379,1.9745,2.0201,2.072,2.1148,2.1371,2.185,2.2278,2.2619,2.2653,2.2653,2.2653,2.2653,2.2653,2.2653,2.2653,2.2653,2.2653,2.2672,2.2963,2.3477,2.399,2.5017,2.6699,2.8095,2.9757,3.1572,3.2457,3.363,3.5109,3.425,3.4401,3.531,3.455,3.4562,3.4876,3.3575,3.3008,3.2653,3.1978,3.1836,3.207,3.2637,3.3281,3.3848,3.3848,3.4043,3.4492,3.5644,3.6016,3.6809,4.1013,4.1293,4.0495,4.1934,4.2821,4.3671,4.5002,4.537,4.5438,4.5783,4.5599,4.5829,4.7528,4.8148,4.84,4.84,4.84,4.84,4.84,4.84,4.84,4.84,4.84,4.8812,4.9818,5.1656,5.2929,5.2929,5.2929,5.2628,5.1875,5.18,5.18,5.18,5.2503,5.2929,5.2929,5.2929,5.2929,5.2929,5.2929,5.2929,5.2929,5.2929,5.2929,5.2929,5.2929,5.2929,0.0,0.0,0.0,1.1369,1.1236,1.1384,1.4273,1.4545,1.4684,1.669,1.7827,1.871,1.9115,1.9837,2.0292,2.0292,2.0925,2.1405,2.1405,2.2073,2.2653,2.2653,2.2653,2.2653,2.2653,2.2653,2.2653,2.2653,2.2653,2.2653,2.2552,2.2929,2.3477,2.4213,2.4984,2.6328,2.8145,2.867,3.0675,3.3957,3.3483,3.4053,3.5436,3.4553,3.4406,3.4668,3.3413,3.3048,3.3435,3.3534,3.2955,3.2148,3.2168,3.2344,3.2637,3.3223,3.3984,3.4707,3.4726,3.5293,3.6016,3.6016,3.6016,3.6809,4.1013,4.2339,4.2362,4.2408,4.3831,4.537,4.537,4.5393,4.5691,4.6678,4.6173,4.5714,4.6701,4.7689,4.84,4.84,4.84,4.84,4.84,4.84,4.8377,4.8308,4.8308,4.9438,5.2416,5.2829,5.2829,5.2829,5.2829,5.1975,4.9866,4.969,4.969,4.969,5.1724,5.2929,5.2929,5.2929,5.2929,5.2929,5.2929,5.2929,5.2929,5.2929,5.2929,5.2929,5.2929,5.2929,0.8791,0.0,0.0,0.0,0.0,0.0,1.2909,1.3531,1.4544,1.7169,1.7979,1.8532,1.9799,2.0201,2.0292,2.0292,2.0925,2.1405,2.1405,2.2073,2.2653,2.2653,2.2653,2.2653,2.2653,2.2653,2.2653,2.2653,2.2937,2.3059,2.2946,2.358,2.4025,2.423,2.5691,2.7068,2.8145,3.0443,3.2365,3.3957,3.3967,3.436,3.5044,3.3492,3.3142,3.3776,3.2874,3.2413,3.2492,3.2176,3.1919,3.1738,3.2051,3.2344,3.2695,3.3691,3.4336,3.4785,3.543,3.582,3.6016,3.6016,3.6016,3.6809,4.1013,4.2339,4.2637,4.4107,4.4933,4.537,4.537,4.6449,4.762,4.7918,4.7757,4.762,4.7918,4.8194,4.84,4.84,4.84,4.84,4.84,4.84,4.7895,4.6426,4.6196,4.7275,5.0124,5.0519,5.0519,5.0519,5.0519,5.0921,5.1925,5.2,5.2,5.2,5.2578,5.2929,5.2929,5.2929,5.2929,5.2929,5.2929,5.2929,5.2929,5.2929,5.2929,5.2929,5.2929,5.2929,0.0,0.0,0.0,1.0141,0.0,0.0,1.3097,1.3561,1.4369,1.7216,1.8026,1.8579,1.9641,2.0248,2.0512,2.0338,2.0963,2.1423,2.1388,2.2132,2.2663,2.2619,2.2653,2.2653,2.2653,2.2653,2.2636,2.2837,2.3278,2.3715,2.3966,2.4098,2.4367,2.4693,2.5839,2.7477,2.9408,3.1325,3.2859,3.4141,3.4229,3.4229,3.4053,3.2695,3.2615,3.317,3.2236,3.1894,3.1875,3.1621,3.1621,3.1836,3.2266,3.2637,3.3027,3.3887,3.4414,3.4805,3.5508,3.64,3.7213,3.6287,3.6016,3.6809,4.1013,4.2936,4.3854,4.5025,4.537,4.5553,4.6403,4.7505,4.84,4.84,4.84,4.84,4.84,4.84,4.84,4.84,4.84,4.8125,4.7275,4.7138,4.6724,4.553,4.6405,4.7738,4.9332,4.959,4.9941,5.0896,5.0996,5.1523,5.2829,5.2929,5.2929,5.2929,5.2929,5.2929,5.2929,5.2929,5.2929,5.2929,5.2929,5.2929,5.2929,5.2929,5.2929,5.2929,5.2929,5.2929,0.9588,0.9799,0.0,1.1416,1.1004,0.0,1.3777,1.3907,1.4146,1.6716,1.7711,1.8271,1.887,1.9905,2.0536,2.0201,2.0836,2.1432,2.138,2.2101,2.26,2.255,2.2518,2.2653,2.2653,2.2653,2.2837,2.3238,2.3746,2.4399,2.5255,2.459,2.4624,2.5457,2.5852,2.7682,3.091,3.1466,3.2621,3.4097,3.3988,3.3573,3.2865,3.2333,3.2322,3.2747,3.1939,3.1562,3.1642,3.1562,3.1816,3.2207,3.2637,3.3086,3.3535,3.3984,3.4414,3.4844,3.5426,3.7136,3.8772,3.7193,3.6714,3.7583,4.1691,4.4055,4.537,4.5507,4.5438,4.5829,4.7872,4.84,4.84,4.84,4.84,4.84,4.84,4.84,4.8331,4.8102,4.8056,4.7482,4.5668,4.537,4.5506,4.5754,4.8002,4.969,4.9941,4.9967,5.072,5.2729,5.2929,5.2929,5.2929,5.2929,5.2929,5.2929,5.2929,5.2929,5.2929,5.2929,5.2929,5.2929,5.2929,5.2929,5.2929,5.2929,5.2929,5.2929,5.2929,5.2929,1.1314,1.1539,1.1751,1.1417,1.2027,0.0,1.2043,1.2462,1.3471,1.4917,1.5121,1.5548,1.7449,1.825,1.8525,1.8456,1.9677,2.0819,2.1432,2.1848,2.212,2.209,2.2364,2.2653,2.2653,2.2937,2.3238,2.332,2.3994,2.5017,2.6356,2.5304,2.5138,2.6039,2.6978,2.8273,3.0023,3.1391,3.2437,3.32,3.2448,3.2188,3.2333,3.1876,3.186,3.2273,3.2152,3.2316,3.2589,3.2255,3.209,3.2207,3.2637,3.3262,3.3984,3.4414,3.4863,3.5446,3.6777,3.7514,3.8221,3.991,4.141,4.2951,4.5704,4.5966,4.553,4.6357,4.5989,4.5829,4.7872,4.84,4.84,4.84,4.84,4.84,4.84,4.84,4.7918,4.6265,4.5944,4.5829,4.5415,4.537,4.616,4.8396,4.9202,5.0243,5.2051,5.2277,5.2452,5.2879,5.2929,5.2929,5.2929,5.2929,5.2929,5.2929,5.2929,5.2929,5.2929,5.2929,5.2929,5.2929,5.2929,5.2929,5.2929,5.2929,5.2929,5.2929,5.2929,5.2929,1.2104,1.2226,1.2599,1.2821,1.2865,0.0,0.0,1.2806,1.31,1.4609,1.4795,1.5069,1.6388,1.7242,1.7848,1.8057,1.9128,2.0081,2.0695,2.138,2.1778,2.1679,2.2038,2.2378,2.2658,2.3032,2.3598,2.4296,2.4899,2.5706,2.6654,2.6299,2.6252,2.7001,2.7742,2.9145,3.1137,3.1747,3.2321,3.287,3.2448,3.1912,3.1576,3.1565,3.1641,3.1836,3.1836,3.1958,3.2235,3.2675,3.2752,3.2519,3.2949,3.3496,3.4121,3.4551,3.4941,3.5485,3.7011,3.8486,3.9649,4.017,4.207,4.4484,4.6021,4.589,4.5461,4.5967,4.6495,4.7115,4.8125,4.9532,5.0222,4.8812,4.84,4.84,4.84,4.7597,4.6586,4.5553,4.537,4.537,4.537,4.654,4.8366,5.083,5.1247,5.1674,5.2779,5.2929,5.2929,5.2929,5.2929,5.2929,5.2929,5.2929,5.2929,5.2929,5.2929,5.2929,5.2929,5.2929,5.2929,5.2929,5.2929,5.2929,5.2929,5.2929,5.2929,5.2929,5.2929,5.2929,1.3233,1.3397,1.3819,1.4262,1.3857,1.3391,0.0,0.0,0.0,1.4384,1.4675,1.4829,1.5377,1.6244,1.7096,1.7574,1.8267,1.8903,1.9295,2.0183,2.0884,2.1011,2.1508,2.2028,2.2575,2.2983,2.3763,2.5057,2.5657,2.6116,2.6606,2.6995,2.7437,2.7974,2.8381,2.9642,3.193,3.1697,3.1828,3.2301,3.2378,3.1881,3.0918,3.1406,3.1601,3.1523,3.1601,3.1721,3.19,3.2995,3.3316,3.308,3.3513,3.3858,3.4238,3.457,3.4961,3.5658,3.7278,3.9451,4.1315,4.0344,4.2257,4.5073,4.5575,4.5575,4.5553,4.5553,4.6793,4.8148,4.8331,5.0672,5.2213,4.9818,4.8812,4.8286,4.7895,4.6518,4.537,4.537,4.589,4.616,4.616,4.8133,5.0343,5.2603,5.2929,5.2929,5.2929,5.2929,5.2929,5.2929,5.2929,5.2929,5.2929,5.2929,5.2929,5.2929,5.2929,5.2929,5.2929,5.2929,5.2929,5.2929,5.2929,5.2929,5.2929,5.2929,5.2929,5.2929,5.2929,5.2929,1.641,1.6689,1.6502,1.4626,1.5257,1.5566,1.2381,0.0,1.3254,1.2809,0.0,1.3031,1.4093,0.0,0.0,1.5429,1.6134,1.6828,1.7183,1.7648,1.8456,1.9761,2.0566,2.1268,2.2034,2.2601,2.3468,2.4721,2.4983,2.5604,2.6816,2.7048,2.766,2.8521,2.907,2.9431,2.9719,3.0101,3.0226,2.9984,3.0774,3.1073,3.0918,3.1719,3.1875,3.1543,3.1934,3.2336,3.2747,3.2871,3.3351,3.4044,3.449,3.4672,3.4629,3.4687,3.5215,3.6189,3.8353,3.9929,4.1241,4.2662,4.5174,4.7432,4.6849,4.6444,4.6265,4.6265,4.6632,4.7252,4.8171,5.0672,5.2792,5.2491,5.0388,4.7895,4.6104,4.553,4.537,4.537,4.7473,4.9072,4.9072,4.9332,5.0343,5.2603,5.2929,5.2929,5.2929,5.2929,5.2929,5.2929,5.2929,5.2929,5.2929,5.2929,5.2929,5.2929,5.2929,5.2929,5.2929,5.2929,5.2929,5.2929,5.2929,5.2929,5.2929,5.2929,5.2929,5.2929,5.2929,5.2929,1.6713,1.6867,1.6816,1.5429,1.536,1.5035,1.2774,1.2415,1.2586,1.2706,0.0,0.0,0.0,0.0,0.0,0.0,1.5028,1.5443,1.5566,1.6156,1.7116,1.8545,1.923,2.0286,2.2066,2.2778,2.3373,2.3969,2.4189,2.4715,2.5945,2.7116,2.8217,2.9103,2.9891,3.0373,3.067,3.0877,3.103,3.1111,3.1492,3.1602,3.1641,3.1738,3.1699,3.1523,3.1719,3.2076,3.2655,3.3983,3.4146,3.3933,3.5479,3.555,3.4726,3.5,3.5488,3.6287,3.7709,3.9444,4.155,4.5014,4.6318,4.637,4.6019,4.5963,4.5783,4.5783,4.5875,4.6773,5.0074,5.1935,5.2929,5.2929,5.0949,4.8444,4.5939,4.6674,4.787,4.787,4.8812,5.0017,5.1297,5.1523,5.185,5.2779,5.2929,5.2929,5.2929,5.2929,5.2929,5.2929,5.2929,5.2929,5.2929,5.2929,5.2929,5.2929,5.2929,5.2929,5.2929,5.2929,5.2929,5.2929,5.2929,5.2929,5.2929,5.2929,5.2929,5.2929,5.2929,5.2929,1.7355,1.7329,1.7209,1.584,1.5155,1.4453,1.2997,1.2483,1.2518,1.3288,1.3682,0.0,0.0,0.0,1.4042,0.0,0.0,1.4792,1.4724,1.4989,1.5808,1.7346,1.8357,1.9592,2.1446,2.1986,2.239,2.2763,2.3012,2.3772,2.5209,2.6962,2.8435,2.9551,3.0312,3.0833,3.1055,3.1035,3.1257,3.1701,3.1727,3.1838,3.1973,3.166,3.1523,3.1523,3.1641,3.1934,3.2485,3.4349,3.4429,3.376,3.5954,3.6131,3.5297,3.5387,3.5664,3.6171,3.7738,3.9768,4.2365,4.6949,4.6954,4.5483,4.6294,4.6941,4.7158,4.578,4.576,4.7213,5.1817,5.2929,5.2779,5.2151,5.077,4.9072,4.6941,4.8133,4.9766,5.0393,5.0519,5.1021,5.2653,5.2929,5.2929,5.2929,5.2929,5.2929,5.2929,5.2929,5.2929,5.2929,5.2929,5.2929,5.2929,5.2929,5.3055,5.3356,5.3381,5.3381,5.3381,5.3281,5.3231,5.3231,5.3331,5.3432,5.3532,5.3331,5.3206,5.313,5.3005,5.2929,1.9093,1.9093,1.8391,1.5463,1.4966,1.4607,1.2325,1.2689,1.3682,1.447,1.548,1.6336,1.6747,1.6507,0.0,0.0,0.0,0.0,0.0,1.4042,1.4264,1.6254,1.8357,1.9727,1.9778,1.9869,2.0219,2.0916,2.1554,2.2741,2.4767,2.6673,2.8257,2.9551,3.0,3.0019,2.9702,2.9702,2.9917,3.0215,3.0664,3.1113,3.1543,3.1523,3.1523,3.1543,3.1953,3.2383,3.2812,3.3223,3.3652,3.423,3.5787,3.6493,3.675,3.5771,3.5664,3.6346,3.8895,4.1485,4.4341,4.8263,4.7714,4.589,4.8682,5.0964,5.1668,4.6721,4.677,4.9008,5.205,5.2929,5.2377,5.0218,4.964,4.959,4.9461,4.959,5.0243,5.2402,5.2829,5.2854,5.2929,5.2929,5.2929,5.2929,5.2929,5.2929,5.2929,5.2929,5.2929,5.2929,5.2929,5.2929,5.2929,5.2929,5.3381,5.4436,5.4511,5.4511,5.4511,5.4185,5.3984,5.3984,5.4336,5.4687,5.5039,5.4336,5.3884,5.3658,5.3155,5.2929,2.0001,2.0103,1.9761,1.7466,1.6627,1.5805,1.3802,1.4007,1.4641,1.4675,1.5959,1.7055,1.6935,1.6593,0.0,0.0,0.0,0.0,0.0,1.3528,1.3853,1.4761,1.6698,1.8162,1.869,1.9159,1.9653,2.0219,2.0606,2.1728,2.3975,2.5934,2.7555,2.8711,2.9687,3.0,2.957,3.0156,3.0508,3.0664,3.1387,3.166,3.1523,3.1816,3.1797,3.1562,3.2285,3.2656,3.2851,3.4293,3.4946,3.5275,3.6261,3.6779,3.6942,3.685,3.7119,3.7758,3.9983,4.1244,4.2482,4.6849,4.8158,4.8396,4.9332,5.1147,5.2504,5.0911,5.0815,5.1313,5.083,5.072,5.0519,4.9766,4.959,4.959,4.959,5.0745,5.2026,5.2779,5.2929,5.2929,5.2929,5.2929,5.2929,5.2929,5.2929,5.2929,5.2929,5.2929,5.2929,5.2929,5.2929,5.2929,5.2929,5.426,5.5265,5.5641,5.5189,5.4813,5.4587,5.4436,5.4102,5.3675,5.3799,5.3923,5.4047,5.3799,5.3768,5.426,5.4084,5.3632,2.1131,2.1079,2.0668,1.9042,1.8288,1.7466,1.5703,1.5977,1.6559,1.6319,1.7449,1.8477,1.8511,1.7877,0.0,0.0,0.0,0.0,0.0,1.3288,1.3596,1.3853,1.5495,1.7058,1.8057,1.8109,1.8584,1.9712,1.9609,2.0764,2.3551,2.543,2.7056,2.8281,2.9531,3.0059,2.9805,3.0527,3.0957,3.1113,3.168,3.1797,3.1523,3.1816,3.1875,3.1797,3.248,3.3119,3.3689,3.5017,3.5677,3.6029,3.7395,3.766,3.7187,3.7254,3.8344,3.9899,4.1177,4.1993,4.2948,4.6328,4.842,4.9741,5.0544,5.1222,5.1749,5.1749,5.1749,5.1423,4.9967,4.959,4.959,4.959,4.959,4.9816,5.0619,5.19,5.2929,5.2929,5.2929,5.2929,5.2929,5.2929,5.2929,5.2929,5.2929,5.2929,5.2929,5.2929,5.3231,5.4009,5.4084,5.4084,5.4084,5.539,5.6219,5.6219,5.5451,5.4812,5.4708,5.4419,5.4129,5.3546,5.3546,5.3692,5.3984,5.3787,5.4122,5.4863,5.4662,5.4185]}]]